[[{"header":{"parameterUnit":"m.s-1","parameterCategory":1,"la1":30.6,"la2":29.2853,"lo1":-89.7004,"lo2":-87.6739,"dx":0.0162,"dy":0.0183,"nx":112,"ny":82,"refTime":"2022-11-22T18:00:00:Z","depth":0,"parameterNumber":2,"parameterNumberName":"U-component_of_WINDS"},"data":[0.0,0.0,0.0,0.0,0.0,0.0,0.0,0.0,0.0,0.0,0.0,0.0,0.0,0.0,0.0,0.0,0.0,0.0,0.0,0.0,0.0,0.0,0.0,0.0,0.0,0.0,0.0,0.0,0.0,0.0,0.0,0.0,0.0,0.0,0.0,0.0,0.0,0.0,0.0,0.0,0.0,0.0,0.0,0.0,0.0,0.0,0.0,0.0,0.0,0.0,0.0,0.0,0.0,0.0,0.0,0.0,0.0,0.0,0.0,0.0,0.0,0.0,0.0,0.0,0.0,0.0,0.0,0.0,0.0,0.0,0.0,0.0,0.0,0.0,0.0,0.0,0.0,0.0,0.0,0.0,0.0,0.0,0.0,0.0,0.0,0.0,0.0,0.0,0.0,0.0,0.0,-1.5178,-1.5356,-1.5642,-1.5832,-1.5737,-1.5642,-1.5832,0.0,0.0,0.0,0.0,0.0,0.0,0.0,0.0,0.0,0.0,0.0,0.0,0.0,0.0,0.0,0.0,0.0,0.0,0.0,0.0,0.0,0.0,0.0,0.0,0.0,0.0,0.0,0.0,0.0,0.0,0.0,0.0,0.0,0.0,0.0,0.0,0.0,0.0,0.0,0.0,0.0,0.0,0.0,0.0,0.0,0.0,0.0,0.0,0.0,0.0,0.0,0.0,0.0,0.0,0.0,0.0,0.0,0.0,0.0,0.0,0.0,0.0,0.0,0.0,0.0,0.0,0.0,0.0,0.0,0.0,0.0,0.0,0.0,0.0,0.0,0.0,0.0,0.0,0.0,0.0,0.0,0.0,0.0,0.0,0.0,0.0,0.0,0.0,0.0,0.0,0.0,0.0,0.0,0.0,0.0,0.0,0.0,0.0,0.0,0.0,0.0,0.0,0.0,0.0,-1.5452,-1.5452,-1.5642,-1.5832,-1.613,-1.613,-1.613,-1.613,0.0,0.0,0.0,0.0,0.0,0.0,0.0,0.0,0.0,0.0,0.0,0.0,0.0,0.0,0.0,0.0,0.0,0.0,0.0,0.0,0.0,0.0,0.0,0.0,0.0,0.0,0.0,0.0,0.0,0.0,0.0,0.0,0.0,0.0,0.0,0.0,0.0,0.0,0.0,0.0,0.0,0.0,0.0,0.0,0.0,0.0,0.0,0.0,0.0,0.0,0.0,0.0,0.0,0.0,0.0,0.0,0.0,0.0,0.0,0.0,0.0,0.0,0.0,0.0,0.0,0.0,0.0,0.0,0.0,0.0,0.0,0.0,0.0,0.0,0.0,0.0,0.0,0.0,0.0,0.0,0.0,0.0,0.0,0.0,0.0,0.0,0.0,0.0,0.0,0.0,0.0,0.0,0.0,0.0,0.0,0.0,0.0,0.0,0.0,0.0,0.0,0.0,0.0,-1.5642,-1.5642,-1.5642,-1.5737,-1.5832,-1.5927,-1.6021,-1.6021,-1.6021,-1.6021,0.0,0.0,0.0,0.0,0.0,0.0,0.0,0.0,0.0,0.0,0.0,0.0,0.0,0.0,0.0,0.0,0.0,0.0,0.0,0.0,0.0,0.0,0.0,0.0,0.0,0.0,0.0,0.0,0.0,0.0,0.0,0.0,0.0,0.0,0.0,0.0,0.0,0.0,0.0,0.0,0.0,0.0,0.0,0.0,0.0,0.0,0.0,0.0,0.0,0.0,0.0,0.0,0.0,0.0,0.0,0.0,0.0,0.0,0.0,0.0,0.0,0.0,0.0,0.0,0.0,0.0,0.0,0.0,0.0,0.0,0.0,0.0,0.0,0.0,0.0,0.0,0.0,0.0,0.0,0.0,0.0,0.0,0.0,0.0,0.0,0.0,0.0,0.0,0.0,0.0,0.0,0.0,0.0,0.0,0.0,0.0,0.0,0.0,0.0,0.0,0.0,0.0,-1.5642,-1.5858,-1.583,-1.5967,-1.5953,-1.5925,-1.5872,-1.5858,-1.5925,-1.5967,0.0,0.0,0.0,0.0,0.0,0.0,0.0,0.0,0.0,0.0,0.0,0.0,0.0,0.0,0.0,0.0,0.0,0.0,0.0,0.0,0.0,0.0,0.0,0.0,0.0,0.0,0.0,0.0,0.0,0.0,0.0,0.0,0.0,0.0,0.0,0.0,0.0,0.0,0.0,0.0,0.0,0.0,0.0,0.0,0.0,0.0,0.0,0.0,0.0,0.0,0.0,0.0,0.0,0.0,0.0,0.0,0.0,0.0,0.0,0.0,0.0,0.0,0.0,0.0,0.0,0.0,0.0,0.0,0.0,0.0,0.0,0.0,0.0,0.0,0.0,0.0,0.0,0.0,0.0,0.0,0.0,0.0,0.0,0.0,0.0,0.0,0.0,0.0,0.0,0.0,0.0,0.0,0.0,0.0,0.0,0.0,0.0,0.0,0.0,0.0,0.0,0.0,-1.5642,-1.583,-1.5914,-1.6279,-1.651,-1.6316,-1.5992,-1.5952,-1.6219,-1.5787,0.0,0.0,0.0,0.0,0.0,0.0,0.0,0.0,0.0,0.0,0.0,0.0,0.0,0.0,0.0,0.0,0.0,0.0,0.0,0.0,0.0,0.0,0.0,0.0,0.0,0.0,0.0,0.0,0.0,0.0,0.0,0.0,0.0,0.0,0.0,0.0,0.0,0.0,0.0,0.0,0.0,0.0,0.0,0.0,0.0,0.0,0.0,0.0,0.0,0.0,0.0,0.0,0.0,0.0,0.0,0.0,0.0,0.0,0.0,0.0,0.0,0.0,0.0,0.0,0.0,0.0,0.0,0.0,0.0,0.0,0.0,0.0,0.0,0.0,0.0,0.0,0.0,0.0,0.0,0.0,0.0,0.0,0.0,0.0,0.0,0.0,0.0,0.0,0.0,0.0,0.0,0.0,0.0,0.0,0.0,0.0,0.0,0.0,0.0,0.0,0.0,0.0,-1.5635,-1.5524,0.0,-1.5642,-1.563,-1.5732,-1.5477,-1.546,-1.5673,0.0,0.0,0.0,0.0,0.0,0.0,0.0,0.0,0.0,0.0,0.0,0.0,0.0,0.0,0.0,0.0,0.0,0.0,0.0,0.0,0.0,0.0,0.0,0.0,0.0,0.0,0.0,0.0,0.0,0.0,0.0,0.0,0.0,0.0,0.0,0.0,0.0,0.0,0.0,0.0,0.0,0.0,0.0,0.0,0.0,0.0,0.0,0.0,0.0,0.0,0.0,0.0,0.0,0.0,0.0,0.0,0.0,0.0,0.0,0.0,0.0,0.0,0.0,0.0,0.0,0.0,0.0,0.0,0.0,0.0,0.0,0.0,0.0,0.0,0.0,0.0,0.0,0.0,0.0,0.0,0.0,0.0,0.0,0.0,0.0,0.0,0.0,0.0,0.0,0.0,0.0,0.0,0.0,0.0,0.0,0.0,0.0,0.0,0.0,0.0,0.0,0.0,-1.5844,-1.5681,-1.5519,0.0,-1.5442,-1.5328,-1.4993,-1.4855,-1.4835,-1.4932,0.0,0.0,0.0,0.0,0.0,0.0,0.0,0.0,0.0,0.0,0.0,0.0,0.0,0.0,0.0,0.0,0.0,0.0,0.0,0.0,0.0,0.0,0.0,0.0,0.0,0.0,0.0,0.0,0.0,0.0,0.0,0.0,0.0,0.0,0.0,0.0,0.0,0.0,0.0,0.0,0.0,0.0,0.0,0.0,0.0,0.0,0.0,0.0,0.0,0.0,0.0,0.0,0.0,0.0,0.0,0.0,0.0,0.0,0.0,0.0,0.0,0.0,0.0,0.0,0.0,0.0,0.0,0.0,0.0,0.0,0.0,0.0,0.0,0.0,0.0,0.0,0.0,0.0,0.0,0.0,0.0,0.0,0.0,0.0,0.0,0.0,0.0,0.0,0.0,0.0,0.0,0.0,0.0,0.0,0.0,0.0,0.0,0.0,0.0,0.0,0.0,0.0,-1.5541,-1.5744,-1.5821,-1.5475,-1.6177,-1.5897,-1.419,-1.4082,-1.4037,0.0,0.0,0.0,0.0,0.0,0.0,0.0,0.0,0.0,0.0,0.0,0.0,0.0,0.0,0.0,0.0,0.0,0.0,0.0,0.0,0.0,0.0,0.0,0.0,0.0,0.0,0.0,0.0,0.0,0.0,0.0,0.0,0.0,0.0,0.0,0.0,0.0,0.0,0.0,0.0,0.0,0.0,0.0,0.0,0.0,0.0,0.0,0.0,0.0,0.0,0.0,0.0,0.0,0.0,0.0,0.0,0.0,0.0,0.0,0.0,0.0,0.0,0.0,0.0,0.0,0.0,0.0,0.0,0.0,0.0,0.0,0.0,0.0,0.0,0.0,0.0,0.0,0.0,0.0,0.0,0.0,0.0,0.0,0.0,0.0,0.0,0.0,0.0,0.0,0.0,0.0,0.0,0.0,0.0,0.0,0.0,0.0,0.0,0.0,0.0,0.0,0.0,0.0,0.0,-1.5124,-1.485,-1.5117,-1.4199,-1.3529,-1.3291,-1.2442,-1.2451,-1.3467,0.0,0.0,0.0,0.0,0.0,0.0,0.0,0.0,0.0,0.0,0.0,0.0,0.0,0.0,0.0,0.0,0.0,0.0,0.0,0.0,0.0,0.0,0.0,0.0,0.0,0.0,0.0,0.0,0.0,0.0,0.0,0.0,0.0,0.0,0.0,0.0,0.0,0.0,0.0,0.0,0.0,0.0,0.0,0.0,0.0,0.0,0.0,0.0,0.0,0.0,0.0,0.0,0.0,0.0,0.0,0.0,0.0,0.0,0.0,0.0,0.0,0.0,0.0,0.0,0.0,0.0,0.0,0.0,0.0,0.0,0.0,0.0,0.0,0.0,0.0,0.0,0.0,0.0,0.0,0.0,0.0,0.0,0.0,0.0,0.0,0.0,0.0,0.0,0.0,0.0,0.0,0.0,0.0,0.0,0.0,0.0,0.0,0.0,0.0,0.0,0.0,0.0,-1.6143,-1.534,-1.4881,-1.5137,-1.3943,-1.296,-1.2526,-1.1371,-1.1078,-1.2005,0.0,0.0,0.0,0.0,0.0,0.0,0.0,0.0,0.0,0.0,0.0,0.0,0.0,0.0,0.0,0.0,0.0,0.0,0.0,0.0,0.0,0.0,0.0,0.0,0.0,0.0,0.0,0.0,0.0,0.0,0.0,0.0,0.0,0.0,0.0,0.0,0.0,0.0,0.0,0.0,0.0,0.0,0.0,0.0,0.0,0.0,0.0,0.0,0.0,0.0,0.0,0.0,0.0,0.0,0.0,0.0,0.0,0.0,0.0,0.0,0.0,0.0,0.0,0.0,0.0,0.0,0.0,0.0,0.0,0.0,0.0,0.0,0.0,0.0,0.0,0.0,0.0,0.0,0.0,0.0,0.0,0.0,0.0,0.0,0.0,0.0,0.0,0.0,0.0,0.0,0.0,0.0,0.0,0.0,0.0,0.0,0.0,0.0,0.0,0.0,0.0,0.0,-1.6511,-1.5803,-1.5302,-1.5302,-1.4331,-1.3247,-1.1928,-1.0666,-0.9985,-1.0264,0.0,0.0,0.0,0.0,0.0,0.0,0.0,0.0,0.0,0.0,0.0,0.0,0.0,0.0,0.0,0.0,0.0,0.0,0.0,0.0,0.0,0.0,0.0,0.0,0.0,0.0,0.0,0.0,0.0,0.0,0.0,0.0,0.0,0.0,0.0,0.0,0.0,0.0,0.0,0.0,0.0,0.0,0.0,0.0,0.0,0.0,0.0,0.0,0.0,0.0,0.0,0.0,0.0,0.0,0.0,0.0,0.0,0.0,0.0,0.0,-1.4574,0.0,0.0,0.0,0.0,0.0,0.0,0.0,0.0,0.0,0.0,0.0,0.0,0.0,0.0,0.0,0.0,0.0,0.0,0.0,0.0,0.0,0.0,0.0,0.0,0.0,0.0,0.0,0.0,0.0,0.0,0.0,0.0,0.0,0.0,0.0,0.0,0.0,0.0,0.0,0.0,0.0,-1.5956,-1.4538,-1.3658,-1.3878,-1.1785,-1.0288,-1.0288,-0.9476,-0.9405,-1.0331,0.0,0.0,0.0,0.0,0.0,0.0,0.0,0.0,0.0,0.0,0.0,0.0,0.0,0.0,0.0,0.0,0.0,0.0,0.0,0.0,0.0,0.0,0.0,0.0,0.0,0.0,0.0,0.0,0.0,0.0,0.0,0.0,0.0,0.0,0.0,0.0,0.0,0.0,0.0,0.0,0.0,0.0,0.0,0.0,0.0,0.0,0.0,0.0,0.0,0.0,0.0,0.0,0.0,0.0,0.0,0.0,0.0,0.0,0.0,0.0,0.0,-1.4694,0.0,0.0,0.0,0.0,0.0,0.0,0.0,0.0,0.0,0.0,0.0,0.0,0.0,0.0,0.0,0.0,0.0,0.0,0.0,0.0,0.0,0.0,0.0,0.0,0.0,0.0,0.0,0.0,0.0,0.0,0.0,0.0,0.0,0.0,0.0,0.0,0.0,0.0,0.0,0.0,-1.6306,-1.4553,-1.3331,-1.377,-1.1477,-1.0055,-1.0401,-0.9353,-0.915,-1.0047,-0.9861,0.0,0.0,0.0,0.0,0.0,0.0,0.0,0.0,0.0,0.0,0.0,0.0,0.0,0.0,0.0,0.0,0.0,0.0,0.0,0.0,0.0,0.0,0.0,0.0,0.0,0.0,0.0,0.0,0.0,0.0,0.0,0.0,0.0,0.0,0.0,0.0,0.0,0.0,0.0,0.0,0.0,0.0,0.0,0.0,0.0,0.0,0.0,0.0,0.0,0.0,0.0,0.0,0.0,0.0,-1.9609,-1.8499,-1.8022,-1.74,-1.6692,-1.5933,-1.5177,-1.4378,0.0,0.0,0.0,0.0,0.0,0.0,0.0,0.0,0.0,0.0,0.0,0.0,0.0,0.0,0.0,0.0,0.0,0.0,0.0,0.0,0.0,0.0,0.0,0.0,0.0,-1.4767,-1.4801,0.0,0.0,0.0,0.0,0.0,0.0,0.0,0.0,0.0,0.0,0.0,0.0,-1.6918,-1.4813,-1.3432,-1.4013,-1.1851,-1.0484,-1.0732,-0.9666,-0.9118,-0.9574,-0.911,-0.8864,0.0,0.0,0.0,0.0,0.0,0.0,0.0,0.0,0.0,0.0,0.0,0.0,0.0,0.0,0.0,0.0,0.0,0.0,0.0,0.0,0.0,0.0,0.0,0.0,0.0,0.0,0.0,0.0,0.0,0.0,0.0,0.0,-1.8037,-1.6942,0.0,0.0,0.0,0.0,0.0,0.0,0.0,0.0,0.0,0.0,0.0,0.0,0.0,0.0,-1.9597,-1.9769,-1.9817,-1.9702,-2.0622,-2.0342,-1.9134,-1.8948,-1.8191,-1.6947,-1.5725,0.0,-1.3704,-1.3583,0.0,0.0,0.0,0.0,0.0,0.0,0.0,0.0,0.0,0.0,0.0,0.0,0.0,0.0,0.0,0.0,0.0,0.0,0.0,0.0,0.0,0.0,-1.2748,-1.4477,-1.5371,-1.5545,0.0,-1.4614,-1.4308,-1.4334,0.0,0.0,0.0,0.0,0.0,0.0,0.0,0.0,-1.67,-1.4255,-1.2606,-1.2947,-1.0621,-0.9284,-0.9519,-0.9513,-0.9551,-0.9551,-0.9766,-0.9462,-0.8537,-0.8531,0.0,0.0,0.0,0.0,0.0,0.0,0.0,0.0,0.0,0.0,0.0,0.0,0.0,0.0,0.0,0.0,0.0,0.0,0.0,0.0,0.0,0.0,0.0,0.0,0.0,0.0,0.0,0.0,0.0,-1.6766,-1.7467,-1.6444,-1.7403,-1.7734,0.0,0.0,0.0,0.0,0.0,0.0,0.0,0.0,0.0,-1.8558,-1.9898,-2.0619,-2.0598,-2.0692,-2.0713,-2.0569,-2.1283,-2.1154,-2.0178,-1.9926,-1.9099,-1.786,-1.6498,-1.5305,-1.4259,-1.4359,-1.4522,-1.4778,0.0,0.0,0.0,0.0,0.0,-1.4255,-1.3926,0.0,0.0,0.0,0.0,0.0,0.0,0.0,0.0,0.0,0.0,0.0,0.0,0.0,0.0,-1.4741,-1.5342,-1.5523,-1.5188,-1.4877,-1.4668,0.0,-1.4866,-1.5054,-1.5512,0.0,0.0,0.0,0.0,0.0,-1.5514,-1.376,-1.2337,-1.198,-1.0258,-0.9214,-0.9579,-0.964,-0.9573,-0.9367,-0.9242,-0.8978,-0.8207,-0.7836,-0.7635,0.0,0.0,0.0,0.0,0.0,0.0,0.0,0.0,0.0,0.0,0.0,0.0,0.0,0.0,0.0,0.0,0.0,0.0,0.0,0.0,0.0,0.0,0.0,0.0,0.0,0.0,0.0,0.0,-1.6581,-1.7277,-1.6237,-1.7311,-1.7842,0.0,0.0,0.0,0.0,0.0,0.0,-1.8166,-1.9543,-2.0225,-1.9871,-2.0989,-2.1607,-2.1751,-2.1843,-2.1803,-2.1602,-2.2272,-2.2178,-2.1508,-2.0623,-1.975,-1.8773,-1.6967,-1.569,-1.4787,-1.507,-1.5019,-1.4812,-1.5268,-1.5604,-1.5784,-1.5798,-1.5286,-1.45,-1.4358,-1.3345,-1.2115,-1.2481,0.0,-1.16,-1.2308,0.0,0.0,0.0,0.0,-1.1776,-1.2573,0.0,-1.4049,-1.4866,-1.5322,-1.5546,-1.5546,-1.5374,-1.5259,0.0,-1.5343,-1.5421,-1.5885,0.0,0.0,0.0,0.0,-1.5759,-1.5048,-1.374,-1.2552,-1.1638,-1.0306,-0.9691,-0.9937,-0.9814,-0.9522,-0.9169,-0.8769,-0.8389,-0.7911,-0.7433,-0.7354,0.0,0.0,0.0,0.0,0.0,0.0,0.0,0.0,0.0,0.0,0.0,0.0,0.0,0.0,0.0,0.0,0.0,0.0,0.0,0.0,0.0,0.0,0.0,0.0,0.0,0.0,0.0,0.0,0.0,0.0,-1.7173,-1.767,0.0,0.0,0.0,0.0,-1.9615,-1.9743,-1.9843,-1.9889,-2.1025,-2.148,-2.1123,-2.2262,-2.2957,-2.3359,-2.3359,-2.3377,-2.3395,-2.3877,-2.3859,-2.3281,-2.0785,-1.9591,-1.9375,-1.6491,-1.519,-1.5065,-1.4787,-1.506,-1.5583,-1.5395,-1.5846,-1.6518,-1.5954,-1.5279,-1.4493,-1.3861,-1.2995,-1.2114,-1.2134,-1.2134,-1.2114,-1.2134,-1.2278,0.0,0.0,-1.2333,-1.2545,-1.3559,-1.3803,-1.4155,-1.5183,-1.5671,-1.6034,-1.6034,-1.5993,-1.5909,0.0,-1.5343,-1.5523,-1.6459,0.0,-1.6691,-1.7325,-1.7126,-1.6617,-1.5881,-1.4324,-1.3049,-1.2239,-1.1009,-1.0256,-1.0256,-0.9615,-0.9227,-0.9221,-0.8723,-0.816,-0.7541,-0.7798,-0.7801,-0.7693,-0.6727,0.0,0.0,0.0,0.0,0.0,0.0,0.0,0.0,0.0,0.0,0.0,0.0,0.0,0.0,0.0,0.0,0.0,0.0,0.0,0.0,0.0,0.0,0.0,0.0,0.0,0.0,0.0,0.0,-1.8145,-1.8859,0.0,0.0,-1.8859,-1.9066,-1.9931,-2.0454,-2.0727,-2.0783,-2.2135,-2.2811,-2.2717,-2.3341,-2.3785,-2.3932,-2.3481,-2.3481,-2.3932,-2.3724,-2.3233,-2.2711,-2.1779,-2.0468,-1.8949,-1.8116,-1.7226,-1.6511,-1.6493,-1.6106,-1.5357,-1.5432,-1.5592,-1.5888,-1.569,-1.5507,-1.5267,-1.4558,-1.4061,-1.3631,-1.3175,-1.3233,-1.3392,-1.2725,-1.285,-1.2987,-1.2486,-1.2823,-1.3404,-1.4008,-1.4614,-1.5123,-1.5758,-1.6053,-1.6178,-1.6178,-1.6243,-1.6254,-1.6309,-1.6031,-1.606,-1.6943,-1.6874,-1.7016,-1.7567,-1.6753,-1.5809,-1.4661,-1.343,-1.2215,-1.115,-1.0143,-0.9634,-0.9634,-0.8869,-0.8359,-0.8225,-0.806,-0.7785,-0.7409,-0.7237,-0.7403,-0.7685,-0.6928,-0.6769,0.0,0.0,0.0,0.0,0.0,0.0,0.0,0.0,0.0,0.0,0.0,0.0,0.0,0.0,0.0,0.0,0.0,0.0,0.0,0.0,0.0,0.0,0.0,0.0,0.0,0.0,-1.8373,-1.8754,-1.948,-2.008,-2.0437,-2.0201,-2.03,-2.1139,-2.168,-2.2041,-2.2186,-2.3213,-2.3749,-2.3749,-2.3877,-2.4079,-2.4354,-2.3359,-2.3242,-2.3752,-2.3108,-2.2485,-2.1874,-2.1577,-2.0585,-1.9035,-1.8711,-1.8156,-1.7321,-1.7512,-1.6938,-1.5959,-1.6156,-1.626,-1.6365,-1.6156,-1.6057,-1.6004,-1.5041,-1.4719,-1.4578,-1.4017,-1.4105,-1.4331,-1.3752,-1.3826,-1.4155,-1.3706,-1.4077,-1.4547,-1.4772,-1.5246,-1.5839,-1.5959,-1.6154,-1.6312,-1.656,-1.656,-1.6684,-1.7168,-1.6785,-1.6552,-1.7368,-1.7276,-1.7399,-1.7871,-1.6761,-1.5307,-1.3861,-1.2615,-1.1374,-0.9903,-0.9386,-0.9127,-0.9127,-0.8519,-0.8133,-0.7961,-0.7832,-0.7557,-0.7523,-0.7258,-0.734,-0.7668,-0.7151,-0.6722,-0.6625,0.0,0.0,0.0,0.0,0.0,0.0,0.0,0.0,0.0,0.0,0.0,0.0,0.0,0.0,0.0,0.0,0.0,0.0,0.0,0.0,0.0,0.0,0.0,-1.5989,-1.7926,-1.9317,-1.8995,-1.9621,-2.0476,-2.1624,-2.1446,-2.1933,-2.3377,-2.3565,-2.373,-2.4134,-2.417,-2.417,-2.417,-2.3804,-2.3987,-2.4794,-2.3129,-2.252,-2.2927,-2.2209,-2.1553,-2.1043,-2.02,-1.969,-1.958,-1.8282,-1.7626,-1.7626,-1.7626,-1.7626,-1.7626,-1.7601,-1.7811,-1.8033,-1.7353,-1.6918,-1.647,-1.5355,-1.4912,-1.488,-1.4632,-1.4719,-1.4902,-1.4902,-1.5225,-1.5645,-1.5871,-1.5946,-1.5946,-1.6067,-1.5957,-1.5968,-1.5968,-1.6161,-1.6458,-1.7202,-1.7078,-1.7067,-1.8054,-1.7437,-1.6943,-1.7672,-1.7672,-1.7796,-1.8066,-1.6932,0.0,-1.3532,-1.2145,-1.0534,-0.8845,-0.8856,-0.9123,-0.9123,-0.8569,-0.8314,-0.8595,-0.7927,-0.7612,-0.7898,-0.7888,-0.7752,-0.7747,-0.7103,-0.658,-0.5929,0.0,0.0,0.0,0.0,0.0,0.0,0.0,0.0,0.0,0.0,0.0,0.0,0.0,0.0,0.0,0.0,0.0,0.0,0.0,0.0,0.0,0.0,-1.941,-1.9305,-1.9596,-2.0332,-2.1644,-2.1698,-2.2062,-2.2866,-2.2957,-2.3213,-2.3932,-2.3987,-2.4042,-2.4152,-2.4445,-2.4611,-2.4611,-2.4776,-2.4548,-2.3913,-2.3496,-2.2984,-2.2581,-2.2352,-2.1837,-2.1115,-2.0867,-2.0345,-1.9448,-1.9118,-1.8889,-1.8889,-1.8659,-1.8545,-1.8428,-1.8056,-1.77,-1.7353,-1.6894,-1.6468,-1.5865,-1.5514,-1.5515,-1.5591,-1.5182,-1.5214,-1.5397,-1.5397,-1.5494,-1.5612,-1.5677,-1.5817,-1.6067,-1.6189,-1.6451,-1.6588,-1.6713,-1.7025,-1.7202,-1.7468,-1.7584,-1.739,-1.6697,-1.6149,-1.5819,-1.6034,-1.5246,-1.4534,-1.429,-1.3155,0.0,-1.1534,-1.0234,-0.9111,-0.8704,-0.8309,-0.8173,-0.8449,-0.7801,-0.7636,0.0,-0.8056,-0.8046,-0.8408,-0.8328,-0.8242,-0.8156,-0.7717,-0.7192,0.0,0.0,0.0,0.0,0.0,0.0,0.0,0.0,0.0,0.0,0.0,0.0,0.0,0.0,0.0,0.0,0.0,0.0,0.0,0.0,0.0,0.0,-1.9138,-2.0925,-2.168,-2.1446,-2.1626,-2.2756,-2.2887,-2.3088,-2.373,-2.3804,-2.3895,-2.4134,-2.4317,-2.4409,-2.4409,-2.4812,-2.5032,-2.5032,-2.4819,-2.4369,-2.3871,-2.2905,-2.2198,-2.1877,-2.1332,-2.0798,-2.0188,-2.0188,-1.9731,0.0,-1.8942,-1.9008,-1.8907,-1.8777,-1.8682,0.0,0.0,0.0,0.0,0.0,-1.6487,-1.5903,-1.6013,-1.6111,-1.6043,-1.5785,-1.5829,-1.5903,-1.5903,-1.5968,-1.6064,-1.6161,-1.6291,-1.6387,-1.6637,-1.6718,-1.6935,-1.7191,-1.7429,-1.7529,-1.7658,-1.7787,-1.7345,-1.589,0.0,0.0,-1.3147,-1.3139,-1.3051,-1.289,-1.16,-1.0683,-1.0419,-0.9244,-0.8349,-0.8148,-0.8018,-0.7882,-0.8158,-0.7791,0.0,0.0,0.0,-0.8262,-0.8397,-0.8333,0.0,0.0,0.0,0.0,0.0,0.0,0.0,0.0,-0.5451,-0.5508,0.0,0.0,0.0,0.0,0.0,0.0,0.0,0.0,0.0,0.0,0.0,0.0,0.0,0.0,0.0,0.0,-1.9817,-2.1446,-2.3249,-2.329,-2.3088,-2.3088,-2.34,-2.3749,-2.4115,-2.4152,-2.417,-2.4225,-2.4574,-2.4812,-2.4849,0.0,0.0,0.0,0.0,-2.3815,-2.403,-2.1834,-2.0769,-2.0945,-1.9897,-1.9185,-1.8918,-1.8805,-1.8678,-1.8451,-1.8477,-1.8429,-1.8361,-1.8257,-1.8274,-1.8215,-1.8178,-1.8191,-1.8042,-1.7449,-1.6841,0.0,0.0,0.0,0.0,-1.6486,-1.6451,-1.6387,-1.6387,-1.6517,-1.671,-1.6937,-1.698,-1.6969,-1.7001,-1.7001,-1.713,-1.74,-1.7529,-1.7529,-1.7776,-1.7518,-1.6721,-1.5365,-1.3683,-1.1724,-0.9575,-1.0913,-1.2119,-1.2119,-1.1073,-1.0154,-0.9738,-0.8706,-0.7789,-0.7526,0.0,0.0,-0.8076,-0.8168,-0.8314,-0.8595,-0.8423,-0.8209,-0.8209,-0.8209,-0.8028,-0.7526,-0.694,-0.6455,-0.6082,-0.5311,-0.4812,-0.4625,-0.5348,-0.5513,0.0,0.0,0.0,0.0,0.0,0.0,0.0,0.0,0.0,0.0,0.0,0.0,0.0,0.0,0.0,-1.8769,-2.0811,-2.2607,-2.3395,-2.3767,-2.3914,-2.3914,-2.3987,-2.406,-2.4152,-2.4152,-2.4299,-2.4629,-2.4739,-2.4922,-2.5234,-2.5637,0.0,-2.5839,-2.5054,-2.4149,-2.3215,-2.1752,-2.0659,-1.9707,0.0,0.0,-1.8918,-1.8564,-1.8451,-1.8464,-1.8698,-1.8608,-1.8282,-1.8344,-1.7899,-1.7383,-1.7796,-1.786,-1.7807,-1.7644,-1.7222,-1.6718,-1.6959,-1.6965,-1.6829,-1.6729,-1.6805,-1.6872,-1.6872,-1.6775,0.0,-1.6937,-1.6872,-1.6903,-1.7345,-1.74,-1.74,-1.7529,-1.7271,-1.713,-1.713,-1.6073,-1.4577,-1.2984,-1.1374,-0.9551,-0.7547,-0.7923,-0.8307,-0.7779,-0.7512,-0.7355,-0.7403,-0.7337,-0.7254,-0.7526,-0.7733,-0.7917,-0.8194,-0.8214,-0.8314,-0.8595,-0.8611,-0.8488,-0.8488,-0.8488,-0.821,-0.7517,-0.7402,-0.6715,-0.5604,-0.5366,-0.497,-0.4426,-0.4568,-0.4577,0.0,0.0,0.0,0.0,0.0,0.0,0.0,0.0,0.0,0.0,0.0,-1.4627,0.0,0.0,-1.8941,-1.9754,-2.1473,-2.2921,-2.3724,-2.4024,-2.4152,-2.4152,-2.4335,-2.4464,-2.4464,-2.4647,-2.4849,-2.5069,-2.5252,-2.5454,-2.5656,-2.6059,-2.6045,-2.5377,-2.4454,-2.3311,-2.2085,-2.0786,-1.9704,-1.9145,-1.8757,-1.8612,-1.848,-1.8529,-1.8466,-1.8249,-1.879,-1.8854,-1.8289,-1.8082,-1.7777,-1.734,-1.7598,-1.7542,-1.7427,-1.7296,-1.7085,-1.6968,-1.7213,-1.7085,-1.6829,-1.7096,-1.6968,-1.685,-1.6969,-1.6926,-1.6861,-1.7109,-1.7183,-1.7129,-1.7367,-1.7529,-1.74,-1.7271,-1.7141,-1.6742,-1.5944,-1.4893,-1.3396,-1.1005,-0.9739,-0.8421,-0.6717,-0.6645,-0.6705,-0.6448,-0.6452,-0.6697,-0.6909,-0.7206,-0.75,-0.7762,-0.7939,-0.7974,-0.8239,-0.8296,-0.8302,-0.8508,-0.8557,-0.859,-0.859,-0.8184,-0.7917,-0.7512,-0.6849,-0.6049,-0.5379,-0.5014,-0.4759,-0.4354,-0.4382,-0.4362,0.0,0.0,0.0,0.0,0.0,0.0,0.0,0.0,-1.3547,-1.4434,-1.5035,-1.5706,-1.6672,-1.8255,-1.9777,-2.0704,-2.1882,-2.2983,-2.3998,-2.4225,-2.428,-2.428,-2.4574,-2.4812,-2.4783,-2.5179,-2.5399,-2.5472,-2.5784,-2.5986,-2.6078,-2.6173,-2.5789,-2.4778,-2.3424,-2.2153,-2.1086,-1.9594,-1.8918,-1.8805,-1.8564,-1.8333,-1.8125,-1.8646,-1.8635,-1.8224,-1.8906,-1.8903,-1.8382,-1.7911,-1.7634,-1.74,-1.7485,-1.7205,-1.7065,-1.7194,-1.7065,-1.6937,-1.7279,-1.7136,-1.6751,-1.7074,-1.7008,-1.6635,-1.6818,-1.6904,-1.7065,-1.7334,-1.7496,-1.7529,-1.7529,-1.74,-1.7141,-1.6742,-1.6312,-1.5754,-1.4169,-1.324,-1.2003,-0.941,-0.8356,-0.7547,-0.6426,-0.6157,-0.6289,-0.6306,-0.6571,-0.6819,-0.7179,-0.7454,-0.7847,-0.8204,-0.822,-0.8236,-0.8236,-0.8323,-0.8383,-0.8383,-0.8486,-0.8419,-0.8286,-0.7794,-0.7277,-0.7143,-0.5953,-0.5423,-0.5288,-0.4664,-0.4414,-0.4417,-0.4461,-0.4433,-1.34,0.0,0.0,-1.2498,-1.2663,-1.2687,0.0,0.0,-1.2464,-1.261,-1.3609,-1.4771,-1.5945,-1.7762,-1.9605,-2.0903,-2.1872,-2.2885,-2.4035,-2.4482,-2.4721,-2.4721,-2.4757,-2.4802,-2.4837,-2.524,-2.5509,-2.5876,-2.5931,-2.6114,-2.6499,-2.5551,-2.4889,-2.4778,-2.2636,-2.1141,-2.075,-1.9498,-1.8805,-1.8451,-1.8691,-1.8665,-1.8411,-1.8724,-1.8855,-1.8752,-1.8721,-1.8582,-1.8215,-1.7758,-1.7401,-1.7109,-1.7169,-1.7092,-1.7207,-1.7828,-1.7449,-1.6794,-1.7213,-1.6874,-1.6355,-1.6387,-1.6377,-1.6355,-1.6387,-1.6779,-1.7196,-1.7196,-1.7363,-1.7529,-1.7905,-1.726,-1.6343,-1.5414,-1.4096,-1.2814,-1.1774,-0.9871,-0.8514,-0.837,-0.7345,-0.6293,-0.6084,-0.6315,-0.6471,-0.6686,-0.6699,-0.6924,-0.7461,-0.7663,-0.7816,-0.8084,-0.8171,-0.8236,-0.8236,-0.8247,-0.8258,-0.8258,-0.8107,-0.7777,-0.7515,-0.7291,-0.6706,-0.5755,-0.5681,-0.5298,-0.4603,-0.4469,-0.4474,-0.4474,-0.448,-0.4474,-1.4741,0.0,0.0,0.0,-1.2668,-1.2485,-1.1506,-1.1946,-1.287,-1.3481,-1.4255,-1.5158,-1.6353,-1.7725,-1.8974,0.0,-2.0601,-2.1673,-2.3335,-2.3715,-2.4204,-2.5104,-2.5368,-2.5527,-2.5587,-2.5931,-2.6151,-2.6316,-2.6334,-2.6064,-2.5569,-2.511,-2.4111,-2.2749,-2.1744,-2.0773,-1.996,-1.9401,-1.9172,-1.8942,-1.9113,-1.9063,-1.8959,-1.9429,-1.9971,-2.0483,-1.9659,-1.9198,-1.8973,-1.828,-1.7599,-1.7041,-1.7178,-1.7213,-1.7213,-1.7575,-1.7451,-1.7066,-1.6965,-1.6708,-1.6374,-1.6269,-1.6215,-1.6129,-1.6269,-1.6501,-1.6735,-1.7119,-1.6976,-1.6829,-1.7227,-1.6111,-1.4714,-1.4078,-1.2764,-1.1224,-0.9825,-0.8765,-0.7821,-0.7126,-0.6484,-0.6076,-0.6234,-0.6341,-0.6602,-0.7022,-0.7151,-0.7137,-0.7464,-0.7624,-0.7878,-0.7954,-0.7807,-0.7754,-0.7754,-0.7745,-0.7692,-0.7692,-0.7529,-0.7322,-0.719,-0.6468,-0.5855,-0.5495,-0.5109,-0.4727,-0.4482,-0.4518,-0.4537,-0.4537,-0.4572,-0.4589,-1.471,0.0,0.0,-1.3055,-1.2836,-1.2501,-1.2124,-1.2554,-1.3226,-1.4151,-1.4873,-1.5572,-1.6497,-1.7499,0.0,-1.8902,-1.9509,-2.0493,-2.2187,-2.2716,-2.3474,-2.4915,-2.5182,-2.5343,-2.5685,-2.6191,-2.6482,-2.6136,-2.6354,-2.5916,-2.4445,-2.4334,-2.3311,-2.1288,-2.0831,-2.027,-1.9372,-1.9372,-1.9399,-1.9362,-1.9523,-1.9548,-1.9442,-2.0196,-2.0748,-2.0967,-2.0262,-1.9722,-1.9308,-1.8553,-1.7929,-1.7368,-1.7428,-1.7426,-1.7403,-1.7387,-1.7253,-1.7188,-1.6864,-1.6486,-1.6266,-1.6385,-1.6219,-1.6232,-1.6284,-1.6506,-1.6593,-1.6882,-1.6603,-1.6329,-1.6818,-1.5138,-1.3311,-1.2797,-1.1209,-0.9551,-0.8044,-0.7643,-0.735,-0.6277,-0.6139,-0.6243,-0.6539,-0.6648,-0.6903,-0.7429,-0.7557,-0.7557,-0.7557,-0.783,-0.797,-0.7846,-0.7676,-0.7476,-0.7476,-0.7365,-0.7322,-0.7322,-0.7026,-0.681,-0.6677,-0.5789,-0.5301,-0.5218,-0.469,-0.445,-0.4507,-0.4551,-0.458,-0.46,-0.4643,-0.4665,0.0,0.0,-1.2484,-1.3412,-1.3281,-1.3028,-1.2925,-1.3195,-1.3362,-1.3383,-1.4718,-1.5849,-1.5956,-1.6909,-1.7752,-1.8366,-1.9161,-1.9909,-2.0544,-2.165,-2.2857,-2.4088,-2.3529,-2.3519,0.0,-2.5898,-2.6136,-2.4889,-2.5916,-2.5569,-2.3199,-2.3087,-2.2523,-2.1288,-2.004,-1.9488,-1.9372,-1.9372,-1.9376,-1.9285,-1.9826,-1.9985,-1.9755,-2.078,-2.0644,-1.9794,-2.0425,-1.9923,-1.8686,-1.8548,-1.8312,-1.7976,-1.7859,-1.7784,-1.7725,-1.7577,-1.7304,-1.688,-1.664,-1.6324,-1.6131,-1.6375,-1.6453,-1.6442,-1.6453,-1.6864,-1.7179,-1.6571,-1.6484,-1.6721,-1.6571,-1.4632,-1.2411,-1.1364,-0.9354,-0.7426,-0.6307,-0.5986,-0.6048,-0.6285,-0.6407,-0.653,-0.6775,-0.7143,-0.7424,-0.7536,-0.7926,-0.8046,-0.8046,-0.8149,-0.8098,-0.7714,-0.7719,-0.7591,-0.7203,-0.7207,-0.7212,-0.7212,-0.6662,-0.6189,-0.5792,-0.5272,-0.4803,-0.4398,-0.4452,-0.451,-0.457,-0.4572,-0.4602,-0.4662,-0.4662,-0.4665,0.0,0.0,-1.315,-1.3351,-1.3393,-1.3413,-1.3413,-1.3692,-1.3894,-1.4051,-1.431,-1.4662,-1.5281,-1.5567,-1.5959,-1.6967,-1.766,-1.8617,-2.0111,-2.0853,-2.1754,-2.3213,-2.3135,0.0,0.0,0.0,0.0,-2.3648,-2.3983,-2.3536,-2.1843,-2.1858,-2.1288,-2.004,-1.978,-1.9653,-1.9653,-2.004,-2.0281,-2.0252,-2.0668,-2.069,-2.0328,-2.0671,-2.0658,-2.0328,-2.0042,-1.9701,-1.9169,-1.8872,-1.8482,-1.8139,-1.8173,-1.8165,-1.8117,-1.7649,-1.7552,-1.7718,-1.6805,-1.6533,-1.656,-1.654,-1.6796,-1.6898,-1.6619,-1.6619,-1.656,-1.6053,-1.5594,-1.514,-1.4438,-1.2627,-1.0558,-0.9444,-0.7791,-0.6452,-0.6332,-0.6306,-0.6285,-0.6653,-0.6775,-0.6922,-0.7242,-0.75,-0.7661,-0.7901,-0.8049,-0.8176,-0.8176,-0.8209,-0.8108,-0.7724,-0.7532,-0.7317,-0.6927,-0.6587,-0.6357,-0.6357,-0.5723,-0.5205,-0.5072,-0.4717,-0.4493,-0.4398,-0.4417,-0.4455,-0.4512,-0.4512,-0.4564,-0.4665,-0.4371,-0.4433,-1.2173,-1.2888,-1.3474,-1.3644,-1.3768,-1.3872,-1.3872,-1.4096,-1.4249,-1.4509,-1.4201,-1.4129,-1.4746,-1.4401,-1.4413,-1.5579,-1.6215,-1.7251,-1.9062,-1.9814,-2.072,-2.2291,-2.2139,0.0,0.0,0.0,0.0,-2.2312,-2.2859,-2.2436,-2.0615,-2.0945,-2.0716,-1.9591,-1.9771,-1.9853,-2.0066,-2.0563,-2.0722,-2.0828,-2.0889,-2.0856,-2.0602,-2.0602,-2.0475,-2.0221,-1.9954,-1.9699,-1.9444,-1.9018,-1.8692,-1.853,-1.8404,-1.8432,-1.8396,-1.7887,-1.7899,-1.7982,-1.6931,-1.6954,-1.7184,-1.7154,-1.7245,-1.7268,-1.6986,-1.6686,-1.6188,-1.5929,-1.4896,-1.387,-1.3174,-1.1217,-0.9142,-0.8432,-0.6969,-0.6039,-0.628,-0.6403,-0.6526,-0.7021,-0.7084,-0.7281,-0.7728,-0.797,-0.8081,-0.8416,-0.8465,-0.8443,-0.8318,-0.821,-0.7972,-0.7717,-0.7384,-0.7026,-0.6766,-0.6152,-0.5912,-0.5912,-0.5242,-0.4839,-0.4839,-0.444,-0.4324,-0.4365,-0.4387,-0.4425,-0.4482,-0.4526,-0.4597,-0.4548,-0.4128,-0.4192,-1.2253,-1.3008,-1.3477,-1.4249,-1.4458,-1.4572,-1.4572,-1.4572,-1.4561,-1.453,-1.4299,-1.4212,0.0,0.0,-1.3266,-1.4412,-1.5196,-1.6074,-1.7279,-1.8401,-1.9752,0.0,0.0,0.0,0.0,0.0,0.0,-2.1161,0.0,-2.209,-1.9515,-2.05,-2.073,-1.9836,-1.9784,-2.008,-2.0725,-2.0671,-2.0842,-2.1109,-2.0729,-2.0602,-2.0488,-2.0475,-2.0221,-1.9571,-1.9954,-1.9699,-1.9072,-1.9072,-1.9072,-1.9048,-1.8807,-1.871,-1.8674,-1.8408,-1.8066,-1.7784,-1.715,-1.7352,-1.7843,-1.8089,-1.7758,-1.7449,-1.7684,-1.7067,-1.6199,-1.568,-1.4173,-1.2708,-1.2483,-1.0376,-0.8176,-0.8046,-0.6974,-0.6048,-0.6416,-0.6421,-0.6671,-0.7291,-0.7592,-0.7868,-0.8135,-0.8552,-0.878,-0.878,-0.8878,-0.8829,-0.8481,-0.827,-0.7942,-0.7536,-0.7263,-0.6857,-0.6594,-0.6049,-0.5912,-0.5778,-0.5108,-0.4842,-0.4845,-0.4445,-0.4316,-0.4322,-0.4379,-0.4436,-0.4493,-0.4608,-0.4402,-0.4164,-0.4066,-0.394,-1.2853,-1.3588,-1.4169,-1.4635,-1.4813,-1.4938,-1.4938,-1.5173,-1.5151,-1.4403,-1.4276,-1.4117,0.0,0.0,0.0,-1.518,-1.5704,0.0,-1.7944,-1.8648,0.0,0.0,0.0,-2.0268,-2.0577,-2.055,0.0,0.0,-2.0579,-2.0455,-1.9693,-1.9932,-2.0034,-1.9797,-2.0213,-2.0497,-2.0684,-2.0855,-2.0777,-2.0335,-2.0475,-2.0221,-1.9456,-1.9711,-1.9584,-1.92,-1.9328,-1.92,-1.9072,-1.9072,-1.9072,-1.9072,-1.9,-1.8976,-1.8939,-1.8423,-1.8447,-1.8704,-1.8054,-1.8007,-1.8078,-1.7897,-1.8011,-1.8203,-1.72,-1.6822,-1.615,-1.4075,-1.3233,-1.233,-0.9962,-0.8787,-0.8028,-0.6818,-0.6531,-0.6536,-0.6859,-0.7316,-0.7632,-0.8023,-0.8338,-0.8499,-0.8633,-0.8785,-0.8905,-0.8905,-0.8932,-0.8751,-0.8298,-0.8512,-0.8412,-0.7781,-0.7636,-0.7229,-0.6685,-0.5949,-0.5379,-0.5108,-0.4708,-0.4462,-0.451,-0.4376,-0.4417,-0.4504,-0.4521,-0.4559,-0.4619,-0.4356,-0.4128,-0.4219,-0.3629,-0.2765,-1.3454,-1.4218,-1.4686,-1.4907,-1.514,-1.5161,-1.4856,-1.4897,-1.4707,-1.379,-1.3605,0.0,0.0,0.0,0.0,0.0,0.0,0.0,-1.8084,-1.8866,-1.9548,0.0,-2.0428,0.0,-2.0601,-2.0762,-2.0802,0.0,-2.0347,-2.0187,-2.005,-2.0115,-2.0233,-2.0142,-2.0684,-2.0931,-2.0869,-2.1029,-2.0856,-2.0348,-2.0348,-1.9966,-1.9328,-1.9328,-1.9328,-1.9072,0.0,-1.9072,-1.9072,-1.9072,-1.9072,-1.9072,-1.9072,-1.9072,-1.906,-1.8776,-1.8812,-1.9048,-1.8776,-1.859,-1.859,-1.8348,-1.8139,-1.792,-1.7289,-1.6139,-1.4699,-1.3436,-1.2017,-1.0404,-0.8759,-0.7827,-0.7188,-0.6502,-0.6493,-0.676,-0.7321,-0.7677,-0.8065,-0.8488,-0.8758,-0.8883,-0.8986,-0.9063,-0.9106,-0.9106,-0.9106,-0.8922,-0.8387,-0.8248,-0.809,-0.7612,-0.7057,-0.6643,-0.6229,-0.5639,-0.5068,-0.4928,-0.4521,-0.4412,-0.4471,-0.4474,-0.4531,-0.4651,-0.4533,-0.4427,-0.4484,-0.408,-0.3814,-0.3692,-0.2474,-0.1562,-1.4228,-1.4866,-1.5226,-1.5182,-1.5353,-1.5301,-1.4361,-1.4203,-1.3873,-1.2781,0.0,-1.257,-1.2565,0.0,-1.3097,-1.4227,0.0,-1.6299,-1.7837,-1.8891,-1.9843,-2.0425,-2.0708,-2.0828,-2.1082,-2.1109,-2.1109,-2.1109,-2.0869,-2.0617,-2.0424,-2.0629,-2.0791,-2.0795,-2.1107,-2.1146,-2.1109,-2.1109,-2.0856,-2.0475,-2.0234,-1.9839,-1.9456,-1.92,-1.9072,-1.9072,0.0,0.0,-1.9072,-1.9072,-1.9072,-1.9072,-1.9072,-1.9072,-1.9072,-1.9072,-1.9072,-1.9072,-1.9072,-1.9072,-1.9072,-1.9072,-1.8256,-1.7289,-1.7185,-1.5248,-1.3054,-1.2925,-1.0739,-0.841,-0.8117,-0.7149,-0.6327,-0.6717,-0.6846,-0.6983,-0.7647,-0.7888,-0.82,-0.8793,-0.8997,-0.9063,-0.9269,-0.9302,-0.9302,-0.9302,-0.9302,-0.912,-0.8591,-0.7931,-0.7314,-0.7301,-0.6321,-0.5621,-0.5621,-0.52,-0.5057,-0.4917,-0.4642,-0.4534,-0.4594,-0.4605,-0.4668,-0.4788,-0.4394,-0.4144,-0.4195,-0.3965,-0.3503,-0.3147,-0.143,-0.0634,-1.4622,-1.4972,-1.5182,-1.5461,-1.5601,-1.5301,-1.4361,-1.4203,0.0,0.0,0.0,-1.2045,-1.1628,-1.2188,0.0,-1.4102,0.0,0.0,0.0,0.0,-1.8947,0.0,0.0,0.0,0.0,0.0,0.0,0.0,0.0,0.0,-2.0658,-2.0931,-2.1163,-2.1493,-2.147,-2.1437,-2.1109,-2.0856,-2.0348,-1.9711,-1.9711,-1.9328,-1.8828,-1.8944,-1.9072,-1.9072,0.0,0.0,-1.9072,-1.9072,-1.9072,-1.9072,-1.9072,-1.9072,-1.9072,-1.9072,-1.8956,-1.8699,-1.8944,-1.8956,-1.8699,-1.8699,-1.8128,-1.7185,-1.5426,-1.4207,-1.2797,-1.0078,-0.8984,-0.8233,-0.6886,-0.6636,-0.6823,-0.6823,-0.7341,-0.7777,-0.8097,-0.8576,-0.8916,-0.9209,-0.9242,-0.9258,-0.9296,-0.9302,-0.9302,-0.9302,-0.9302,-0.9008,-0.8261,-0.8098,-0.7768,-0.7402,-0.6689,-0.598,-0.5696,-0.527,-0.4985,-0.4701,-0.4605,-0.466,-0.4722,-0.4473,-0.4399,-0.451,-0.4093,-0.3823,-0.4031,-0.3561,-0.3224,-0.3186,-0.1436,-0.0159,-1.4767,-1.5205,-1.5654,-1.5774,-1.5881,-1.5536,-1.3999,0.0,0.0,0.0,0.0,-1.1326,-1.1442,0.0,0.0,0.0,0.0,0.0,0.0,0.0,0.0,0.0,0.0,0.0,0.0,0.0,0.0,0.0,0.0,0.0,-2.0929,-2.1189,-2.1532,-2.1833,-2.174,-2.1403,-2.1109,-2.0729,-2.0348,-1.9839,-1.9711,-1.9328,-1.8828,-1.9072,-1.9072,-1.9072,-1.9072,0.0,-1.9072,-1.9072,-1.9072,-1.9072,-1.9072,-1.9072,-1.9072,-1.9072,-1.8944,-1.8828,-1.9072,-1.8688,-1.8302,-1.8302,-1.7825,-1.685,-1.4725,-1.3126,-1.1497,-0.9139,-0.8,-0.736,-0.6736,-0.6749,-0.7053,-0.745,-0.802,-0.8397,-0.8628,-0.8911,-0.9166,-0.928,-0.9302,-0.9302,-0.9302,-0.9302,-0.9302,-0.9302,-0.892,-0.8644,-0.8145,-0.7504,-0.6945,-0.6712,-0.5977,-0.5411,-0.5299,-0.5011,-0.4864,-0.4714,-0.4741,-0.4651,-0.4586,-0.4463,-0.4227,-0.4197,-0.3734,-0.3602,-0.3643,-0.3145,-0.2624,-0.1935,-0.0322,0.0798,-1.4778,-1.5408,-1.5903,-1.6,-1.6129,-1.5675,-1.348,-1.2832,0.0,0.0,-1.0275,-1.0692,-1.137,0.0,-1.2835,0.0,0.0,0.0,0.0,0.0,0.0,0.0,0.0,0.0,0.0,0.0,0.0,0.0,0.0,0.0,-2.1325,-2.1543,-2.1815,-2.2114,-2.1867,-2.1563,-2.133,-2.0821,-2.0412,-2.0234,-1.9711,-1.9328,-1.9072,-1.9072,-1.9072,-1.9072,-1.92,0.0,0.0,-1.9328,-1.9328,-1.92,-1.92,-1.92,-1.9072,-1.9072,-1.9072,-1.8944,-1.9072,-1.8559,-1.7776,-1.7507,-1.6861,-1.5954,-1.3979,-1.1871,-0.9896,-0.8573,-0.7383,-0.6719,-0.6987,-0.7121,-0.7393,-0.8086,-0.8585,-0.8867,-0.9084,-0.9155,-0.9198,-0.9285,-0.9302,-0.9302,-0.9302,-0.9302,-0.9313,-0.9195,-0.869,-0.8131,-0.7778,-0.6723,-0.5886,-0.5693,-0.508,-0.4793,-0.4842,-0.4858,-0.4867,-0.4867,-0.4877,-0.4778,-0.4409,-0.4268,-0.4174,-0.3805,-0.3317,-0.3169,-0.3199,-0.3029,-0.2161,-0.065,0.0488,0.1445,-1.481,-1.5418,-1.5741,-1.6172,-1.6129,-1.5429,-1.336,0.0,0.0,-1.0258,-0.9917,-1.0233,-1.1064,-1.1546,-1.198,0.0,-1.3403,-1.4161,0.0,0.0,0.0,0.0,0.0,0.0,0.0,0.0,0.0,0.0,0.0,0.0,0.0,-2.1884,-2.2044,-2.2325,-2.2338,-2.2203,-2.2025,-2.0993,-2.0477,-2.0475,-1.9584,-1.9072,-1.9072,-1.9072,-1.9072,-1.9072,0.0,0.0,0.0,-1.9851,-1.9839,-1.9571,-1.9571,-1.9328,-1.9072,-1.9072,-1.8956,-1.8699,-1.8944,-1.8431,-1.7271,-1.5674,-1.4633,-1.3849,-1.2397,-1.0419,-0.844,-0.7116,-0.6853,-0.6987,-0.6982,-0.7522,-0.8081,-0.8595,-0.8845,-0.897,-0.9106,-0.9215,-0.9291,-0.9302,-0.9302,-0.9302,-0.9302,-0.9302,-0.9195,-0.9013,-0.8445,-0.7887,-0.6919,-0.6344,-0.5774,-0.5069,-0.4869,-0.4839,-0.4845,-0.4897,-0.4929,-0.4929,-0.4976,-0.4878,-0.4467,-0.4031,-0.3754,-0.3309,-0.3009,-0.269,-0.2692,-0.3197,-0.2495,-0.065,-0.0163,0.0642,-1.4468,-1.5095,-1.544,-1.5623,-1.5269,-1.4547,-1.2925,0.0,-1.1172,-1.0253,-0.999,-1.0172,-1.1178,-1.1453,-1.1804,-1.2516,-1.2921,-1.3661,-1.5035,0.0,0.0,0.0,0.0,0.0,0.0,0.0,0.0,0.0,0.0,0.0,0.0,-2.1991,-2.2124,-2.2405,-2.2015,-2.1684,-2.1686,-2.0459,-1.9931,-2.0232,-1.9414,-1.9072,-1.9072,-1.9072,-1.92,-1.9456,0.0,0.0,0.0,-1.9979,-1.9979,-1.9839,-1.9711,-1.9571,-1.9328,-1.92,-1.9072,-1.8828,-1.8559,-1.7378,-1.5814,-1.4633,-1.266,-1.0551,-1.0028,-0.9232,-0.8312,-0.6853,-0.6719,-0.6987,-0.7254,-0.7973,-0.8595,-0.8851,-0.8976,-0.9095,-0.9209,-0.9269,-0.9302,-0.9302,-0.9157,-0.9018,-0.9302,-0.8925,-0.8695,-0.8445,-0.7809,-0.6974,-0.6355,-0.5673,-0.5254,-0.4937,-0.4916,-0.4913,-0.4948,-0.4973,-0.4986,-0.4986,-0.4729,-0.4469,-0.4037,-0.3758,-0.3306,-0.3009,-0.2853,-0.2861,-0.3197,-0.2339,-0.1155,-0.0,0.0645,0.1754,-1.3879,-1.4617,-1.5171,-1.5322,-1.4664,-1.3856,0.0,0.0,-1.0539,-1.02,-1.0035,-1.0198,-1.1218,-1.1479,-1.1673,-1.2119,-1.2564,-1.3237,-1.4482,-1.5245,0.0,0.0,0.0,0.0,0.0,0.0,0.0,0.0,0.0,0.0,0.0,-2.1991,-2.2164,-2.2539,-2.1875,-2.1475,-2.1713,-2.0327,-1.9927,-2.0248,-1.9585,-1.9322,-1.9322,-1.9237,-1.9456,-1.9711,0.0,0.0,0.0,-2.0361,-2.0234,-2.0106,-1.9839,-1.9584,-1.9456,-1.8944,-1.8816,-1.8559,-1.7507,-1.5934,-1.4362,-1.3054,-1.0816,-0.8573,-0.8179,-0.8179,-0.7912,-0.6987,-0.6987,-0.7388,-0.7789,-0.8277,-0.8802,-0.8921,-0.9046,-0.9166,-0.928,-0.9302,-0.9302,-0.9302,-0.9018,-0.9018,-0.9302,-0.8669,-0.8164,-0.8044,-0.7141,-0.6305,-0.5972,-0.5435,-0.5006,-0.4965,-0.4962,-0.4978,-0.5016,-0.5022,-0.5022,-0.5022,-0.4604,-0.4179,-0.3903,-0.3455,-0.3161,-0.2691,-0.2861,-0.2856,-0.2679,-0.166,-0.0328,0.113,0.1443,0.2222,-1.3101,-1.4243,-1.4999,-1.5472,-1.4767,-1.3614,0.0,0.0,-1.0309,-0.9967,-0.9927,-1.0143,-1.0968,-1.1347,-1.1624,-1.1878,-1.2155,-1.2784,-1.4235,-1.4871,0.0,0.0,0.0,0.0,0.0,0.0,0.0,0.0,0.0,0.0,0.0,-2.1991,-2.2258,-2.2846,-2.2173,-2.203,-2.2418,-2.0934,-2.0539,-2.092,-1.9985,-1.9732,-1.9993,-1.9708,-1.9839,0.0,0.0,0.0,0.0,-2.0982,-2.0729,-2.0106,-2.0106,-1.9724,-1.9072,-1.8291,-1.8033,-1.7776,-1.5674,-1.4502,-1.3316,-1.0538,-0.9226,-0.844,-0.7383,-0.6987,-0.6987,-0.6982,-0.7522,-0.8189,-0.8456,-0.8677,-0.8802,-0.8921,-0.9046,-0.9166,-0.928,-0.9302,-0.9302,-0.9302,-0.9302,-0.9302,-0.9302,-0.8669,-0.8039,-0.7845,-0.6873,-0.6032,-0.5796,-0.5335,-0.5022,-0.5019,-0.5019,-0.5019,-0.5022,-0.5022,-0.5022,-0.5022,-0.4604,-0.4179,-0.3903,-0.3455,-0.3161,-0.2691,-0.3197,-0.251,-0.0827,-0.1652,-0.049,0.2396,0.1597,0.1746,-1.1816,-1.2283,-1.2589,-1.2736,-1.2011,-1.1192,-1.083,-1.0198,-0.9655,-0.9829,-1.0143,-1.0443,-1.1031,-1.119,-1.1548,-1.2476,-1.2616,-1.3016,0.0,0.0,0.0,0.0,0.0,0.0,0.0,0.0,0.0,0.0,0.0,0.0,0.0,0.0,-2.1991,-2.216,-2.1496,-2.1032,-2.0808,-1.9941,-1.9687,-2.0146,-1.9964,-1.9875,-2.0005,-1.9977,0.0,0.0,0.0,0.0,0.0,-2.0729,-2.0488,-2.0106,-1.9839,-1.9584,-1.9328,-1.8419,-1.8033,-1.7647,-1.5024,-1.3316,-1.2003,-0.9624,-0.8174,-0.7116,-0.6982,-0.6982,-0.7121,-0.7655,-0.7922,-0.8189,-0.8456,-0.8742,-0.8905,-0.8943,-0.9106,-0.9258,-0.9296,-0.9302,-0.9302,-0.9302,-0.8874,-0.844,-0.8435,-0.7699,-0.6923,-0.6653,-0.6159,-0.5624,-0.5332,-0.5022,-0.5022,-0.5022,-0.5022,-0.5022,-0.5022,-0.5022,-0.4881,-0.4606,-0.4498,-0.4225,-0.3455,-0.3658,-0.3519,-0.3197,-0.3533,-0.3178,-0.1652,-0.0819,0.0968,0.3315,0.3501,0.3507,-1.0757,-1.1121,-1.1405,-1.1405,-1.073,-1.0154,-1.0322,-0.9807,-0.9473,-0.9992,-1.0293,-1.0594,-1.1031,-1.1202,-1.1637,-1.27,-1.2948,-1.3382,0.0,0.0,0.0,0.0,0.0,0.0,0.0,0.0,0.0,0.0,0.0,0.0,0.0,0.0,-2.1641,-2.1761,-2.109,-2.0671,-2.0262,-1.9912,-1.9831,-2.0016,-2.0269,-2.0485,-2.0273,-2.0257,0.0,0.0,0.0,0.0,0.0,-2.0488,-2.0234,-1.9839,-1.9456,-1.9188,-1.8804,-1.7109,-1.6462,-1.5934,-1.2923,-1.1212,-1.0287,-0.844,-0.725,-0.6719,-0.7121,-0.7254,-0.7522,-0.8189,-0.8323,-0.8333,-0.8644,-0.8665,-0.8826,-0.8868,-0.9024,-0.9157,-0.9302,-0.9157,-0.9018,-0.9018,-0.8469,-0.7915,-0.7911,-0.7033,-0.6394,-0.6094,-0.5733,-0.5335,-0.5022,-0.5022,-0.5022,-0.5022,-0.5022,-0.5022,-0.5022,-0.5022,-0.4889,-0.4631,-0.4521,-0.4248,-0.3803,-0.3846,-0.3868,-0.3701,-0.3363,-0.2501,-0.1149,0.0807,0.2711,0.4268,0.4298,0.4323,0.0,-1.0707,-1.1172,-1.1263,-1.0619,-1.0168,-1.0585,-1.0005,0.0,-1.0368,-1.0594,-1.0743,-1.1105,-1.1411,-1.1924,-1.2897,-1.3253,0.0,0.0,0.0,0.0,0.0,0.0,0.0,0.0,0.0,0.0,0.0,0.0,0.0,0.0,0.0,-2.1192,-2.1592,-2.1229,-2.0816,-2.0521,-2.0756,-2.0756,-2.0521,-2.1102,-2.1233,-2.0946,-2.0679,0.0,0.0,0.0,0.0,0.0,-2.0234,-1.9839,-1.9444,-1.8676,-1.8162,-1.7378,-1.4633,-1.3587,-1.3193,-0.9763,-0.8573,-0.8307,-0.6987,-0.6719,-0.7121,-0.7393,-0.7794,-0.8189,-0.8456,-0.859,-0.8617,-0.8736,-0.8586,-0.8568,-0.8965,-0.8939,-0.8874,-0.9157,-0.8874,-0.8729,-0.8729,-0.8089,-0.7712,-0.7564,-0.6815,-0.6005,-0.6005,-0.5447,-0.5022,-0.5022,-0.5022,-0.5022,-0.5022,-0.5022,-0.5022,-0.5022,-0.5022,-0.5049,-0.5115,-0.4685,-0.4576,-0.4633,-0.418,-0.4036,-0.3868,-0.2349,-0.0995,0.0649,0.2698,0.4264,0.5112,0.4319,0.4509,-1.0889,0.0,-0.9378,-0.9707,-0.9675,-0.9554,0.0,-1.0188,-1.0293,-1.0443,-1.1117,-1.1713,-1.1787,-1.2457,-1.3286,-1.4229,0.0,0.0,0.0,0.0,0.0,0.0,0.0,0.0,0.0,0.0,0.0,0.0,0.0,0.0,0.0,0.0,-2.1531,-2.1181,-2.145,-2.1136,-2.0359,-2.0705,-2.0982,-2.121,-2.1795,-2.1923,-2.1641,-2.1356,0.0,0.0,0.0,0.0,-1.9839,-1.9711,-1.92,-1.8291,-1.6969,-1.6183,-1.5414,-1.3054,-1.2134,-1.1871,-0.9498,-0.8573,-0.8307,-0.6987,-0.6853,-0.7393,-0.7526,-0.7794,-0.8189,-0.8456,-0.859,-0.8617,-0.8736,-0.8724,-0.8842,-0.9106,-0.8939,-0.8729,-0.8874,-0.8584,-0.8295,-0.8295,-0.765,-0.7125,-0.6825,-0.6215,-0.5547,-0.5243,-0.5139,-0.5022,-0.5022,-0.5022,-0.5022,-0.5022,-0.5022,-0.5022,-0.5022,-0.5022,-0.4907,-0.4688,-0.4869,-0.4757,-0.4184,-0.4703,-0.4204,-0.252,0.0165,0.1633,0.211,0.3174,0.4264,0.5274,0.5,0.5541,-1.1787,-1.087,-0.997,-1.0207,-1.0357,-1.0507,-1.087,-1.1168,-1.1403,-1.1552,-1.2009,-1.2345,-1.2179,-1.2503,0.0,0.0,-1.4629,0.0,0.0,0.0,0.0,0.0,0.0,0.0,0.0,0.0,0.0,0.0,0.0,0.0,0.0,0.0,-2.1433,-2.1689,-2.1558,-2.1202,-2.0466,-2.1313,-2.1618,-2.1352,-2.2237,-2.2293,-2.161,-2.1327,0.0,0.0,0.0,0.0,-1.9571,-1.9456,-1.8407,-1.698,-1.5923,-1.4614,-1.3177,-1.108,-1.0293,-1.0022,-0.8312,-0.7779,-0.7779,-0.6987,-0.7121,-0.7526,-0.766,-0.7927,-0.8189,-0.8456,-0.859,-0.8628,-0.8807,-0.8767,-0.8718,-0.9171,-0.8832,-0.844,-0.8729,-0.8295,-0.7874,-0.7628,-0.7125,-0.6451,-0.6036,-0.5676,-0.5128,-0.4976,-0.5,-0.5022,-0.5022,-0.5022,-0.5022,-0.5022,-0.5022,-0.5022,-0.5022,-0.5022,-0.4913,-0.4869,-0.5039,-0.5092,-0.4705,-0.4372,-0.2858,0.0168,0.1643,0.3093,0.4093,0.4321,0.5109,0.6165,0.6044,0.643,-1.2746,-1.2337,-1.1815,-1.1564,-1.1675,-1.1896,-1.2278,-1.2425,-1.2498,-1.282,-1.3008,-1.2973,-1.254,-1.2622,0.0,0.0,0.0,0.0,0.0,0.0,0.0,0.0,0.0,0.0,0.0,0.0,0.0,0.0,0.0,0.0,0.0,0.0,0.0,-2.2276,-2.175,-2.132,-2.1024,-2.2138,-2.2287,-2.1638,-2.2721,-2.2589,-2.1467,-2.1053,0.0,0.0,0.0,0.0,-1.9316,-1.8932,-1.7496,-1.5394,-1.4754,-1.3185,-1.1087,-0.9105,-0.8446,-0.8179,-0.6987,-0.6719,-0.6982,-0.6982,-0.7254,-0.766,-0.8061,-0.8189,-0.8189,-0.8456,-0.859,-0.8644,-0.8889,-0.8676,-0.8594,-0.9104,-0.8584,-0.815,-0.844,-0.8015,-0.7323,-0.7109,-0.6462,-0.5787,-0.5538,-0.5292,-0.5022,-0.5022,-0.5014,-0.5011,-0.5019,-0.5014,-0.5011,-0.5019,-0.5022,-0.5022,-0.5022,-0.5022,-0.4913,-0.4869,-0.5039,-0.5092,-0.5043,-0.302,-0.0503,0.2688,0.2958,0.4082,0.5949,0.5665,0.5991,0.7271,0.6945,0.715,-1.3637,-1.3895,-1.3777,-1.2518,-1.2191,-1.2278,-1.2732,-1.282,-1.282,-1.2893,-1.3548,-1.3737,-1.2795,-1.4194,-1.5332,0.0,0.0,0.0,0.0,0.0,0.0,0.0,0.0,0.0,0.0,0.0,0.0,0.0,0.0,0.0,0.0,0.0,0.0,-2.1995,-2.2078,-2.2347,-2.2496,-2.2384,-2.2682,-2.3091,-2.3041,-2.2589,-2.2039,-2.1496,-2.0809,0.0,0.0,-1.8676,-1.7765,-1.7765,-1.6193,-1.3578,-1.2529,-1.1087,-0.9377,-0.8056,-0.7522,-0.7116,-0.6719,-0.6719,-0.6982,-0.6982,-0.7522,-0.8056,-0.8056,-0.8323,-0.859,-0.859,-0.859,-0.8644,-0.8889,-0.8815,-0.8874,-0.8817,-0.844,-0.8005,-0.7856,-0.7194,-0.6662,-0.6674,-0.605,-0.5535,-0.5547,-0.5292,-0.5022,-0.5022,-0.4981,-0.4967,-0.5014,-0.4978,-0.4967,-0.5016,-0.5022,-0.5022,-0.5022,-0.5022,-0.4436,-0.308,-0.4388,-0.4598,-0.3191,-0.0,0.1997,0.2688,0.4767,0.5881,0.5949,0.6194,0.6686,0.7271,0.6945,0.715,-1.3928,-1.4216,-1.4414,-1.3961,-1.3814,-1.3913,-1.4414,-1.4375,-1.4295,-1.4406,-1.4817,-1.4678,-1.336,0.0,-1.5768,-1.6441,0.0,0.0,0.0,0.0,0.0,0.0,0.0,0.0,0.0,0.0,0.0,0.0,0.0,0.0,0.0,0.0,0.0,0.0,-2.2198,-2.2558,-2.3154,-2.2856,-2.2856,-2.3154,-2.3298,-2.2797,-2.2111,-2.1534,-2.0564,-1.9267,0.0,-1.7759,-1.6602,-1.6196,-1.4594,-1.2397,-1.1476,-0.9902,-0.8189,-0.7522,-0.7121,-0.6987,-0.6585,-0.6857,-0.7254,-0.7254,-0.7789,-0.8323,-0.8323,-0.8499,-0.8687,-0.8687,-0.8687,-0.8725,-0.8628,-0.8718,-0.8666,-0.8688,-0.8295,-0.7856,-0.7566,-0.7056,-0.6392,-0.5989,-0.5632,-0.5394,-0.5243,-0.5111,-0.4965,-0.4932,-0.4905,-0.4907,-0.4967,-0.4924,-0.4921,-0.5011,-0.4995,-0.4986,-0.5019,-0.5022,-0.4277,-0.2594,-0.2464,-0.1662,0.0168,0.1839,0.3343,0.487,0.5955,0.6762,0.7168,0.7248,0.7416,0.7667,0.7504,0.769,-1.4057,-1.4286,-1.4622,-1.5106,-1.5075,-1.5166,-1.5716,-1.5596,-1.5444,-1.5951,-1.6049,-1.5679,-1.4237,-1.4674,0.0,0.0,0.0,0.0,0.0,0.0,0.0,0.0,0.0,0.0,0.0,0.0,0.0,0.0,0.0,0.0,0.0,0.0,0.0,0.0,-2.2259,-2.2558,-2.3302,-2.3154,-2.3005,-2.3005,-2.3235,-2.2797,-2.1438,-2.0889,-1.9835,-1.8171,-1.7453,-1.6561,-1.524,-1.4554,-1.3054,-1.1087,-1.069,-0.9377,-0.766,-0.7254,-0.7121,-0.7121,-0.6719,-0.6991,-0.7526,-0.766,-0.8056,-0.8595,-0.8622,-0.8698,-0.8774,-0.8807,-0.8834,-0.874,-0.8552,-0.8494,-0.8444,-0.8559,-0.8,-0.7421,-0.7421,-0.6763,-0.6103,-0.5412,-0.5325,-0.5219,-0.4916,-0.4916,-0.4899,-0.4853,-0.4834,-0.4848,-0.4907,-0.4861,-0.4869,-0.4989,-0.4951,-0.4778,-0.4507,-0.3751,-0.2688,-0.1453,-0.0166,0.1176,0.2688,0.3353,0.4523,0.6717,0.6981,0.7478,0.806,0.8322,0.8327,0.806,0.806,0.806,-1.4129,-1.4495,-1.4935,-1.5162,-1.4954,-1.4844,-1.5647,-1.5391,-1.5273,-1.655,-1.691,-1.6616,0.0,-1.5521,0.0,0.0,0.0,0.0,0.0,0.0,0.0,0.0,0.0,0.0,0.0,0.0,0.0,0.0,0.0,0.0,0.0,0.0,0.0,0.0,0.0,-2.2558,-2.2856,-2.3154,-2.329,-2.329,-2.3129,-2.1957,-1.9994,-1.9261,-1.8033,-1.6481,-1.6057,-1.4796,-1.3169,-1.3294,-1.1769,-0.9377,-0.9643,-0.925,-0.8456,-0.7789,-0.7526,-0.7393,-0.7121,-0.7254,-0.7526,-0.7927,-0.8323,-0.8606,-0.872,-0.8764,-0.8796,-0.8905,-0.9019,-0.897,-0.8545,-0.855,-0.8444,-0.8271,-0.757,-0.699,-0.699,-0.6176,-0.5345,-0.5351,-0.5109,-0.4853,-0.4853,-0.4853,-0.485,-0.4848,-0.4798,-0.4785,-0.4845,-0.4798,-0.4809,-0.4929,-0.4888,-0.4245,-0.273,0.0155,0.2048,0.2234,0.2474,0.252,0.2688,0.4992,0.6487,0.6717,0.8305,0.8801,0.806,0.8892,0.8896,0.806,0.806,0.806,-1.4274,-1.4724,-1.5274,-1.5517,-1.5485,-1.5589,-1.6317,-1.6535,-1.7042,-1.8414,-1.8604,0.0,0.0,0.0,0.0,0.0,0.0,0.0,0.0,0.0,0.0,0.0,0.0,0.0,0.0,0.0,0.0,0.0,0.0,0.0,0.0,0.0,0.0,0.0,0.0,-2.2558,-2.2856,-2.3005,-2.3154,-2.3438,-2.2362,-2.1137,-1.9599,-1.8338,-1.6875,-1.5176,-1.4337,-1.3062,-1.1754,-1.0692,-0.9918,-0.9232,-0.9018,-0.8767,-0.8288,-0.7952,-0.7927,-0.7789,-0.7254,-0.7388,-0.7937,-0.7868,-0.8293,-0.8725,-0.8845,-0.8938,-0.9008,-0.8765,-0.8723,-0.8791,-0.8576,-0.8232,-0.8033,-0.7865,-0.7031,-0.6338,-0.6338,-0.5769,-0.5209,-0.5101,-0.4828,-0.4834,-0.4796,-0.479,-0.4777,-0.4739,-0.4714,-0.4722,-0.4782,-0.4736,-0.4744,-0.4867,-0.3946,-0.3177,-0.2571,0.0618,0.2512,0.2523,0.3591,0.4341,0.4372,0.536,0.6363,0.7558,0.7865,0.8365,0.8901,0.8905,0.8738,0.806,0.806,0.806,-1.3912,-1.4332,-1.4803,-1.5113,-1.5571,-1.6127,-1.7021,-1.7156,-1.7659,-1.9472,-2.0358,-2.0633,-1.9895,0.0,0.0,0.0,0.0,0.0,0.0,0.0,0.0,0.0,0.0,0.0,0.0,0.0,0.0,0.0,0.0,0.0,0.0,0.0,0.0,0.0,0.0,0.0,-2.2707,-2.2856,-2.2657,-2.2411,-2.1102,-2.0083,-1.9033,-1.7315,-1.5346,-1.3444,-1.2647,-1.1545,-1.0253,-0.9148,-0.8799,-0.8812,-0.8558,-0.8428,-0.8224,-0.7907,-0.7868,-0.7843,-0.7337,-0.7486,-0.8038,-0.7976,-0.828,-0.8713,-0.8692,-0.8781,-0.8713,-0.8459,-0.838,-0.842,-0.8346,-0.8,-0.765,-0.7579,-0.6743,-0.591,-0.5934,-0.5477,-0.5031,-0.4779,-0.4788,-0.4774,-0.4733,-0.4728,-0.4711,-0.467,-0.4665,-0.4679,-0.4722,-0.4248,-0.3813,-0.3283,-0.195,-0.105,-0.1046,0.1528,0.3106,0.3118,0.4502,0.5273,0.5352,0.5688,0.6366,0.7558,0.7729,0.8232,0.9068,0.8738,0.8571,0.806,0.806,0.806,-1.2938,-1.3177,-1.3493,-1.3762,-1.4937,-1.6333,-1.7397,-1.6806,-1.6817,-1.9194,-2.1831,-2.2991,-2.1012,0.0,0.0,0.0,0.0,0.0,0.0,0.0,0.0,0.0,0.0,0.0,0.0,0.0,0.0,0.0,0.0,0.0,0.0,0.0,0.0,0.0,0.0,0.0,-2.2259,-2.2707,-2.1965,-2.0206,-1.923,-1.8529,-1.7925,-1.5822,-1.3465,-1.1012,-1.1154,-1.0132,-0.854,-0.9004,-0.8702,-0.7826,-0.8133,-0.8229,-0.8108,-0.7521,-0.7493,-0.7693,-0.7386,-0.7557,-0.7836,-0.8258,-0.8403,-0.8418,-0.8525,-0.8277,-0.8017,-0.8121,-0.815,-0.815,-0.815,-0.786,-0.7566,-0.7566,-0.6551,-0.5849,-0.5924,-0.5293,-0.4665,-0.4665,-0.4665,-0.4665,-0.4665,-0.4665,-0.4665,-0.4665,-0.4665,-0.4665,-0.4665,-0.3205,-0.1746,-0.0146,0.1325,0.2215,0.2331,0.3878,0.472,0.4314,0.4729,0.5166,0.5289,0.6117,0.6646,0.6717,0.8056,0.8562,0.806,0.8571,0.8571,0.806,0.806,0.806,-1.3985,-1.4626,0.0,-1.5082,0.0,0.0,0.0,-1.8646,-2.0515,0.0,-2.3315,-2.2999,-2.1191,0.0,0.0,0.0,0.0,0.0,0.0,0.0,0.0,0.0,0.0,0.0,0.0,0.0,0.0,0.0,0.0,0.0,0.0,0.0,0.0,0.0,0.0,0.0,-2.2259,-2.146,-2.0877,-2.0649,-1.7739,-1.6122,-1.5668,-1.4186,-1.2359,-1.0593,-1.0084,-0.9215,-0.8227,-0.8096,-0.7681,-0.7321,-0.772,-0.7836,-0.7617,-0.7711,-0.7673,-0.7793,-0.7409,-0.7701,-0.8129,-0.7785,-0.8091,-0.8389,-0.8212,-0.8102,-0.7968,-0.7851,-0.7711,-0.7697,-0.763,-0.728,-0.6771,-0.6421,-0.572,-0.5028,-0.4749,-0.4706,-0.4676,-0.4719,-0.4695,-0.4665,-0.4665,-0.4665,-0.4665,-0.4665,-0.4665,-0.4226,-0.3203,-0.1601,-0.0437,-0.0,0.1315,0.2339,0.233,0.358,0.4396,0.4261,0.4517,0.4626,0.4735,0.5392,0.6076,0.7139,0.7139,0.7671,0.8571,0.8399,0.8232,0.806,0.806,0.806,-1.3698,-1.4295,0.0,-1.5541,-1.6493,-1.7498,-1.8546,0.0,0.0,0.0,0.0,0.0,0.0,0.0,0.0,0.0,0.0,0.0,0.0,0.0,0.0,0.0,0.0,0.0,0.0,0.0,0.0,0.0,0.0,0.0,0.0,0.0,0.0,0.0,0.0,0.0,-2.1186,-1.9889,-1.8833,-1.8435,-1.643,-1.4839,-1.3762,-1.2647,-1.1319,-1.0023,-0.8868,-0.8121,-0.7791,-0.7451,-0.7195,-0.6974,-0.754,-0.7517,-0.7425,-0.7402,-0.7508,-0.7622,-0.7239,-0.7681,-0.8257,-0.775,-0.7912,-0.8351,-0.8131,-0.786,-0.757,-0.7421,-0.7421,-0.7408,-0.7212,-0.6724,-0.6216,-0.5991,-0.5446,-0.4903,-0.4456,-0.4559,-0.4676,-0.4711,-0.4543,-0.4517,-0.4665,-0.4519,-0.4517,-0.4665,-0.4226,-0.2912,-0.0728,0.0291,0.1164,0.1746,0.2766,0.3203,0.3057,0.3729,0.4086,0.3786,0.4183,0.4426,0.4488,0.5153,0.5845,0.6731,0.6731,0.7263,0.8177,0.8011,0.8027,0.806,0.806,0.806,-1.2845,0.0,0.0,-1.5635,-1.6646,0.0,-2.054,0.0,0.0,0.0,0.0,0.0,0.0,0.0,0.0,0.0,0.0,0.0,0.0,0.0,0.0,0.0,0.0,0.0,0.0,0.0,0.0,0.0,0.0,0.0,0.0,0.0,0.0,0.0,0.0,0.0,-1.9456,-1.8036,-1.6505,0.0,-1.5,-1.405,-1.2051,-1.1319,-1.0305,-0.9157,-0.757,-0.709,-0.73,-0.73,-0.7204,-0.6982,-0.733,-0.73,-0.7308,-0.7106,-0.7081,-0.7308,-0.7106,-0.757,-0.815,-0.815,-0.815,-0.815,-0.8005,-0.757,-0.699,-0.699,-0.699,-0.699,-0.699,-0.647,-0.5924,-0.6148,-0.5743,-0.5197,-0.4755,-0.4709,-0.4665,-0.4665,-0.4371,-0.4226,-0.4519,-0.4371,-0.408,-0.4371,-0.2912,-0.0873,0.1892,0.2475,0.3057,0.4517,0.4665,0.4517,0.408,0.4178,0.3786,0.3029,0.3876,0.4397,0.4397,0.5235,0.5777,0.5845,0.6651,0.7177,0.7424,0.7757,0.7966,0.8052,0.8052,0.8056,0.0,-1.5421,0.0,0.0,-1.742,-1.814,0.0,0.0,0.0,0.0,0.0,0.0,0.0,0.0,0.0,0.0,0.0,0.0,0.0,0.0,0.0,0.0,0.0,0.0,0.0,0.0,0.0,0.0,0.0,0.0,0.0,0.0,0.0,0.0,0.0,-1.916,-1.811,-1.6269,-1.5342,0.0,-1.3586,-1.2359,-1.1319,-1.1025,-1.0017,-0.8285,-0.7421,-0.6978,-0.7106,-0.7106,-0.7119,-0.6986,-0.7115,-0.7106,-0.7106,-0.6982,-0.6978,-0.711,-0.7417,-0.7715,-0.815,-0.815,-0.815,-0.8005,-0.7856,-0.7425,-0.699,-0.699,-0.699,-0.699,-0.6555,-0.618,-0.5789,-0.5182,-0.504,-0.4755,-0.4456,-0.4559,-0.4665,-0.4665,-0.4371,-0.408,-0.4226,-0.3935,-0.3352,-0.2475,-0.0291,0.1601,0.2183,0.335,0.4371,0.4665,0.4665,0.4517,0.408,0.3878,0.3633,0.3482,0.4028,0.4554,0.4865,0.535,0.602,0.6734,0.6894,0.7256,0.7665,0.7827,0.7872,0.7962,0.7962,0.7999,0.0,0.0,0.0,-1.728,0.0,0.0,0.0,0.0,0.0,0.0,0.0,0.0,0.0,0.0,0.0,0.0,0.0,0.0,0.0,0.0,0.0,0.0,0.0,0.0,0.0,0.0,0.0,0.0,0.0,0.0,0.0,0.0,0.0,0.0,-1.812,-1.6768,-1.6184,-1.4496,-1.345,-1.3009,-1.2072,-1.0887,-0.9585,-0.9585,-0.8863,-0.7566,-0.7131,-0.699,-0.699,-0.699,-0.699,-0.699,-0.699,-0.699,-0.699,-0.699,-0.699,-0.699,-0.7421,-0.786,-0.815,-0.8295,-0.844,-0.8295,-0.8145,-0.7711,-0.7276,-0.699,-0.6845,-0.6555,-0.6264,-0.5883,-0.5503,-0.5089,-0.4923,-0.4755,-0.4307,-0.4412,-0.4665,-0.4665,-0.4228,-0.3644,-0.3059,-0.2037,-0.0873,0.0291,0.1746,0.2766,0.335,0.4226,0.4665,0.4665,0.4665,0.4519,0.3791,0.3731,0.3631,0.3633,0.4183,0.4711,0.5648,0.5962,0.6452,0.6968,0.7125,0.7485,0.7733,0.7733,0.7782,0.7868,0.7868,0.7893,0.0,0.0,-1.6221,-1.7711,-1.8559,0.0,0.0,0.0,0.0,0.0,0.0,0.0,0.0,0.0,0.0,0.0,0.0,0.0,0.0,0.0,0.0,0.0,0.0,0.0,0.0,0.0,0.0,0.0,0.0,0.0,0.0,0.0,-1.9404,-1.8994,-1.6035,-1.4367,-1.3932,-1.2619,-1.1469,-1.0455,-1.0449,-0.9729,-0.814,-0.7996,-0.7566,-0.699,-0.699,-0.699,-0.699,-0.699,-0.699,-0.699,-0.699,-0.699,-0.699,-0.699,-0.699,-0.7135,-0.7566,-0.786,-0.815,-0.8584,-0.8729,-0.8729,-0.8729,-0.8145,-0.7421,-0.7135,-0.67,-0.6264,-0.5829,-0.5433,-0.5197,-0.5112,-0.4633,-0.43,-0.4168,-0.427,-0.4226,-0.4226,-0.3352,-0.2331,-0.131,0.0436,0.1891,0.2912,0.3057,0.3641,0.4519,0.4665,0.4665,0.4665,0.4665,0.4228,0.35,0.3582,0.3784,0.3784,0.4338,0.5179,0.6431,0.6744,0.706,0.706,0.7369,0.7562,0.764,0.764,0.7684,0.7774,0.7774,0.7782,0.0,0.0,-1.7765,0.0,0.0,0.0,0.0,0.0,0.0,0.0,0.0,0.0,0.0,0.0,0.0,0.0,0.0,0.0,0.0,0.0,0.0,0.0,0.0,0.0,0.0,0.0,0.0,0.0,0.0,0.0,0.0,0.0,-1.8107,-1.5462,-1.4662,-1.3452,-1.171,-1.1115,-1.0455,-1.0023,-0.9008,-0.8285,-0.814,-0.7421,-0.7135,-0.699,-0.699,-0.699,-0.699,-0.699,-0.699,-0.699,-0.699,-0.699,-0.699,-0.699,-0.699,-0.7135,-0.786,-0.8005,-0.8295,-0.9013,-0.9018,-0.8729,-0.8729,-0.8005,-0.7135,-0.699,-0.641,-0.5829,-0.5392,-0.5256,-0.4985,-0.4013,-0.2949,-0.2644,-0.4359,-0.3407,-0.2183,-0.2183,-0.0436,0.1163,0.1601,0.2621,0.3203,0.335,0.408,0.4517,0.4665,0.4665,0.4665,0.4665,0.4371,0.3935,0.35,0.388,0.4238,0.4238,0.5417,0.6275,0.6747,0.7213,0.7369,0.7369,0.7525,0.7533,0.7542,0.7542,0.7591,0.768,0.768,0.7725,-1.6077,-1.7184,0.0,0.0,0.0,0.0,0.0,0.0,0.0,0.0,0.0,0.0,0.0,0.0,0.0,0.0,0.0,0.0,0.0,0.0,0.0,0.0,0.0,0.0,0.0,0.0,0.0,0.0,0.0,0.0,0.0,-1.8373,-1.6802,-1.4679,-1.3552,0.0,-1.107,-1.0705,-1.0017,-0.8863,-0.8,-0.7421,-0.7421,-0.7131,-0.699,-0.699,-0.699,-0.699,-0.699,-0.699,-0.699,-0.699,-0.699,-0.699,-0.699,-0.699,-0.7135,-0.7421,-0.786,-0.8295,-0.8584,-0.9157,-0.9157,-0.9013,-0.8435,-0.7856,-0.7131,-0.6551,-0.5093,-0.4075,-0.4662,-0.3203,-0.1751,-0.2367,-0.0441,0.1023,-0.1042,-0.0737,-0.0,0.0145,0.1744,0.3054,0.3346,0.4369,0.4953,0.4517,0.481,0.4956,0.4665,0.4665,0.4665,0.4665,0.4371,0.408,0.4228,0.4178,0.454,0.5298,0.5884,0.6587,0.7217,0.7369,0.7525,0.7525,0.7525,0.7525,0.7525,0.7525,0.7546,0.7586,0.7586,0.7607,0.0,0.0,0.0,0.0,0.0,0.0,0.0,0.0,0.0,0.0,0.0,0.0,0.0,0.0,0.0,0.0,0.0,0.0,0.0,0.0,0.0,0.0,0.0,0.0,0.0,0.0,0.0,0.0,0.0,0.0,-1.8654,-1.6952,-1.5465,-1.4056,-1.2325,-1.1129,-1.0613,-0.9971,-0.9008,-0.7851,-0.7276,-0.699,-0.699,-0.699,-0.699,-0.699,-0.699,-0.699,-0.699,-0.699,-0.699,-0.699,-0.699,-0.699,-0.699,-0.699,-0.7135,-0.7566,-0.8005,-0.8295,-0.8584,-0.9163,-0.9157,-0.8868,-0.8285,-0.7706,-0.6986,-0.6116,-0.4073,-0.2618,-0.3787,-0.16,0.0583,-0.0736,0.1464,0.35,0.2207,0.1902,0.2035,0.2326,0.3635,0.4657,0.4657,0.5535,0.5832,0.525,0.5104,0.4956,0.4665,0.4665,0.4665,0.4519,0.4371,0.4371,0.4517,0.4612,0.513,0.6053,0.633,0.6878,0.7525,0.7525,0.7525,0.7525,0.7525,0.7525,0.7525,0.7525,0.7525,0.7525,0.7525,0.7525,0.0,0.0,0.0,0.0,0.0,0.0,0.0,0.0,0.0,0.0,0.0,0.0,0.0,0.0,0.0,0.0,0.0,0.0,0.0,0.0,0.0,0.0,0.0,0.0,0.0,0.0,0.0,0.0,0.0,0.0,-1.7019,-1.5093,-1.3554,-1.2568,-1.125,-1.0456,-0.9902,-0.815,-0.7135,-0.699,-0.699,-0.699,-0.699,-0.699,-0.699,-0.699,-0.699,-0.699,-0.699,-0.699,-0.699,-0.699,-0.699,-0.699,-0.699,-0.699,-0.699,-0.7135,-0.786,-0.815,-0.8295,-0.9013,-0.8724,-0.814,-0.814,-0.7127,-0.5825,-0.5825,-0.4075,-0.233,-0.2475,-0.1164,0.0291,0.0874,0.2328,0.3637,0.393,0.393,0.3928,0.3928,0.5241,0.6268,0.6268,0.5683,0.525,0.525,0.4956,0.4665,0.4665,0.4665,0.4517,0.4226,0.4517,0.4517,0.4226,0.5164,0.5978,0.605,0.6888,0.7435,0.7521,0.7525,0.7525,0.7525,0.7525,0.7525,0.7525,0.7525,0.7525,0.7525,0.7525,0.7525,0.0,0.0,0.0,0.0,0.0,0.0,0.0,0.0,0.0,0.0,0.0,0.0,0.0,0.0,0.0,0.0,0.0,0.0,0.0,0.0,0.0,0.0,0.0,0.0,0.0,0.0,0.0,0.0,0.0,0.0,-1.5232,-1.4441,-1.3348,-1.1983,-1.1405,-1.0655,-0.959,-0.7925,-0.7047,-0.699,-0.699,-0.699,-0.699,-0.699,-0.699,-0.699,-0.699,-0.699,-0.699,-0.699,-0.699,-0.699,-0.699,-0.699,-0.699,-0.699,-0.7131,-0.7421,-0.7425,-0.757,-0.7711,-0.7856,-0.7566,-0.7276,-0.6841,-0.5528,-0.4221,-0.3639,-0.1309,0.0728,-0.0437,0.1455,0.393,0.4369,0.5096,0.5822,0.5967,0.5128,0.4703,0.5832,0.6264,0.6268,0.6119,0.5538,0.5104,0.4956,0.481,0.4665,0.4665,0.4517,0.4226,0.408,0.4226,0.4517,0.4805,0.5602,0.6273,0.6804,0.7189,0.7431,0.7521,0.7525,0.7525,0.7525,0.7525,0.7525,0.7525,0.7525,0.7525,0.7525,0.7525,0.7525,-1.5272,0.0,0.0,0.0,0.0,0.0,0.0,0.0,0.0,0.0,0.0,0.0,0.0,0.0,0.0,0.0,0.0,0.0,0.0,0.0,0.0,0.0,0.0,0.0,0.0,0.0,0.0,0.0,0.0,0.0,-1.433,-1.3523,-1.2488,-1.0964,-1.0964,-1.0239,-0.8634,-0.7534,-0.708,-0.699,-0.699,-0.699,-0.699,-0.699,-0.699,-0.699,-0.699,-0.699,-0.699,-0.699,-0.699,-0.699,-0.699,-0.699,-0.699,-0.699,-0.7135,-0.7421,-0.7135,-0.7135,-0.7421,-0.7135,-0.6845,-0.6406,-0.5386,-0.4075,-0.291,-0.1892,0.0582,0.233,0.1164,0.3201,0.5829,0.6119,0.6555,0.699,0.699,0.6155,0.5736,0.6853,0.67,0.6268,0.6119,0.5538,0.5104,0.4956,0.481,0.4665,0.4665,0.4371,0.408,0.4226,0.4371,0.4662,0.5386,0.6044,0.6571,0.7256,0.7341,0.7431,0.7521,0.7525,0.7525,0.7525,0.7525,0.7525,0.7525,0.7525,0.7525,0.7525,0.7525,0.7525,0.0,0.0,0.0,0.0,0.0,0.0,0.0,0.0,0.0,0.0,0.0,0.0,0.0,0.0,0.0,0.0,0.0,0.0,0.0,0.0,0.0,0.0,0.0,0.0,0.0,0.0,0.0,0.0,0.0,-1.3498,-1.4006,-1.2466,-1.0957,-0.9476,-0.977,-0.9034,-0.7121,-0.7121,-0.7076,-0.699,-0.699,-0.699,-0.699,-0.699,-0.699,-0.699,-0.699,-0.699,-0.699,-0.699,-0.699,-0.699,-0.699,-0.699,-0.699,-0.699,-0.699,-0.699,-0.699,-0.699,-0.699,-0.699,-0.641,-0.5389,-0.3928,-0.291,-0.1892,-0.0291,0.1164,0.233,0.233,0.4075,0.5825,0.5825,0.641,0.699,0.699,0.699,0.699,0.699,0.67,0.6413,0.6417,0.5686,0.525,0.525,0.4959,0.4665,0.4665,0.4374,0.4228,0.4668,0.4956,0.5396,0.5832,0.6635,0.717,0.726,0.7346,0.7431,0.7521,0.7525,0.7525,0.7525,0.7525,0.7525,0.7529,0.7525,0.7525,0.7525,0.7525,0.7525,-1.4561,0.0,0.0,0.0,0.0,0.0,0.0,0.0,0.0,0.0,0.0,0.0,0.0,0.0,0.0,0.0,0.0,0.0,0.0,0.0,0.0,0.0,0.0,0.0,0.0,0.0,0.0,0.0,0.0,-1.1682,-1.2136,-1.1266,-1.0329,-0.9351,-0.8915,-0.8329,-0.7892,-0.7314,-0.7015,-0.699,-0.699,-0.699,-0.699,-0.699,-0.699,-0.699,-0.699,-0.699,-0.699,-0.699,-0.699,-0.699,-0.699,-0.699,-0.699,-0.699,-0.7135,-0.7421,-0.7135,-0.6841,-0.6551,-0.6261,-0.4805,-0.3203,-0.2765,-0.0873,0.1164,0.1601,0.2766,0.408,0.408,0.4662,0.5392,0.5683,0.6119,0.67,0.699,0.699,0.699,0.699,0.67,0.6428,0.6488,0.572,0.5265,0.5311,0.4985,0.4665,0.4665,0.4703,0.4583,0.473,0.5363,0.5843,0.5992,0.6762,0.726,0.735,0.7378,0.7431,0.7521,0.7525,0.7525,0.7525,0.7525,0.7558,0.7623,0.7558,0.7525,0.7525,0.7525,0.7525,-1.4561,-1.4418,-1.4057,-1.3112,0.0,0.0,0.0,0.0,0.0,0.0,0.0,0.0,0.0,0.0,0.0,0.0,0.0,0.0,0.0,0.0,0.0,0.0,0.0,0.0,0.0,0.0,0.0,0.0,-1.1305,-1.094,-1.0953,-1.0382,-0.959,-0.8868,-0.8329,-0.8043,-0.7711,-0.7173,-0.7027,-0.699,-0.699,-0.699,-0.699,-0.699,-0.699,-0.699,-0.699,-0.699,-0.699,-0.699,-0.699,-0.699,-0.699,-0.699,-0.699,-0.7135,-0.7421,-0.7566,-0.7276,-0.6841,-0.6257,-0.5241,-0.3639,-0.2037,-0.0728,0.0873,0.2475,0.3057,0.3935,0.4665,0.4665,0.4956,0.5247,0.5683,0.6119,0.6559,0.6845,0.699,0.699,0.699,0.6845,0.6727,0.6814,0.6023,0.556,0.5632,0.5143,0.4665,0.4665,0.4717,0.4903,0.52,0.5709,0.6204,0.6506,0.6994,0.7337,0.7386,0.7423,0.7468,0.7521,0.7525,0.7542,0.7582,0.7582,0.7607,0.7664,0.757,0.7525,0.7525,0.7525,0.7525,-1.4624,-1.4201,-1.368,-1.3039,-1.2452,0.0,-1.3914,-1.4027,0.0,0.0,0.0,0.0,0.0,0.0,0.0,0.0,0.0,0.0,0.0,0.0,0.0,0.0,0.0,0.0,0.0,0.0,0.0,-1.0717,-1.0725,-1.0522,-0.9941,-0.9506,-0.8853,-0.7996,-0.8085,-0.7801,-0.699,-0.7072,-0.7072,-0.699,-0.699,-0.699,-0.699,-0.699,-0.699,-0.699,-0.699,-0.699,-0.699,-0.699,-0.699,-0.699,-0.699,-0.699,-0.699,-0.7421,-0.7566,-0.7711,-0.7566,-0.6982,-0.5963,-0.4073,-0.2765,-0.131,0.1455,0.2475,0.2912,0.4226,0.4665,0.4665,0.4665,0.4956,0.5247,0.5683,0.6119,0.641,0.6845,0.699,0.699,0.699,0.699,0.7019,0.6961,0.6316,0.5852,0.5931,0.529,0.4668,0.4819,0.4875,0.5215,0.5965,0.6183,0.6535,0.7292,0.7362,0.7403,0.7403,0.748,0.7525,0.7525,0.7525,0.7562,0.7644,0.7668,0.7672,0.7664,0.7578,0.7533,0.7525,0.7681,0.7838,-1.503,-1.4201,-1.368,-1.3039,0.0,0.0,0.0,-1.15,0.0,0.0,0.0,0.0,0.0,0.0,0.0,0.0,0.0,0.0,0.0,0.0,0.0,0.0,0.0,0.0,0.0,0.0,-1.0717,-1.0717,-1.0315,-0.9513,-0.8273,-0.8247,-0.7916,-0.7276,-0.7297,-0.7152,-0.699,-0.7007,-0.7007,-0.699,-0.699,-0.699,-0.699,-0.699,-0.699,-0.699,-0.699,-0.699,-0.699,-0.699,-0.699,-0.699,-0.699,-0.699,-0.699,-0.7135,-0.7425,-0.786,-0.728,-0.6257,-0.4796,-0.378,-0.1309,0.1455,0.2183,0.3203,0.4226,0.4665,0.4665,0.4665,0.4665,0.481,0.4956,0.5683,0.5829,0.6119,0.6845,0.699,0.699,0.699,0.699,0.6873,0.6662,0.6169,0.5706,0.5484,0.4997,0.4827,0.517,0.5537,0.6057,0.6572,0.6957,0.7317,0.7472,0.7488,0.7501,0.7501,0.7517,0.7525,0.7525,0.7525,0.7533,0.755,0.7697,0.7738,0.7664,0.7644,0.7599,0.7525,0.892,0.9542,-1.484,-1.3985,-1.3258,-1.2966,0.0,0.0,0.0,0.0,0.0,0.0,0.0,0.0,0.0,0.0,0.0,0.0,0.0,0.0,0.0,0.0,0.0,0.0,0.0,0.0,0.0,0.0,-1.0504,-1.018,-0.9777,-0.9064,-0.775,-0.7622,-0.7304,-0.6921,-0.6966,-0.699,-0.699,-0.699,-0.699,-0.699,-0.699,-0.699,-0.699,-0.699,-0.699,-0.699,-0.699,-0.699,-0.699,-0.699,-0.699,-0.699,-0.699,-0.699,-0.699,-0.7276,-0.7276,-0.7131,-0.6398,-0.5087,-0.3488,-0.1743,0.0436,0.2475,0.3205,0.408,0.4665,0.4665,0.4665,0.4665,0.4665,0.4665,0.4956,0.5683,0.5825,0.597,0.6845,0.699,0.7003,0.6751,0.6582,0.6432,0.6515,0.5876,0.5268,0.5333,0.517,0.5158,0.5339,0.6036,0.6583,0.6777,0.7162,0.7525,0.7525,0.7525,0.7525,0.7525,0.7525,0.7525,0.7525,0.7525,0.757,0.766,0.784,0.7885,0.7799,0.7754,0.8132,0.8769,0.9542,1.0469,0.0,0.0,0.0,0.0,0.0,-1.1335,0.0,0.0,0.0,0.0,0.0,0.0,0.0,0.0,0.0,0.0,0.0,0.0,0.0,0.0,0.0,0.0,0.0,0.0,0.0,0.0,-1.0071,-0.9763,-0.9146,-0.8542,-0.7703,-0.7152,-0.6819,-0.6851,-0.6925,-0.697,-0.699,-0.699,-0.699,-0.699,-0.699,-0.699,-0.699,-0.699,-0.699,-0.699,-0.699,-0.6998,-0.7015,-0.6998,-0.6998,-0.7015,-0.6998,-0.699,-0.699,-0.7131,-0.6837,-0.6257,-0.5087,-0.3633,-0.2035,0.0582,0.2036,0.3057,0.4371,0.4665,0.4665,0.4665,0.4665,0.4665,0.4665,0.4665,0.481,0.5538,0.5683,0.5974,0.67,0.6857,0.6739,0.6496,0.588,0.5573,0.6075,0.529,0.4679,0.5023,0.5188,0.5351,0.5363,0.6232,0.6784,0.6953,0.7325,0.7525,0.7525,0.7525,0.7525,0.7525,0.7525,0.7525,0.7525,0.7838,0.8072,0.825,0.8725,0.8935,0.8857,0.8774,0.9123,1.0041,1.033,1.1399,0.0,0.0,0.0,0.0,-1.1626,0.0,0.0,0.0,0.0,0.0,0.0,0.0,0.0,0.0,0.0,0.0,0.0,0.0,0.0,0.0,0.0,0.0,0.0,0.0,0.0,0.0,0.0,-0.9606,-0.843,-0.7587,-0.7377,-0.6927,-0.6692,-0.6847,-0.6864,-0.6909,-0.699,-0.699,-0.699,-0.699,-0.699,-0.699,-0.699,-0.699,-0.699,-0.699,-0.699,-0.7035,-0.7105,-0.7023,-0.7039,-0.7105,-0.7023,-0.699,-0.699,-0.6261,-0.6116,-0.5967,-0.3492,-0.1891,-0.0581,0.1455,0.3203,0.4517,0.4665,0.4665,0.4665,0.4665,0.4665,0.4665,0.4665,0.4665,0.481,0.5247,0.5538,0.5974,0.641,0.6466,0.6349,0.5995,0.5005,0.4448,0.49,0.4556,0.4083,0.3798,0.4425,0.5072,0.5428,0.6263,0.6961,0.7345,0.7521,0.7525,0.7525,0.7525,0.7525,0.7525,0.7525,0.7525,0.7525,0.892,0.9756,0.9887,1.1336,1.2127,1.2114,1.2095,1.1445,1.0166,1.1616,1.3098,0.0,0.0,0.0,0.0,0.0,0.0,-1.125,0.0,-1.1105,0.0,0.0,0.0,0.0,0.0,0.0,0.0,0.0,0.0,0.0,0.0,0.0,0.0,0.0,0.0,0.0,0.0,0.0,0.0,0.0,-0.7488,-0.6821,-0.6719,-0.6647,-0.6778,-0.6827,-0.6896,-0.699,-0.699,-0.699,-0.699,-0.699,-0.699,-0.699,-0.699,-0.699,-0.699,-0.699,-0.7011,-0.7043,-0.7007,-0.7011,-0.6897,-0.5538,-0.5528,-0.6116,-0.4364,-0.3782,-0.3346,-0.0582,0.0872,0.1745,0.3203,0.408,0.4665,0.4665,0.4665,0.4665,0.4665,0.4665,0.4665,0.4665,0.4665,0.481,0.5104,0.5538,0.5839,0.6033,0.636,0.6237,0.536,0.4612,0.4159,0.3864,0.3529,0.3654,0.4123,0.4768,0.5431,0.6108,0.6799,0.7329,0.7521,0.7525,0.7525,0.7525,0.7525,0.7525,0.7525,0.7525,0.7989,0.892,0.9604,1.0605,1.1597,1.2305,1.2661,1.2661,1.2581,1.2698,1.3012,1.3634,1.479,-1.33,0.0,0.0,0.0,0.0,0.0,0.0,0.0,0.0,0.0,0.0,0.0,0.0,0.0,-1.0956,-1.0594,0.0,0.0,0.0,0.0,0.0,0.0,0.0,0.0,0.0,0.0,0.0,0.0,0.0,0.0,-0.6698,-0.6652,-0.6594,-0.6688,-0.6774,-0.686,-0.6954,-0.6978,-0.699,-0.699,-0.699,-0.699,-0.699,-0.699,-0.699,-0.699,-0.699,-0.7003,-0.7027,-0.6998,-0.6712,-0.6144,-0.4075,-0.3635,-0.4075,-0.218,-0.1308,-0.0727,0.16,0.291,0.3496,0.4371,0.4665,0.4665,0.4665,0.4665,0.4665,0.4665,0.4665,0.4665,0.4665,0.4665,0.481,0.4956,0.5392,0.5703,0.5776,0.5954,0.5985,0.4988,0.4359,0.3882,0.3437,0.2948,0.3075,0.43,0.4954,0.5622,0.6459,0.7158,0.7525,0.7525,0.7525,0.7525,0.7525,0.7525,0.7525,0.7525,0.7989,0.8764,1.0008,1.0867,1.2011,1.3255,1.3683,1.4065,1.4065,1.3945,1.4509,1.5768,1.5163,1.5871,0.0,0.0,0.0,-1.1642,0.0,0.0,0.0,0.0,-1.1105,0.0,0.0,0.0,0.0,-1.1105,-1.0956,-1.0594,-1.0165,0.0,0.0,0.0,0.0,0.0,0.0,0.0,0.0,0.0,0.0,0.0,0.0,0.0,-0.6947,-0.6723,-0.65,-0.659,-0.6684,-0.677,-0.6856,-0.6945,-0.699,-0.699,-0.699,-0.699,-0.699,-0.699,-0.699,-0.699,-0.699,-0.7039,-0.7113,-0.7027,-0.6158,-0.4739,-0.3068,-0.1745,-0.0727,0.0145,0.0581,0.0726,0.2328,0.3641,0.4665,0.4665,0.4665,0.4665,0.4665,0.4665,0.4665,0.4665,0.4665,0.4665,0.4665,0.4665,0.4665,0.4665,0.4956,0.5265,0.533,0.5397,0.5292,0.4845,0.4238,0.3782,0.4235,0.3113,0.2635,0.3557,0.4352,0.5164,0.6149,0.7003,0.7525,0.7525,0.7525,0.7525,0.7525,0.7525,0.7525,0.7525,0.9075,1.0008,1.0008,1.3098,1.4798,1.4798,1.6357,1.7292,1.7292,1.7283,1.7283,1.7283,1.5718,1.5871,0.0,0.0,-1.4158,-1.2517,0.0,0.0,0.0,0.0,0.0,0.0,0.0,0.0,0.0,-1.0519,-1.0594,-1.0143,-0.9992,-0.9765,0.0,0.0,0.0,0.0,0.0,0.0,0.0,0.0,0.0,0.0,0.0,0.0,0.0,-0.6689,-0.6496,-0.6586,-0.6619,-0.6705,-0.6851,-0.6884,-0.6929,-0.699,-0.699,-0.699,-0.699,-0.699,-0.699,-0.699,-0.699,-0.7007,-0.6885,-0.5977,-0.4813,-0.3654,-0.0437,0.1162,0.1744,0.2618,0.2618,0.2328,0.3641,0.4371,0.4665,0.4665,0.4665,0.4665,0.4665,0.4665,0.4665,0.4665,0.4665,0.4665,0.4665,0.4665,0.4665,0.4665,0.4956,0.5134,0.4943,0.513,0.5156,0.4591,0.4596,0.4431,0.4396,0.4207,0.4349,0.5162,0.5648,0.6149,0.7003,0.7349,0.7525,0.7525,0.7525,0.7525,0.7525,0.7525,0.7525,0.7525,0.9075,1.0469,1.1553,1.3714,1.5412,1.6492,1.7121,1.7426,1.7426,1.7721,1.7721,1.7426,1.7102,1.7407,-1.5287,-1.5479,0.0,-1.3673,-1.3614,0.0,-1.1763,0.0,0.0,0.0,0.0,0.0,0.0,-1.0143,-1.0143,-0.9776,-0.97,-0.9463,0.0,-0.7548,0.0,0.0,0.0,0.0,0.0,0.0,0.0,0.0,0.0,0.0,0.0,0.0,-0.6581,-0.6537,-0.6574,-0.666,-0.6807,-0.6839,-0.69,-0.699,-0.699,-0.699,-0.699,-0.699,-0.6696,-0.6116,-0.6116,-0.5822,-0.5238,-0.4221,-0.3054,-0.1598,0.1162,0.2909,0.3782,0.4511,0.4221,0.3641,0.4371,0.4665,0.4665,0.4665,0.4665,0.4665,0.4665,0.4665,0.466,0.4782,0.4794,0.466,0.4782,0.4794,0.4665,0.4665,0.481,0.4985,0.4793,0.4979,0.5013,0.4617,0.4778,0.4927,0.5061,0.519,0.5495,0.6152,0.6159,0.6494,0.7357,0.7525,0.7525,0.7525,0.7525,0.7525,0.7525,0.7525,0.7681,0.8301,1.0008,1.1553,1.3252,1.4944,1.6303,1.7464,1.7388,1.7388,1.7464,1.7692,1.7683,1.7312,1.7986,1.8431]},{"header":{"parameterUnit":"m.s-1","parameterCategory":1,"la1":30.6,"la2":29.2853,"lo1":-89.7004,"lo2":-87.6739,"dx":0.0162,"dy":0.0183,"nx":112,"ny":82,"refTime":"2022-11-22T18:00:00:Z","depth":0,"parameterNumber":3,"parameterNumberName":"V-component_of_WINDS"},"data":[0.0,0.0,0.0,0.0,0.0,0.0,0.0,0.0,0.0,0.0,0.0,0.0,0.0,0.0,0.0,0.0,0.0,0.0,0.0,0.0,0.0,0.0,0.0,0.0,0.0,0.0,0.0,0.0,0.0,0.0,0.0,0.0,0.0,0.0,0.0,0.0,0.0,0.0,0.0,0.0,0.0,0.0,0.0,0.0,0.0,0.0,0.0,0.0,0.0,0.0,0.0,0.0,0.0,0.0,0.0,0.0,0.0,0.0,0.0,0.0,0.0,0.0,0.0,0.0,0.0,0.0,0.0,0.0,0.0,0.0,0.0,0.0,0.0,0.0,0.0,0.0,0.0,0.0,0.0,0.0,0.0,0.0,0.0,0.0,0.0,0.0,0.0,0.0,0.0,0.0,0.0,-4.3771,-4.3667,-4.3566,-4.3497,-4.3532,-4.3566,-4.3497,0.0,0.0,0.0,0.0,0.0,0.0,0.0,0.0,0.0,0.0,0.0,0.0,0.0,0.0,0.0,0.0,0.0,0.0,0.0,0.0,0.0,0.0,0.0,0.0,0.0,0.0,0.0,0.0,0.0,0.0,0.0,0.0,0.0,0.0,0.0,0.0,0.0,0.0,0.0,0.0,0.0,0.0,0.0,0.0,0.0,0.0,0.0,0.0,0.0,0.0,0.0,0.0,0.0,0.0,0.0,0.0,0.0,0.0,0.0,0.0,0.0,0.0,0.0,0.0,0.0,0.0,0.0,0.0,0.0,0.0,0.0,0.0,0.0,0.0,0.0,0.0,0.0,0.0,0.0,0.0,0.0,0.0,0.0,0.0,0.0,0.0,0.0,0.0,0.0,0.0,0.0,0.0,0.0,0.0,0.0,0.0,0.0,0.0,0.0,0.0,0.0,0.0,0.0,0.0,-4.3634,-4.3634,-4.3566,-4.3497,-4.3429,-4.3429,-4.3429,-4.3429,0.0,0.0,0.0,0.0,0.0,0.0,0.0,0.0,0.0,0.0,0.0,0.0,0.0,0.0,0.0,0.0,0.0,0.0,0.0,0.0,0.0,0.0,0.0,0.0,0.0,0.0,0.0,0.0,0.0,0.0,0.0,0.0,0.0,0.0,0.0,0.0,0.0,0.0,0.0,0.0,0.0,0.0,0.0,0.0,0.0,0.0,0.0,0.0,0.0,0.0,0.0,0.0,0.0,0.0,0.0,0.0,0.0,0.0,0.0,0.0,0.0,0.0,0.0,0.0,0.0,0.0,0.0,0.0,0.0,0.0,0.0,0.0,0.0,0.0,0.0,0.0,0.0,0.0,0.0,0.0,0.0,0.0,0.0,0.0,0.0,0.0,0.0,0.0,0.0,0.0,0.0,0.0,0.0,0.0,0.0,0.0,0.0,0.0,0.0,0.0,0.0,0.0,0.0,-4.3566,-4.3566,-4.3566,-4.3532,-4.3497,-4.3463,-4.3428,-4.3428,-4.3428,-4.3428,0.0,0.0,0.0,0.0,0.0,0.0,0.0,0.0,0.0,0.0,0.0,0.0,0.0,0.0,0.0,0.0,0.0,0.0,0.0,0.0,0.0,0.0,0.0,0.0,0.0,0.0,0.0,0.0,0.0,0.0,0.0,0.0,0.0,0.0,0.0,0.0,0.0,0.0,0.0,0.0,0.0,0.0,0.0,0.0,0.0,0.0,0.0,0.0,0.0,0.0,0.0,0.0,0.0,0.0,0.0,0.0,0.0,0.0,0.0,0.0,0.0,0.0,0.0,0.0,0.0,0.0,0.0,0.0,0.0,0.0,0.0,0.0,0.0,0.0,0.0,0.0,0.0,0.0,0.0,0.0,0.0,0.0,0.0,0.0,0.0,0.0,0.0,0.0,0.0,0.0,0.0,0.0,0.0,0.0,0.0,0.0,0.0,0.0,0.0,0.0,0.0,0.0,-4.3566,-4.3571,-4.3789,-4.3573,-4.3536,-4.3754,-4.3608,-4.3571,-4.3754,-4.3573,0.0,0.0,0.0,0.0,0.0,0.0,0.0,0.0,0.0,0.0,0.0,0.0,0.0,0.0,0.0,0.0,0.0,0.0,0.0,0.0,0.0,0.0,0.0,0.0,0.0,0.0,0.0,0.0,0.0,0.0,0.0,0.0,0.0,0.0,0.0,0.0,0.0,0.0,0.0,0.0,0.0,0.0,0.0,0.0,0.0,0.0,0.0,0.0,0.0,0.0,0.0,0.0,0.0,0.0,0.0,0.0,0.0,0.0,0.0,0.0,0.0,0.0,0.0,0.0,0.0,0.0,0.0,0.0,0.0,0.0,0.0,0.0,0.0,0.0,0.0,0.0,0.0,0.0,0.0,0.0,0.0,0.0,0.0,0.0,0.0,0.0,0.0,0.0,0.0,0.0,0.0,0.0,0.0,0.0,0.0,0.0,0.0,0.0,0.0,0.0,0.0,0.0,-4.3566,-4.3789,-4.463,-4.3832,-4.3579,-4.4526,-4.3938,-4.3828,-4.4562,-4.397,0.0,0.0,0.0,0.0,0.0,0.0,0.0,0.0,0.0,0.0,0.0,0.0,0.0,0.0,0.0,0.0,0.0,0.0,0.0,0.0,0.0,0.0,0.0,0.0,0.0,0.0,0.0,0.0,0.0,0.0,0.0,0.0,0.0,0.0,0.0,0.0,0.0,0.0,0.0,0.0,0.0,0.0,0.0,0.0,0.0,0.0,0.0,0.0,0.0,0.0,0.0,0.0,0.0,0.0,0.0,0.0,0.0,0.0,0.0,0.0,0.0,0.0,0.0,0.0,0.0,0.0,0.0,0.0,0.0,0.0,0.0,0.0,0.0,0.0,0.0,0.0,0.0,0.0,0.0,0.0,0.0,0.0,0.0,0.0,0.0,0.0,0.0,0.0,0.0,0.0,0.0,0.0,0.0,0.0,0.0,0.0,0.0,0.0,0.0,0.0,0.0,0.0,-4.477,-4.4767,0.0,-4.5429,-4.5392,-4.5688,-4.4949,-4.4583,-4.4881,0.0,0.0,0.0,0.0,0.0,0.0,0.0,0.0,0.0,0.0,0.0,0.0,0.0,0.0,0.0,0.0,0.0,0.0,0.0,0.0,0.0,0.0,0.0,0.0,0.0,0.0,0.0,0.0,0.0,0.0,0.0,0.0,0.0,0.0,0.0,0.0,0.0,0.0,0.0,0.0,0.0,0.0,0.0,0.0,0.0,0.0,0.0,0.0,0.0,0.0,0.0,0.0,0.0,0.0,0.0,0.0,0.0,0.0,0.0,0.0,0.0,0.0,0.0,0.0,0.0,0.0,0.0,0.0,0.0,0.0,0.0,0.0,0.0,0.0,0.0,0.0,0.0,0.0,0.0,0.0,0.0,0.0,0.0,0.0,0.0,0.0,0.0,0.0,0.0,0.0,0.0,0.0,0.0,0.0,0.0,0.0,0.0,0.0,0.0,0.0,0.0,0.0,-4.569,-4.554,-4.5719,0.0,-4.6487,-4.6483,-4.6838,-4.6062,-4.5658,-4.5955,0.0,0.0,0.0,0.0,0.0,0.0,0.0,0.0,0.0,0.0,0.0,0.0,0.0,0.0,0.0,0.0,0.0,0.0,0.0,0.0,0.0,0.0,0.0,0.0,0.0,0.0,0.0,0.0,0.0,0.0,0.0,0.0,0.0,0.0,0.0,0.0,0.0,0.0,0.0,0.0,0.0,0.0,0.0,0.0,0.0,0.0,0.0,0.0,0.0,0.0,0.0,0.0,0.0,0.0,0.0,0.0,0.0,0.0,0.0,0.0,0.0,0.0,0.0,0.0,0.0,0.0,0.0,0.0,0.0,0.0,0.0,0.0,0.0,0.0,0.0,0.0,0.0,0.0,0.0,0.0,0.0,0.0,0.0,0.0,0.0,0.0,0.0,0.0,0.0,0.0,0.0,0.0,0.0,0.0,0.0,0.0,0.0,0.0,0.0,0.0,0.0,0.0,-4.5134,-4.5725,-4.6607,-4.7627,-4.665,-4.6498,-4.7903,-4.7161,-4.7011,0.0,0.0,0.0,0.0,0.0,0.0,0.0,0.0,0.0,0.0,0.0,0.0,0.0,0.0,0.0,0.0,0.0,0.0,0.0,0.0,0.0,0.0,0.0,0.0,0.0,0.0,0.0,0.0,0.0,0.0,0.0,0.0,0.0,0.0,0.0,0.0,0.0,0.0,0.0,0.0,0.0,0.0,0.0,0.0,0.0,0.0,0.0,0.0,0.0,0.0,0.0,0.0,0.0,0.0,0.0,0.0,0.0,0.0,0.0,0.0,0.0,0.0,0.0,0.0,0.0,0.0,0.0,0.0,0.0,0.0,0.0,0.0,0.0,0.0,0.0,0.0,0.0,0.0,0.0,0.0,0.0,0.0,0.0,0.0,0.0,0.0,0.0,0.0,0.0,0.0,0.0,0.0,0.0,0.0,0.0,0.0,0.0,0.0,0.0,0.0,0.0,0.0,0.0,0.0,-4.7248,-4.7826,-4.8684,-4.8715,-4.8784,-4.9173,-4.8548,-4.8143,-4.8152,0.0,0.0,0.0,0.0,0.0,0.0,0.0,0.0,0.0,0.0,0.0,0.0,0.0,0.0,0.0,0.0,0.0,0.0,0.0,0.0,0.0,0.0,0.0,0.0,0.0,0.0,0.0,0.0,0.0,0.0,0.0,0.0,0.0,0.0,0.0,0.0,0.0,0.0,0.0,0.0,0.0,0.0,0.0,0.0,0.0,0.0,0.0,0.0,0.0,0.0,0.0,0.0,0.0,0.0,0.0,0.0,0.0,0.0,0.0,0.0,0.0,0.0,0.0,0.0,0.0,0.0,0.0,0.0,0.0,0.0,0.0,0.0,0.0,0.0,0.0,0.0,0.0,0.0,0.0,0.0,0.0,0.0,0.0,0.0,0.0,0.0,0.0,0.0,0.0,0.0,0.0,0.0,0.0,0.0,0.0,0.0,0.0,0.0,0.0,0.0,0.0,0.0,-4.79,-4.8286,-4.8674,-4.9127,-4.9439,-4.9665,-4.9776,-4.9251,-4.8958,-4.906,0.0,0.0,0.0,0.0,0.0,0.0,0.0,0.0,0.0,0.0,0.0,0.0,0.0,0.0,0.0,0.0,0.0,0.0,0.0,0.0,0.0,0.0,0.0,0.0,0.0,0.0,0.0,0.0,0.0,0.0,0.0,0.0,0.0,0.0,0.0,0.0,0.0,0.0,0.0,0.0,0.0,0.0,0.0,0.0,0.0,0.0,0.0,0.0,0.0,0.0,0.0,0.0,0.0,0.0,0.0,0.0,0.0,0.0,0.0,0.0,0.0,0.0,0.0,0.0,0.0,0.0,0.0,0.0,0.0,0.0,0.0,0.0,0.0,0.0,0.0,0.0,0.0,0.0,0.0,0.0,0.0,0.0,0.0,0.0,0.0,0.0,0.0,0.0,0.0,0.0,0.0,0.0,0.0,0.0,0.0,0.0,0.0,0.0,0.0,0.0,0.0,0.0,-4.8641,-4.8999,-4.928,-4.928,-4.9571,-4.9872,-5.0164,-4.9648,-4.963,-5.0451,0.0,0.0,0.0,0.0,0.0,0.0,0.0,0.0,0.0,0.0,0.0,0.0,0.0,0.0,0.0,0.0,0.0,0.0,0.0,0.0,0.0,0.0,0.0,0.0,0.0,0.0,0.0,0.0,0.0,0.0,0.0,0.0,0.0,0.0,0.0,0.0,0.0,0.0,0.0,0.0,0.0,0.0,0.0,0.0,0.0,0.0,0.0,0.0,0.0,0.0,0.0,0.0,0.0,0.0,0.0,0.0,0.0,0.0,0.0,0.0,-3.4128,0.0,0.0,0.0,0.0,0.0,0.0,0.0,0.0,0.0,0.0,0.0,0.0,0.0,0.0,0.0,0.0,0.0,0.0,0.0,0.0,0.0,0.0,0.0,0.0,0.0,0.0,0.0,0.0,0.0,0.0,0.0,0.0,0.0,0.0,0.0,0.0,0.0,0.0,0.0,0.0,0.0,-4.8744,-4.9877,-5.053,-5.047,-5.1561,-5.2318,-5.2318,-5.1757,-5.1373,-5.1354,0.0,0.0,0.0,0.0,0.0,0.0,0.0,0.0,0.0,0.0,0.0,0.0,0.0,0.0,0.0,0.0,0.0,0.0,0.0,0.0,0.0,0.0,0.0,0.0,0.0,0.0,0.0,0.0,0.0,0.0,0.0,0.0,0.0,0.0,0.0,0.0,0.0,0.0,0.0,0.0,0.0,0.0,0.0,0.0,0.0,0.0,0.0,0.0,0.0,0.0,0.0,0.0,0.0,0.0,0.0,0.0,0.0,0.0,0.0,0.0,0.0,-3.5475,0.0,0.0,0.0,0.0,0.0,0.0,0.0,0.0,0.0,0.0,0.0,0.0,0.0,0.0,0.0,0.0,0.0,0.0,0.0,0.0,0.0,0.0,0.0,0.0,0.0,0.0,0.0,0.0,0.0,0.0,0.0,0.0,0.0,0.0,0.0,0.0,0.0,0.0,0.0,0.0,-5.056,-5.1174,-5.1546,-5.139,-5.231,-5.296,-5.2893,-5.2374,-5.1895,-5.1689,-5.1327,0.0,0.0,0.0,0.0,0.0,0.0,0.0,0.0,0.0,0.0,0.0,0.0,0.0,0.0,0.0,0.0,0.0,0.0,0.0,0.0,0.0,0.0,0.0,0.0,0.0,0.0,0.0,0.0,0.0,0.0,0.0,0.0,0.0,0.0,0.0,0.0,0.0,0.0,0.0,0.0,0.0,0.0,0.0,0.0,0.0,0.0,0.0,0.0,0.0,0.0,0.0,0.0,0.0,0.0,-3.8277,-3.8566,-3.9093,-3.9544,-3.9806,-3.9189,-3.8776,-3.8455,0.0,0.0,0.0,0.0,0.0,0.0,0.0,0.0,0.0,0.0,0.0,0.0,0.0,0.0,0.0,0.0,0.0,0.0,0.0,0.0,0.0,0.0,0.0,0.0,0.0,-4.8301,-4.8413,0.0,0.0,0.0,0.0,0.0,0.0,0.0,0.0,0.0,0.0,0.0,0.0,-5.2456,-5.2521,-5.2408,-5.2296,-5.2908,-5.3315,-5.3345,-5.2794,-5.2376,-5.2295,-5.1664,-5.1588,0.0,0.0,0.0,0.0,0.0,0.0,0.0,0.0,0.0,0.0,0.0,0.0,0.0,0.0,0.0,0.0,0.0,0.0,0.0,0.0,0.0,0.0,0.0,0.0,0.0,0.0,0.0,0.0,0.0,0.0,0.0,0.0,-3.6576,-3.4546,0.0,0.0,0.0,0.0,0.0,0.0,0.0,0.0,0.0,0.0,0.0,0.0,0.0,0.0,-3.7051,-3.7975,-3.8478,-3.8668,-4.004,-4.0577,-4.0341,-4.2062,-4.3116,-4.3579,-4.3204,0.0,-3.87,-3.7831,0.0,0.0,0.0,0.0,0.0,0.0,0.0,0.0,0.0,0.0,0.0,0.0,0.0,0.0,0.0,0.0,0.0,0.0,0.0,0.0,0.0,0.0,-4.4093,-4.8103,-4.9504,-5.0064,0.0,-4.9733,-4.909,-4.839,0.0,0.0,0.0,0.0,0.0,0.0,0.0,0.0,-5.2567,-5.3201,-5.3536,-5.3414,-5.4641,-5.5478,-5.5399,-5.4647,-5.4164,-5.4164,-5.4007,-5.3664,-5.3147,-5.386,0.0,0.0,0.0,0.0,0.0,0.0,0.0,0.0,0.0,0.0,0.0,0.0,0.0,0.0,0.0,0.0,0.0,0.0,0.0,0.0,0.0,0.0,0.0,0.0,0.0,0.0,0.0,0.0,0.0,-3.5151,-3.5419,-3.3528,-3.379,-3.3529,0.0,0.0,0.0,0.0,0.0,0.0,0.0,0.0,0.0,-3.6226,-3.7819,-3.8984,-3.9569,-3.9961,-4.0433,-4.1031,-4.1545,-4.1742,-4.1833,-4.2731,-4.3406,-4.393,-4.4126,-4.352,-4.231,-4.083,-3.99,-3.9264,0.0,0.0,0.0,0.0,0.0,-3.8125,-3.8787,0.0,0.0,0.0,0.0,0.0,0.0,0.0,0.0,0.0,0.0,0.0,0.0,0.0,0.0,-4.937,-5.0576,-5.1174,-5.1274,-5.104,-5.0735,0.0,-5.0188,-5.0418,-5.1136,0.0,0.0,0.0,0.0,0.0,-5.3662,-5.4178,-5.452,-5.46,-5.5346,-5.5807,-5.5745,-5.5378,-5.4993,-5.4513,-5.4495,-5.4381,-5.4108,-5.4044,-5.3481,0.0,0.0,0.0,0.0,0.0,0.0,0.0,0.0,0.0,0.0,0.0,0.0,0.0,0.0,0.0,0.0,0.0,0.0,0.0,0.0,0.0,0.0,0.0,0.0,0.0,0.0,0.0,0.0,-3.4764,-3.5034,-3.3108,-3.3793,-3.3913,0.0,0.0,0.0,0.0,0.0,0.0,-3.5461,-3.7343,-3.8442,-3.8582,-3.9893,-4.1069,-4.2007,-4.196,-4.2332,-4.3092,-4.3013,-4.3062,-4.3139,-4.3482,-4.3843,-4.4227,-4.4784,-4.5247,-4.5509,-4.3767,-4.2709,-4.212,-4.1666,-4.1458,-4.1389,-4.1426,-4.1159,-4.0946,-4.1699,-4.1378,-4.09,-4.2136,0.0,-4.113,-4.2227,0.0,0.0,0.0,0.0,-4.2824,-4.5725,0.0,-4.8596,-5.0188,-5.1316,-5.2064,-5.2064,-5.2319,-5.2353,0.0,-5.1799,-5.2061,-5.2779,0.0,0.0,0.0,0.0,-5.3631,-5.4726,-5.511,-5.5472,-5.5951,-5.6291,-5.64,-5.6357,-5.6379,-5.6151,-5.5537,-5.5364,-5.5305,-5.5415,-5.4614,-5.4033,0.0,0.0,0.0,0.0,0.0,0.0,0.0,0.0,0.0,0.0,0.0,0.0,0.0,0.0,0.0,0.0,0.0,0.0,0.0,0.0,0.0,0.0,0.0,0.0,0.0,0.0,0.0,0.0,0.0,0.0,-3.4824,-3.5056,0.0,0.0,0.0,0.0,-3.7085,-3.7327,-3.7716,-3.8617,-3.9963,-4.0827,-4.1013,-4.2313,-4.3404,-4.4164,-4.4164,-4.4198,-4.4233,-4.4906,-4.4872,-4.4249,-4.5346,-4.5875,-4.5924,-4.6249,-4.6405,-4.6364,-4.5509,-4.5008,-4.4623,-4.3778,-4.3243,-4.3032,-4.3245,-4.3446,-4.3632,-4.396,-4.4224,-4.4433,-4.4508,-4.4508,-4.4433,-4.4508,-4.5036,0.0,0.0,-4.5628,-4.6016,-4.768,-4.8138,-4.8565,-5.0052,-5.166,-5.2856,-5.2856,-5.3562,-5.3709,0.0,-5.1799,-5.199,-5.2602,0.0,-5.2939,-5.372,-5.3907,-5.4352,-5.5385,-5.5889,-5.6521,-5.7581,-5.7987,-5.8165,-5.8165,-5.8235,-5.8258,-5.8219,-5.7506,-5.7155,-5.7279,-5.6377,-5.5509,-5.4735,-5.4784,0.0,0.0,0.0,0.0,0.0,0.0,0.0,0.0,0.0,0.0,0.0,0.0,0.0,0.0,0.0,0.0,0.0,0.0,0.0,0.0,0.0,0.0,0.0,0.0,0.0,0.0,0.0,0.0,-3.5998,-3.6422,0.0,0.0,-3.6422,-3.7019,-3.8287,-3.9292,-4.003,-4.0353,-4.2071,-4.3128,-4.3178,-4.4129,-4.4734,-4.501,-4.463,-4.463,-4.501,-4.4854,-4.5111,-4.5551,-4.5917,-4.6516,-4.7197,-4.7816,-4.831,-4.8641,-4.8936,-4.7789,-4.5897,-4.546,-4.5281,-4.5178,-4.5247,-4.5682,-4.6298,-4.6525,-4.6719,-4.6765,-4.6327,-4.692,-4.7484,-4.5885,-4.6337,-4.7231,-4.6194,-4.7033,-4.8332,-4.8852,-5.0547,-5.2311,-5.2776,-5.4196,-5.5503,-5.5503,-5.5728,-5.5765,-5.5057,-5.4121,-5.3786,-5.4988,-5.4764,-5.4802,-5.6144,-5.6107,-5.6055,-5.6689,-5.7034,-5.7466,-5.804,-5.8264,-5.8351,-5.8351,-5.8472,-5.8547,-5.8526,-5.8273,-5.8153,-5.8241,-5.6885,-5.6233,-5.6471,-5.5428,-5.5133,0.0,0.0,0.0,0.0,0.0,0.0,0.0,0.0,0.0,0.0,0.0,0.0,0.0,0.0,0.0,0.0,0.0,0.0,0.0,0.0,0.0,0.0,0.0,0.0,0.0,0.0,-3.6452,-3.6609,-3.7421,-3.8165,-3.8639,-3.8807,-3.9415,-4.0608,-4.1648,-4.2341,-4.2618,-4.3888,-4.4665,-4.4665,-4.4906,-4.5285,-4.5803,-4.5354,-4.537,-4.6118,-4.6095,-4.6358,-4.6908,-4.7346,-4.7913,-4.8634,-4.9387,-4.9884,-5.0304,-5.0858,-4.9899,-4.8044,-4.7937,-4.7901,-4.7866,-4.7937,-4.834,-4.8892,-4.9197,-4.9295,-4.9214,-4.8483,-4.9189,-4.9978,-4.8356,-4.9025,-5.019,-4.9424,-5.0334,-5.1581,-5.1518,-5.317,-5.4787,-5.4753,-5.5876,-5.6887,-5.6815,-5.6815,-5.6779,-5.6594,-5.5771,-5.5433,-5.6369,-5.6071,-5.6033,-5.7113,-5.7041,-5.7125,-5.7734,-5.8099,-5.8514,-5.9177,-5.9261,-5.9302,-5.9302,-5.9668,-5.9761,-5.9469,-5.9487,-5.9404,-5.9133,-5.8064,-5.7699,-5.8247,-5.7211,-5.6791,-5.7038,0.0,0.0,0.0,0.0,0.0,0.0,0.0,0.0,0.0,0.0,0.0,0.0,0.0,0.0,0.0,0.0,0.0,0.0,0.0,0.0,0.0,0.0,0.0,-3.4093,-3.6151,-3.7505,-3.688,-3.8096,-3.9544,-4.0884,-4.1197,-4.2133,-4.4198,-4.432,-4.463,-4.5389,-4.5458,-4.5458,-4.5458,-4.4768,-4.5113,-4.6631,-4.639,-4.6688,-4.7533,-4.8733,-4.8983,-4.8396,-4.9683,-5.0307,-5.035,-5.0919,-5.1191,-5.1191,-5.1191,-5.1191,-5.1191,-5.1117,-5.1003,-5.0925,-5.1119,-5.1306,-5.1452,-5.1836,-5.2006,-5.1893,-5.1029,-5.133,-5.1968,-5.1968,-5.3095,-5.4559,-5.5348,-5.561,-5.561,-5.5575,-5.5648,-5.5685,-5.5685,-5.6361,-5.6926,-5.6706,-5.6743,-5.6706,-5.64,-5.6593,-5.6743,-5.6479,-5.6479,-5.6441,-5.6437,-5.6706,0.0,-5.8614,-5.9037,-5.9742,-6.1003,-6.108,-6.1041,-6.1041,-6.1949,-6.2102,-6.1157,-6.1247,-6.0893,-5.999,-5.9913,-5.9891,-5.9852,-6.0011,-5.8891,-5.6408,0.0,0.0,0.0,0.0,0.0,0.0,0.0,0.0,0.0,0.0,0.0,0.0,0.0,0.0,0.0,0.0,0.0,0.0,0.0,0.0,0.0,0.0,-3.851,-3.83,-3.8459,-3.9267,-4.1138,-4.1242,-4.1712,-4.3232,-4.3404,-4.3888,-4.501,-4.5113,-4.5216,-4.5423,-4.5975,-4.6286,-4.6286,-4.6596,-4.7157,-4.7963,-4.7908,-4.8458,-4.955,-4.9911,-5.0522,-5.1293,-5.1647,-5.1981,-5.2364,-5.2527,-5.261,-5.261,-5.2692,-5.3105,-5.3518,-5.1704,-5.1042,-5.1119,-5.1232,-5.2231,-5.3559,-5.3662,-5.4108,-5.4371,-5.2944,-5.3057,-5.3695,-5.3695,-5.4033,-5.4446,-5.4672,-5.516,-5.5575,-5.554,-5.644,-5.7377,-5.734,-5.7941,-5.8541,-5.8502,-5.8427,-5.824,-5.7752,-5.8232,-5.8525,-5.7818,-5.7909,-5.8293,-5.8957,-5.934,0.0,-6.0035,-6.0349,-6.0963,-6.193,-6.2063,-6.2081,-6.2084,-6.2405,-6.2189,0.0,-6.1191,-6.1113,-6.0788,-6.0208,-5.9589,-5.897,-5.962,-5.9646,0.0,0.0,0.0,0.0,0.0,0.0,0.0,0.0,0.0,0.0,0.0,0.0,0.0,0.0,0.0,0.0,0.0,0.0,0.0,0.0,0.0,0.0,-3.8384,-4.0412,-4.1648,-4.1197,-4.1324,-4.3024,-4.3044,-4.3423,-4.463,-4.4768,-4.4941,-4.5389,-4.5734,-4.5906,-4.5906,-4.6665,-4.7079,-4.7079,-4.7677,-4.8346,-4.8942,-4.9401,-5.0151,-5.1227,-5.1499,-5.1801,-5.2251,-5.2251,-5.2425,0.0,-5.2757,-5.2941,-5.3392,-5.3769,-5.4256,0.0,0.0,0.0,0.0,0.0,-5.4351,-5.546,-5.5388,-5.5726,-5.5948,-5.46,-5.475,-5.546,-5.546,-5.5685,-5.6023,-5.6361,-5.6812,-5.715,-5.7078,-5.7827,-5.8577,-5.8503,-5.884,-5.9177,-5.9139,-5.91,-5.9028,-5.8789,0.0,0.0,-5.9302,-5.9264,-5.9483,-5.9998,-6.038,-6.0589,-6.0635,-6.0943,-6.1348,-6.1888,-6.1944,-6.1961,-6.1965,-6.2327,0.0,0.0,0.0,-6.1715,-6.1697,-6.1232,0.0,0.0,0.0,0.0,0.0,0.0,0.0,0.0,-5.932,-5.9943,0.0,0.0,0.0,0.0,0.0,0.0,0.0,0.0,0.0,0.0,0.0,0.0,0.0,0.0,0.0,0.0,-3.953,-4.1418,-4.3957,-4.3802,-4.3423,-4.3423,-4.4009,-4.4665,-4.5354,-4.5423,-4.5458,-4.5561,-4.6217,-4.6665,-4.6734,0.0,0.0,0.0,0.0,-4.9099,-4.982,-5.0821,-5.1729,-5.2499,-5.2864,-5.2711,-5.1977,-5.2018,-5.2022,-5.2103,-5.2177,-5.2773,-5.3706,-5.4566,-5.5013,-5.5238,-5.5127,-5.5575,-5.6362,-5.663,-5.6855,0.0,0.0,0.0,0.0,-5.6104,-5.644,-5.715,-5.715,-5.76,-5.8276,-5.9065,-5.9215,-5.9178,-5.929,-5.929,-5.9253,-5.9215,-5.9177,-5.9177,-5.9063,-5.914,-5.9289,-5.9412,-5.9862,-6.0316,-6.0457,-6.0349,-6.0238,-6.0238,-6.0479,-6.068,-6.0629,-6.0983,-6.1225,-6.1297,0.0,0.0,-6.1346,-6.2043,-6.2102,-6.1157,-6.189,-6.2352,-6.2352,-6.2352,-6.2022,-6.1297,-6.2113,-6.1419,-5.9102,-6.0705,-6.1139,-6.0448,-6.1134,-6.1472,0.0,0.0,0.0,0.0,0.0,0.0,0.0,0.0,0.0,0.0,0.0,0.0,0.0,0.0,0.0,-3.8913,-4.174,-4.3895,-4.4233,-4.4699,-4.4975,-4.4975,-4.5113,-4.5251,-4.5423,-4.5423,-4.5699,-4.632,-4.6527,-4.6872,-4.7458,-4.8217,0.0,-4.8596,-4.9707,-5.0629,-5.1236,-5.1874,-5.2445,-5.306,0.0,0.0,-5.1977,-5.2063,-5.2103,-5.214,-5.2803,-5.3662,-5.464,-5.4825,-5.5916,-5.7304,-5.6441,-5.6215,-5.6478,-5.7265,-5.7679,-5.7827,-5.7716,-5.8203,-5.8689,-5.7865,-5.8127,-5.884,-5.884,-5.8502,0.0,-5.9065,-5.884,-5.8465,-5.9028,-5.9215,-5.9215,-5.9177,-5.9253,-5.9253,-5.9253,-5.9467,-5.957,-5.9178,-5.9906,-6.0303,-5.9326,-6.0184,-6.1039,-6.1148,-6.1181,-6.1003,-6.0289,-6.0848,-6.1291,-6.1297,-6.1862,-6.2233,-6.2236,-6.2391,-6.2102,-6.1157,-6.1273,-6.1369,-6.1369,-6.1369,-6.1328,-6.122,-6.1391,-6.1313,-6.0993,-6.1328,-6.144,-6.1364,-6.1471,-6.1588,0.0,0.0,0.0,0.0,0.0,0.0,0.0,0.0,0.0,0.0,0.0,-3.6431,0.0,0.0,-4.0389,-4.0954,-4.3069,-4.4744,-4.4854,-4.5182,-4.5423,-4.5423,-4.5768,-4.601,-4.601,-4.6355,-4.6734,-4.7148,-4.7493,-4.7872,-4.8252,-4.901,-4.9504,-4.9806,-5.0699,-5.1449,-5.203,-5.21,-5.2352,-5.2601,-5.2242,-5.1838,-5.147,-5.2324,-5.2512,-5.2257,-5.3433,-5.399,-5.4266,-5.5241,-5.6815,-5.854,-5.8014,-5.7827,-5.7903,-5.839,-5.8615,-5.869,-5.8578,-5.8615,-5.8689,-5.8653,-5.869,-5.8764,-5.9178,-5.9027,-5.8802,-5.9178,-5.8953,-5.8765,-5.9103,-5.9177,-5.9215,-5.9253,-5.929,-5.9364,-5.9502,-5.9734,-5.9807,-5.9379,-5.9798,-5.9919,-5.8954,-5.9474,-6.0017,-6.0085,-6.0123,-5.9939,-5.9483,-5.9762,-6.0002,-5.9968,-6.03,-6.0571,-6.0536,-6.0961,-6.1,-6.0538,-6.0886,-6.1118,-6.1118,-6.1134,-6.1169,-6.1181,-6.1298,-6.1421,-6.1484,-6.1985,-6.2201,-6.227,-6.2659,-6.2387,0.0,0.0,0.0,0.0,0.0,0.0,0.0,0.0,-3.7221,-3.835,-3.9167,-3.9618,-3.9517,-4.1002,-4.2412,-4.2924,-4.413,-4.5107,-4.5372,-4.5561,-4.5665,-4.5665,-4.6217,-4.6665,-4.6857,-4.7355,-4.7769,-4.7907,-4.8493,-4.8872,-4.9045,-4.9746,-5.0341,-5.0803,-5.1398,-5.1874,-5.219,-5.206,-5.1977,-5.2018,-5.2063,-5.1772,-5.1182,-5.2655,-5.2991,-5.2555,-5.4137,-5.4511,-5.4152,-5.5953,-5.7677,-5.9215,-5.9027,-5.9028,-5.9028,-5.899,-5.9028,-5.9065,-5.8803,-5.8316,-5.794,-5.8578,-5.8353,-5.8014,-5.8652,-5.8952,-5.9028,-5.899,-5.9065,-5.9177,-5.9177,-5.9215,-5.929,-5.9364,-5.9321,-5.9311,-5.9589,-5.9722,-5.9664,-5.9415,-5.9455,-5.9326,-5.8672,-5.8583,-5.8609,-5.8764,-5.8814,-5.8707,-5.8467,-5.859,-5.8618,-5.8372,-5.8488,-5.8604,-5.8604,-5.9223,-5.9648,-5.9648,-6.0383,-6.0866,-6.0884,-6.1264,-6.1485,-6.15,-6.1823,-6.199,-6.2001,-6.2756,-6.3127,-6.3166,-6.3789,-6.34,-3.4018,0.0,0.0,-3.6555,-3.7572,-3.8758,0.0,0.0,-4.0141,-4.03,-4.0674,-4.114,-4.1537,-4.2619,-4.3522,-4.3825,-4.5093,-4.59,-4.5441,-4.6044,-4.6493,-4.6493,-4.6562,-4.6892,-4.7711,-4.772,-4.7976,-4.8665,-4.8769,-4.9114,-4.9838,-5.0418,-5.0749,-5.0803,-5.175,-5.1999,-5.1357,-5.1804,-5.2018,-5.2103,-5.2059,-5.1985,-5.1992,-5.2876,-5.3244,-5.3322,-5.5151,-5.594,-5.606,-5.7189,-5.8278,-5.9178,-5.8428,-5.8166,-5.8091,-5.7862,-5.7978,-5.809,-5.7192,-5.6967,-5.7037,-5.715,-5.7112,-5.7037,-5.715,-5.7565,-5.8053,-5.8053,-5.8615,-5.9177,-5.9024,-5.9215,-5.9434,-5.9601,-5.9285,-5.9015,-5.9192,-5.8984,-5.8722,-5.8624,-5.8761,-5.8648,-5.7884,-5.7663,-5.7921,-5.8683,-5.8799,-5.8498,-5.7644,-5.8209,-5.8385,-5.7521,-5.8139,-5.8604,-5.8604,-5.8681,-5.8758,-5.8758,-5.9568,-6.0085,-6.0118,-6.1601,-6.2493,-6.2627,-6.3339,-6.3764,-6.3818,-6.3906,-6.3984,-6.3984,-6.4062,-6.3984,-3.8401,0.0,0.0,0.0,-4.0486,-4.1482,-4.1845,-4.2006,-4.2427,-4.3751,-4.4532,-4.4975,-4.4929,-4.5581,-4.6091,0.0,-4.6543,-4.6743,-4.6549,-4.6795,-4.7247,-4.7969,-4.7962,-4.801,-4.8377,-4.8769,-4.9183,-4.9493,-4.9528,-4.9803,-5.0453,-5.064,-5.1123,-5.1701,-5.2173,-5.24,-5.2339,-5.259,-5.2674,-5.2757,-5.3235,-5.3461,-5.3539,-5.4865,-5.5625,-5.5896,-5.5902,-5.6557,-5.7538,-5.7106,-5.7565,-5.8465,-5.7529,-5.7192,-5.7192,-5.7041,-5.7079,-5.7155,-5.6818,-5.6405,-5.6178,-5.6737,-5.6549,-5.6249,-5.6737,-5.7076,-5.7415,-5.7791,-5.824,-5.8689,-5.9103,-5.9093,-5.9014,-5.9209,-5.8786,-5.8424,-5.8715,-5.8645,-5.8424,-5.8041,-5.8037,-5.7806,-5.6925,-5.6756,-5.6844,-5.7188,-5.7211,-5.7095,-5.6698,-5.6953,-5.6958,-5.6592,-5.7362,-5.7921,-5.7921,-5.8828,-5.9426,-5.9426,-6.0234,-6.0732,-6.0748,-6.1536,-6.2225,-6.2807,-6.3153,-6.3614,-6.4101,-6.4608,-6.488,-6.488,-6.5387,-6.5621,-4.0414,0.0,0.0,-4.2043,-4.3334,-4.4325,-4.4471,-4.4513,-4.5011,-4.6651,-4.7532,-4.7924,-4.7572,-4.7754,0.0,-4.7679,-4.7687,-4.7698,-4.7581,-4.7894,-4.8397,-4.9164,-4.9423,-4.9472,-4.934,-4.978,-5.0068,-5.0206,-5.0092,-5.032,-5.0964,-5.1017,-5.1449,-5.2361,-5.2545,-5.2806,-5.3225,-5.3225,-5.3298,-5.3561,-5.4375,-5.4822,-5.4901,-5.625,-5.7005,-5.7217,-5.6434,-5.6873,-5.8127,-5.71,-5.7299,-5.8165,-5.7005,-5.6556,-5.6481,-5.5995,-5.5996,-5.622,-5.6033,-5.5656,-5.5355,-5.6215,-5.6101,-5.569,-5.6326,-5.6628,-5.6928,-5.7454,-5.7901,-5.8384,-5.9139,-5.9067,-5.8825,-5.8939,-5.8347,-5.785,-5.8157,-5.8054,-5.7776,-5.7313,-5.721,-5.7003,-5.6301,-5.617,-5.6218,-5.6427,-5.6449,-5.6449,-5.6449,-5.6609,-5.6708,-5.6725,-5.734,-5.776,-5.776,-5.8916,-5.963,-5.963,-6.0492,-6.0949,-6.0963,-6.1525,-6.2157,-6.2791,-6.3107,-6.3634,-6.4452,-6.5075,-6.5504,-6.5777,-6.64,-6.6712,0.0,0.0,-4.1156,-4.3527,-4.5565,-4.6977,-4.7005,-4.7579,-4.8181,-4.8257,-4.852,-4.8779,-4.8744,-4.8421,-4.8119,-4.7846,-4.8333,-4.8663,-4.8398,-4.9496,-5.0154,-4.9662,-5.0748,-5.1312,0.0,-5.0285,-5.0206,-5.0749,-5.032,-5.0453,-5.15,-5.1551,-5.1799,-5.2361,-5.2893,-5.3182,-5.3225,-5.3225,-5.3597,-5.446,-5.522,-5.5662,-5.5785,-5.6328,-5.6337,-5.5896,-5.65,-5.7051,-5.7509,-5.7513,-5.808,-5.8798,-5.7076,-5.6403,-5.6217,-5.4501,-5.4466,-5.5212,-5.4427,-5.4237,-5.4458,-5.5282,-5.5544,-5.5507,-5.5544,-5.6033,-5.6631,-5.6853,-5.7488,-5.8314,-5.925,-5.9235,-5.9022,-5.9152,-5.8238,-5.7373,-5.7585,-5.6952,-5.6356,-5.6251,-5.6238,-5.6223,-5.6194,-5.6149,-5.6388,-5.724,-5.7306,-5.725,-5.725,-5.7985,-5.8544,-5.8596,-5.8635,-5.8651,-5.8661,-5.87,-5.8738,-5.8738,-5.9629,-6.0151,-6.0151,-6.1807,-6.2785,-6.2893,-6.3672,-6.4491,-6.5348,-6.5387,-6.5816,-6.6673,-6.6673,-6.6712,0.0,0.0,-4.5115,-4.6561,-4.8294,-4.9625,-4.9625,-4.9792,-5.0101,-5.0666,-4.9496,-4.8333,-4.81,-4.7556,-4.7013,-4.6617,-4.8194,-4.9464,-4.9466,-5.0344,-5.094,-5.0936,-5.1358,0.0,0.0,0.0,0.0,-5.1296,-5.114,-5.1347,-5.209,-5.2126,-5.2361,-5.2893,-5.3616,-5.3995,-5.3995,-5.506,-5.5721,-5.6022,-5.6785,-5.7234,-5.7405,-5.7573,-5.7537,-5.7405,-5.7795,-5.8036,-5.8132,-5.7654,-5.7739,-5.797,-5.6772,-5.6323,-5.6174,-5.5135,-5.5247,-5.5769,-5.454,-5.4501,-5.5023,-5.5396,-5.5808,-5.6145,-5.5658,-5.6106,-5.6815,-5.692,-5.7695,-5.8543,-5.9001,-5.8776,-5.8389,-5.7986,-5.7246,-5.6626,-5.6678,-5.6446,-5.6251,-5.6209,-5.6194,-5.6373,-5.6924,-5.6969,-5.7224,-5.8058,-5.8196,-5.8178,-5.8178,-5.841,-5.8621,-5.8673,-5.921,-5.9591,-5.9638,-6.0148,-6.0487,-6.0487,-6.0825,-6.1028,-6.1039,-6.1656,-6.2299,-6.2893,-6.3166,-6.3711,-6.453,-6.453,-6.527,-6.6712,-6.6693,-6.7628,-4.2104,-4.4946,-4.7379,-4.9198,-5.05,-5.1322,-5.1322,-5.1261,-5.1381,-5.1876,-4.9934,-4.8084,-4.7858,-4.6738,-4.5711,-4.5244,-4.7091,-4.8715,-4.9336,-5.0301,-5.1285,-5.2197,-5.2474,0.0,0.0,0.0,0.0,-5.1933,-5.1951,-5.222,-5.2672,-5.2499,-5.259,-5.3103,-5.3952,-5.4546,-5.4759,-5.6116,-5.6932,-5.7226,-5.7785,-5.8088,-5.8179,-5.8179,-5.8223,-5.8312,-5.8363,-5.8449,-5.8535,-5.8099,-5.7959,-5.7888,-5.7066,-5.6729,-5.6617,-5.5879,-5.5916,-5.6176,-5.4951,-5.5025,-5.5772,-5.6108,-5.6407,-5.6482,-5.5996,-5.6331,-5.6922,-5.6955,-5.7597,-5.8334,-5.8816,-5.8385,-5.7718,-5.7273,-5.6761,-5.6278,-5.6213,-5.6199,-5.6185,-5.6164,-5.6668,-5.7234,-5.7727,-5.8562,-5.9374,-5.988,-6.0228,-6.0074,-5.9184,-5.9357,-5.9547,-5.962,-6.0134,-6.0492,-6.0561,-6.1097,-6.1396,-6.1396,-6.1456,-6.1489,-6.1489,-6.1559,-6.1841,-6.2426,-6.2737,-6.3283,-6.4101,-6.4725,-6.5738,-6.7151,-6.7491,-6.8544,-4.573,-4.7307,-4.819,-5.1381,-5.2134,-5.2102,-5.2102,-5.2102,-5.2065,-5.1952,-4.9865,-4.7978,0.0,0.0,-4.4429,-4.4029,-4.5416,-4.7016,-4.8457,-4.9878,-5.1456,0.0,0.0,0.0,0.0,0.0,0.0,-5.2707,0.0,-5.3003,-5.3256,-5.2717,-5.2627,-5.3054,-5.3989,-5.4796,-5.5432,-5.641,-5.7262,-5.7997,-5.8133,-5.8179,-5.826,-5.8223,-5.8312,-5.8492,-5.8363,-5.8449,-5.8698,-5.8698,-5.8698,-5.8624,-5.7881,-5.7583,-5.7472,-5.6655,-5.6437,-5.6403,-5.566,-5.5883,-5.659,-5.7372,-5.7189,-5.663,-5.6517,-5.6706,-5.696,-5.7024,-5.7377,-5.7919,-5.8727,-5.8104,-5.7271,-5.725,-5.68,-5.6356,-5.6315,-5.6354,-5.6364,-5.6327,-5.7666,-5.8772,-5.8815,-6.0847,-6.2472,-6.2472,-6.3168,-6.282,-6.0344,-6.0768,-6.1363,-6.1375,-6.1368,-6.1376,-6.1444,-6.1421,-6.1396,-6.1408,-6.1468,-6.1528,-6.1567,-6.1637,-6.1724,-6.1802,-6.262,-6.3439,-6.4257,-6.5894,-6.716,-6.8076,-6.8943,-6.938,-4.6742,-4.9416,-5.197,-5.2774,-5.3414,-5.3865,-5.3865,-5.38,-5.3278,-5.15,-4.8977,-4.6539,0.0,0.0,0.0,-4.472,-4.8333,0.0,-5.2114,-5.3027,0.0,0.0,0.0,-5.531,-5.5404,-5.608,0.0,0.0,-5.4318,-5.3989,-5.4106,-5.331,-5.323,-5.4026,-5.4789,-5.5558,-5.6447,-5.7299,-5.7867,-5.8231,-5.8223,-5.8312,-5.8572,-5.8486,-5.8529,-5.8656,-5.8614,-5.8656,-5.8698,-5.8698,-5.8698,-5.8698,-5.8475,-5.8401,-5.8289,-5.7553,-5.7627,-5.7996,-5.726,-5.7111,-5.7335,-5.7637,-5.756,-5.7295,-5.7604,-5.7715,-5.7745,-5.7522,-5.8482,-5.9278,-5.7978,-5.7931,-5.8041,-5.7606,-5.7324,-5.7363,-5.7955,-5.8529,-5.8961,-5.8949,-6.0285,-6.1446,-6.1427,-6.2511,-6.3362,-6.3362,-6.3555,-6.3265,-6.1986,-6.2548,-6.2838,-6.225,-6.2189,-6.2238,-6.2298,-6.1784,-6.1484,-6.1468,-6.1539,-6.187,-6.2533,-6.2581,-6.3166,-6.4413,-6.4647,-6.5192,-6.605,-6.6459,-6.7491,-6.8973,-6.9241,-7.0375,-4.8926,-5.1268,-5.3408,-5.3752,-5.4134,-5.4209,-5.3118,-5.2822,-5.2145,-4.9725,-4.7057,0.0,0.0,0.0,0.0,0.0,0.0,0.0,-5.2149,-5.2909,-5.4075,0.0,-5.6124,0.0,-5.6602,-5.7042,-5.7152,0.0,-5.5904,-5.5089,-5.4349,-5.4159,-5.4115,-5.4232,-5.5322,-5.6356,-5.7336,-5.7776,-5.8088,-5.8268,-5.8268,-5.84,-5.8614,-5.8614,-5.8614,-5.8698,0.0,-5.8698,-5.8698,-5.8698,-5.8698,-5.8698,-5.8698,-5.8698,-5.8661,-5.8219,-5.833,-5.8624,-5.8219,-5.8074,-5.8074,-5.8191,-5.797,-5.7711,-5.7903,-5.8194,-5.8413,-5.8196,-5.9063,-5.9765,-5.8607,-5.8463,-5.8545,-5.8192,-5.8115,-5.8202,-5.8568,-5.931,-6.0244,-6.1369,-6.2317,-6.3207,-6.3942,-6.4483,-6.4793,-6.4793,-6.4793,-6.4503,-6.3708,-6.3726,-6.3589,-6.3136,-6.3162,-6.3206,-6.3249,-6.2872,-6.2647,-6.2619,-6.2689,-6.3088,-6.3945,-6.3984,-6.4803,-6.6517,-6.6917,-6.755,-6.8408,-6.9177,-6.9857,-7.045,-7.0855,-7.1584,-5.1306,-5.2709,-5.3541,-5.4284,-5.4439,-5.3804,-5.135,-5.0785,-5.0026,-4.7287,0.0,-4.3127,-4.2762,0.0,-4.3174,-4.3144,0.0,-4.8713,-5.1077,-5.1903,-5.3426,-5.65,-5.6895,-5.7226,-5.7923,-5.7997,-5.7997,-5.7997,-5.7336,-5.6263,-5.4627,-5.5176,-5.524,-5.4529,-5.6081,-5.7317,-5.7997,-5.7997,-5.8088,-5.8223,-5.8349,-5.8443,-5.8572,-5.8656,-5.8698,-5.8698,0.0,0.0,-5.8698,-5.8698,-5.8698,-5.8698,-5.8698,-5.8698,-5.8698,-5.8698,-5.8698,-5.8698,-5.8698,-5.8698,-5.8698,-5.8698,-5.8343,-5.7903,-5.8016,-5.8434,-5.8883,-5.8911,-5.9388,-5.9841,-5.9645,-5.9297,-5.8958,-5.8954,-5.894,-5.9002,-5.9077,-5.9913,-6.125,-6.3574,-6.4019,-6.4483,-6.5953,-6.6185,-6.6185,-6.6185,-6.6185,-6.5935,-6.5257,-6.4593,-6.4194,-6.4077,-6.4181,-6.4247,-6.4247,-6.4282,-6.4254,-6.4265,-6.4364,-6.4842,-6.5699,-6.5855,-6.6751,-6.8465,-6.9353,-7.0268,-7.1126,-7.2626,-7.2924,-7.208,-7.2798,-7.2692,-5.1845,-5.3085,-5.4284,-5.4368,-5.4409,-5.3804,-5.135,-5.0785,0.0,0.0,0.0,-4.2709,-4.0553,-4.1815,0.0,-4.5767,0.0,0.0,0.0,0.0,-5.5817,0.0,0.0,0.0,0.0,0.0,0.0,0.0,0.0,0.0,-5.6373,-5.6356,-5.6603,-5.7105,-5.8197,-5.85,-5.7997,-5.8088,-5.8268,-5.8486,-5.8486,-5.8614,-5.8818,-5.8739,-5.8698,-5.8698,0.0,0.0,-5.8698,-5.8698,-5.8698,-5.8698,-5.8698,-5.8698,-5.8698,-5.8698,-5.8777,-5.8859,-5.8739,-5.8777,-5.8859,-5.8859,-5.8383,-5.8016,-5.9114,-5.9178,-5.8939,-5.9425,-6.0113,-6.0497,-5.9289,-5.9396,-5.9886,-5.9886,-5.9785,-6.0085,-6.15,-6.3013,-6.4464,-6.5528,-6.576,-6.5876,-6.6147,-6.6185,-6.6185,-6.6185,-6.6185,-6.6187,-6.6087,-6.595,-6.5635,-6.497,-6.5008,-6.5077,-6.5103,-6.5139,-6.5161,-6.5182,-6.5855,-6.6634,-6.753,-6.8252,-6.9431,-7.1185,-7.2071,-7.2947,-7.3835,-7.4133,-7.3836,-7.2977,-7.3111,-7.2734,-5.1925,-5.3466,-5.5044,-5.501,-5.5385,-5.4631,-5.0478,0.0,0.0,0.0,0.0,-3.9827,-3.894,0.0,0.0,0.0,0.0,0.0,0.0,0.0,0.0,0.0,0.0,0.0,0.0,0.0,0.0,0.0,0.0,0.0,-5.6731,-5.7052,-5.7591,-5.8396,-5.893,-5.8804,-5.7997,-5.8133,-5.8268,-5.8443,-5.8486,-5.8614,-5.8818,-5.8698,-5.8698,-5.8698,-5.8698,0.0,-5.8698,-5.8698,-5.8698,-5.8698,-5.8698,-5.8698,-5.8698,-5.8698,-5.8739,-5.8818,-5.8698,-5.8821,-5.8942,-5.8942,-5.8762,-5.8764,-5.9614,-5.9827,-5.9843,-6.0248,-6.0765,-6.1042,-6.0289,-6.0405,-6.0724,-6.0677,-6.0919,-6.1697,-6.34,-6.4426,-6.5218,-6.6031,-6.6185,-6.6185,-6.6185,-6.6185,-6.6185,-6.6185,-6.6632,-6.6786,-6.6338,-6.716,-6.7495,-6.6655,-6.6646,-6.6891,-6.7331,-6.7431,-6.7442,-6.7413,-6.7803,-6.8671,-6.9967,-7.0445,-7.1672,-7.3904,-7.4359,-7.4991,-7.585,-7.5833,-7.5149,-7.3881,-7.3866,-7.316,-5.1963,-5.3733,-5.546,-5.5798,-5.6249,-5.5119,-4.9445,-4.7476,0.0,0.0,-3.7687,-3.7286,-3.7779,0.0,-4.1334,0.0,0.0,0.0,0.0,0.0,0.0,0.0,0.0,0.0,0.0,0.0,0.0,0.0,0.0,0.0,-5.7418,-5.8004,-5.8736,-5.9542,-5.9674,-5.9245,-5.8207,-5.8391,-5.8452,-5.8349,-5.8486,-5.8614,-5.8698,-5.8698,-5.8698,-5.8698,-5.8656,0.0,0.0,-5.8614,-5.8614,-5.8656,-5.8656,-5.8656,-5.8698,-5.8698,-5.8698,-5.8739,-5.8698,-5.8862,-5.9063,-5.9102,-5.929,-5.954,-5.9954,-6.0367,-6.0762,-6.1002,-6.1236,-6.1352,-6.1322,-6.1306,-6.1314,-6.1423,-6.2065,-6.3091,-6.4638,-6.5141,-6.545,-6.6069,-6.6185,-6.6185,-6.6185,-6.6185,-6.6263,-6.6476,-6.7135,-6.7441,-6.6972,-6.8263,-6.9007,-6.8514,-6.8366,-6.8543,-6.9245,-6.9479,-6.9596,-6.9596,-6.9751,-7.0541,-7.2092,-7.2374,-7.3514,-7.5764,-7.5982,-7.6418,-7.7121,-7.7089,-7.618,-7.4489,-7.449,-7.3579,-5.2076,-5.377,-5.4897,-5.6399,-5.6249,-5.4255,-4.8587,0.0,0.0,-3.8622,-3.7338,-3.7212,-3.7055,-3.7766,-3.9186,0.0,-4.2835,-4.5258,0.0,0.0,0.0,0.0,0.0,0.0,0.0,0.0,0.0,0.0,0.0,0.0,0.0,-6.0126,-6.0566,-6.1337,-6.1374,-6.0591,-5.8908,-5.9283,-5.905,-5.8223,-5.8529,-5.8698,-5.8698,-5.8698,-5.8698,-5.8698,0.0,0.0,0.0,-5.848,-5.8443,-5.8492,-5.8492,-5.8614,-5.8698,-5.8698,-5.8777,-5.8859,-5.8739,-5.8902,-5.9253,-5.9534,-5.9798,-5.9985,-6.0261,-6.0635,-6.102,-6.1268,-6.1337,-6.1322,-6.1283,-6.1259,-6.1384,-6.2143,-6.2936,-6.3826,-6.4793,-6.5566,-6.6108,-6.6185,-6.6185,-6.6185,-6.6185,-6.6185,-6.6476,-6.7329,-6.756,-6.7903,-6.8715,-6.9045,-6.9487,-7.0286,-6.9634,-6.9206,-6.9284,-7.0024,-7.0492,-7.0492,-7.1154,-7.2022,-7.3027,-7.3835,-7.4749,-7.5787,-7.6581,-7.7023,-7.7101,-7.7082,-7.6209,-7.4489,-7.4492,-7.3552,-5.0873,-5.2644,-5.3846,-5.4484,-5.3691,-5.1581,-4.741,0.0,-4.1693,-3.7288,-3.6023,-3.5769,-3.6,-3.6323,-3.7154,-3.91,-4.098,-4.2999,-4.5263,0.0,0.0,0.0,0.0,0.0,0.0,0.0,0.0,0.0,0.0,0.0,0.0,-6.0419,-6.0786,-6.1557,-6.1739,-6.1235,-5.9989,-5.9841,-5.9566,-5.9176,-5.8874,-5.8698,-5.8698,-5.8698,-5.8656,-5.8572,0.0,0.0,0.0,-5.8437,-5.8437,-5.8443,-5.8486,-5.8492,-5.8614,-5.8656,-5.8698,-5.8818,-5.8862,-5.914,-5.9537,-5.9798,-6.0207,-6.0612,-6.074,-6.0866,-6.1077,-6.1337,-6.1352,-6.1322,-6.1291,-6.1595,-6.2143,-6.2975,-6.3864,-6.4715,-6.5528,-6.5953,-6.6185,-6.6185,-6.6205,-6.6264,-6.6185,-6.6671,-6.7174,-6.756,-6.8541,-6.9259,-6.9162,-7.0122,-7.0703,-7.0609,-7.0297,-7.0258,-7.0765,-7.1115,-7.131,-7.131,-7.215,-7.3066,-7.3952,-7.4827,-7.5709,-7.6581,-7.69,-7.7095,-7.7082,-7.6566,-7.5655,-7.4414,-7.3942,-7.3065,-4.9213,-5.1399,-5.2907,-5.3433,-5.1995,-4.9544,0.0,0.0,-3.9679,-3.6167,-3.4996,-3.4705,-3.5045,-3.533,-3.5925,-3.7299,-3.9249,-4.1043,-4.2358,-4.5564,0.0,0.0,0.0,0.0,0.0,0.0,0.0,0.0,0.0,0.0,0.0,-6.0419,-6.0896,-6.1924,-6.2203,-6.1929,-6.0893,-6.0752,-6.0432,-6.0078,-5.9393,-5.9027,-5.9027,-5.8768,-5.8572,-5.8486,0.0,0.0,0.0,-5.8305,-5.8349,-5.8393,-5.8443,-5.8529,-5.8572,-5.8739,-5.8781,-5.8862,-5.9102,-5.9465,-5.9823,-6.0122,-6.0565,-6.1002,-6.1095,-6.1095,-6.1131,-6.1322,-6.1322,-6.1275,-6.1225,-6.1831,-6.2627,-6.3478,-6.4367,-6.5218,-6.6031,-6.6185,-6.6185,-6.6185,-6.6264,-6.6264,-6.6185,-6.698,-6.7713,-6.7963,-6.9399,-7.0304,-7.0019,-7.1042,-7.1583,-7.0998,-7.0959,-7.1193,-7.1739,-7.1817,-7.1817,-7.1817,-7.2667,-7.3592,-7.4468,-7.535,-7.6223,-7.7062,-7.7095,-7.6978,-7.6711,-7.6075,-7.5194,-7.4015,-7.3462,-7.2739,-4.724,-5.0084,-5.2306,-5.3958,-5.1925,-4.8679,0.0,0.0,-3.881,-3.534,-3.462,-3.4517,-3.4264,-3.4922,-3.5776,-3.6556,-3.7411,-3.9055,-4.2236,-4.4124,0.0,0.0,0.0,0.0,0.0,0.0,0.0,0.0,0.0,0.0,0.0,-6.0419,-6.1153,-6.2768,-6.3051,-6.2645,-6.1594,-6.2114,-6.1834,-6.0757,-6.0166,-5.9838,-5.9752,-5.89,-5.8443,0.0,0.0,0.0,0.0,-5.8042,-5.8133,-5.8393,-5.8393,-5.8523,-5.8698,-5.8905,-5.8984,-5.9063,-5.9534,-5.983,-6.0065,-6.0535,-6.0828,-6.102,-6.1236,-6.1322,-6.1322,-6.1283,-6.1259,-6.1173,-6.1137,-6.1737,-6.2627,-6.3478,-6.4367,-6.5218,-6.6031,-6.6185,-6.6185,-6.6185,-6.6185,-6.6185,-6.6185,-6.698,-6.7924,-6.8851,-6.9779,-7.072,-7.1641,-7.1794,-7.1817,-7.1778,-7.1778,-7.1778,-7.1817,-7.1817,-7.1817,-7.1817,-7.2667,-7.3592,-7.4468,-7.535,-7.6223,-7.7062,-7.7082,-7.6677,-7.5816,-7.5724,-7.4842,-7.3203,-7.3186,-7.2752,-4.334,-4.467,-4.5396,-4.5923,-4.4056,-4.1769,-4.0774,-3.8395,-3.6033,-3.4851,-3.4517,-3.4427,-3.4203,-3.4439,-3.502,-3.6232,-3.6639,-3.7534,0.0,0.0,0.0,0.0,0.0,0.0,0.0,0.0,0.0,0.0,0.0,0.0,0.0,0.0,-6.125,-6.3014,-6.3326,-6.3317,-6.3103,-6.2768,-6.2439,-6.2004,-6.0543,-5.9832,-5.9789,-5.885,0.0,0.0,0.0,0.0,0.0,-5.8133,-5.826,-5.8393,-5.8443,-5.8529,-5.8614,-5.8865,-5.8984,-5.9101,-5.9701,-6.0065,-6.0341,-6.0766,-6.1057,-6.1268,-6.1283,-6.1283,-6.1306,-6.1242,-6.1208,-6.1173,-6.1137,-6.2201,-6.3362,-6.3632,-6.4793,-6.5876,-6.6147,-6.6185,-6.6185,-6.6185,-6.6284,-6.634,-6.6301,-6.757,-6.8754,-6.9094,-7.0395,-7.1459,-7.1755,-7.1817,-7.1817,-7.1817,-7.1817,-7.1817,-7.1817,-7.1817,-7.2061,-7.2706,-7.3534,-7.4411,-7.535,-7.6162,-7.6755,-7.7082,-7.7067,-7.6614,-7.5724,-7.5113,-7.3939,-7.2307,-7.2885,-7.3002,-4.0146,-4.1505,-4.2197,-4.2197,-4.0396,-3.8568,-3.8524,-3.6599,-3.4747,-3.4561,-3.4473,-3.4381,-3.4203,-3.4476,-3.5032,-3.6113,-3.6564,-3.7529,0.0,0.0,0.0,0.0,0.0,0.0,0.0,0.0,0.0,0.0,0.0,0.0,0.0,0.0,-6.154,-6.3648,-6.3956,-6.4093,-6.4264,-6.4128,-6.3867,-6.3482,-6.1923,-6.0781,-6.0152,-5.925,0.0,0.0,0.0,0.0,0.0,-5.826,-5.8349,-5.8443,-5.8572,-5.8619,-5.8743,-5.9178,-5.9361,-5.9465,-6.0151,-6.0493,-6.0657,-6.102,-6.1252,-6.1352,-6.1306,-6.1291,-6.1259,-6.1173,-6.1155,-6.1232,-6.1505,-6.2646,-6.3806,-6.4116,-6.5238,-6.6205,-6.6185,-6.6205,-6.6264,-6.6264,-6.6573,-6.6877,-6.6838,-6.835,-6.9589,-6.9656,-7.0862,-7.1794,-7.1817,-7.1817,-7.1817,-7.1817,-7.1817,-7.1817,-7.1817,-7.1817,-7.2178,-7.3095,-7.3924,-7.4801,-7.5725,-7.6583,-7.7012,-7.7059,-7.7036,-7.6404,-7.5225,-7.4019,-7.3075,-7.2374,-7.2881,-7.331,0.0,-3.9958,-4.1693,-4.1669,-3.9981,-3.8282,-3.8169,-3.6384,0.0,-3.445,-3.4381,-3.4335,-3.4179,-3.486,-3.5636,-3.6168,-3.6912,0.0,0.0,0.0,0.0,0.0,0.0,0.0,0.0,0.0,0.0,0.0,0.0,0.0,0.0,0.0,-6.1985,-6.453,-6.4856,-6.5031,-6.5084,-6.5829,-6.5829,-6.5084,-6.3993,-6.2549,-6.0831,-6.0055,0.0,0.0,0.0,0.0,0.0,-5.8349,-5.8443,-5.8535,-5.8784,-5.8945,-5.914,-5.9798,-6.0044,-6.0132,-6.0783,-6.1002,-6.1039,-6.1322,-6.1352,-6.1306,-6.1314,-6.1264,-6.1173,-6.1137,-6.1118,-6.1311,-6.2162,-6.309,-6.3999,-6.4812,-6.5683,-6.6284,-6.6205,-6.6284,-6.6303,-6.6303,-6.7092,-6.7687,-6.7704,-6.9196,-7.0408,-7.0408,-7.1198,-7.1817,-7.1817,-7.1817,-7.1817,-7.1817,-7.1817,-7.1817,-7.1817,-7.1817,-7.2206,-7.3142,-7.3953,-7.4821,-7.5757,-7.6565,-7.7004,-7.7012,-7.6878,-7.6009,-7.4411,-7.2723,-7.2296,-7.3103,-7.3232,-7.3729,-3.5067,0.0,-3.6591,-3.6545,-3.6109,-3.5656,0.0,-3.4952,-3.4473,-3.4427,-3.4216,-3.4016,-3.3991,-3.4458,-3.5067,-3.5665,0.0,0.0,0.0,0.0,0.0,0.0,0.0,0.0,0.0,0.0,0.0,0.0,0.0,0.0,0.0,0.0,-6.253,-6.4707,-6.6017,-6.6528,-6.6075,-6.6172,-6.6044,-6.5766,-6.4668,-6.3221,-6.154,-6.0729,0.0,0.0,0.0,0.0,-5.8443,-5.8486,-5.8656,-5.8905,-5.9178,-5.9357,-5.9601,-6.0122,-6.0315,-6.0367,-6.0825,-6.1002,-6.1039,-6.1322,-6.1337,-6.1314,-6.1297,-6.1264,-6.1173,-6.1137,-6.1118,-6.1311,-6.2162,-6.3071,-6.3923,-6.4793,-6.5683,-6.6303,-6.6284,-6.6322,-6.6358,-6.6358,-6.7144,-6.779,-6.7782,-6.9292,-7.0485,-7.0547,-7.126,-7.1817,-7.1817,-7.1817,-7.1817,-7.1817,-7.1817,-7.1817,-7.1817,-7.1817,-7.2451,-7.3992,-7.4294,-7.5084,-7.6643,-7.6887,-7.6995,-7.699,-7.5703,-7.4826,-7.4384,-7.2704,-7.2296,-7.313,-7.3815,-7.456,-3.3991,-3.4213,-3.4486,-3.4458,-3.4413,-3.4367,-3.4213,-3.4117,-3.408,-3.403,-3.3913,-3.3917,-3.4392,-3.5064,0.0,0.0,-3.8109,0.0,0.0,0.0,0.0,0.0,0.0,0.0,0.0,0.0,0.0,0.0,0.0,0.0,0.0,0.0,-6.3595,-6.5774,-6.6844,-6.7244,-6.6941,-6.7086,-6.703,-6.6705,-6.5508,-6.3836,-6.1882,-6.1071,0.0,0.0,0.0,0.0,-5.8492,-5.8572,-5.8828,-5.9215,-5.9427,-5.9722,-6.0056,-6.0517,-6.0696,-6.0702,-6.1077,-6.1148,-6.1148,-6.1322,-6.1306,-6.1297,-6.1281,-6.1247,-6.1173,-6.1137,-6.1118,-6.1389,-6.2665,-6.3381,-6.4058,-6.5257,-6.5974,-6.634,-6.6303,-6.6358,-6.6528,-6.695,-6.779,-6.8564,-6.8994,-7.0161,-7.1104,-7.1154,-7.1505,-7.1817,-7.1817,-7.1817,-7.1817,-7.1817,-7.1817,-7.1817,-7.1817,-7.1817,-7.2529,-7.4294,-7.44,-7.5179,-7.6926,-7.6985,-7.7017,-7.6992,-7.5294,-7.4584,-7.4966,-7.3271,-7.3064,-7.4197,-7.4717,-7.539,-3.3643,-3.4127,-3.4559,-3.4067,-3.3906,-3.3828,-3.3733,-3.368,-3.3652,-3.3615,-3.3668,-3.4016,-3.4926,-3.5892,0.0,0.0,0.0,0.0,0.0,0.0,0.0,0.0,0.0,0.0,0.0,0.0,0.0,0.0,0.0,0.0,0.0,0.0,0.0,-6.7061,-6.7439,-6.7617,-6.7709,-6.8134,-6.8086,-6.7598,-6.6457,-6.4685,-6.2345,-6.1579,0.0,0.0,0.0,0.0,-5.8577,-5.8702,-5.9065,-5.9526,-5.9728,-6.0094,-6.0556,-6.0925,-6.1059,-6.1095,-6.1322,-6.1352,-6.1283,-6.1283,-6.1291,-6.1281,-6.1229,-6.1173,-6.1173,-6.1137,-6.1118,-6.1505,-6.3245,-6.3748,-6.4193,-6.5819,-6.6322,-6.6376,-6.634,-6.6472,-6.6866,-6.7635,-6.8681,-6.9643,-7.0368,-7.121,-7.1817,-7.1817,-7.17,-7.1661,-7.1778,-7.17,-7.1661,-7.1778,-7.1817,-7.1817,-7.1817,-7.1817,-7.2529,-7.4294,-7.44,-7.5179,-7.6944,-7.6855,-7.6873,-7.6984,-7.5293,-7.4771,-7.5586,-7.4041,-7.4055,-7.551,-7.558,-7.5992,-3.3334,-3.5502,-3.7094,-3.4394,-3.3723,-3.3733,-3.3606,-3.3615,-3.3615,-3.3587,-3.396,-3.4431,-3.4917,-3.5805,-3.6564,0.0,0.0,0.0,0.0,0.0,0.0,0.0,0.0,0.0,0.0,0.0,0.0,0.0,0.0,0.0,0.0,0.0,0.0,-6.7195,-6.7948,-6.8271,-6.8222,-6.8383,-6.8284,-6.8023,-6.7875,-6.6544,-6.4007,-6.3326,-6.1744,0.0,0.0,-5.8784,-5.9025,-5.9025,-5.9395,-6.0006,-6.0234,-6.0556,-6.0923,-6.1191,-6.1259,-6.1268,-6.1352,-6.1352,-6.1283,-6.1283,-6.1259,-6.1191,-6.1191,-6.1155,-6.1118,-6.1118,-6.1118,-6.1505,-6.3245,-6.3729,-6.4155,-6.5858,-6.634,-6.6394,-6.6373,-6.7037,-6.7641,-6.7758,-6.915,-7.0329,-7.0485,-7.121,-7.1817,-7.1817,-7.1232,-7.1037,-7.17,-7.1193,-7.1037,-7.1739,-7.1817,-7.1817,-7.1817,-7.1817,-7.2521,-7.4272,-7.4402,-7.5172,-7.6926,-7.6289,-7.6263,-7.6984,-7.524,-7.473,-7.5586,-7.4548,-7.4544,-7.551,-7.558,-7.5992,-3.3214,-3.4321,-3.5675,-3.6608,-3.7955,-3.9289,-4.0147,-4.0037,-3.9276,-3.7776,-3.7616,-3.7503,-3.6457,0.0,-4.081,-4.4564,0.0,0.0,0.0,0.0,0.0,0.0,0.0,0.0,0.0,0.0,0.0,0.0,0.0,0.0,0.0,0.0,0.0,0.0,-6.832,-6.8408,-6.8208,-6.8309,-6.8309,-6.8208,-6.7664,-6.6679,-6.5138,-6.3437,-6.1908,-6.0646,0.0,-5.9475,-5.9363,-5.992,-6.021,-6.0261,-6.0444,-6.08,-6.1173,-6.1259,-6.1306,-6.1322,-6.1366,-6.1376,-6.1291,-6.1291,-6.1225,-6.1155,-6.1155,-6.1446,-6.1814,-6.1814,-6.1814,-6.2085,-6.34,-6.4058,-6.4735,-6.5993,-6.6358,-6.6373,-6.6406,-6.713,-6.7942,-6.8449,-6.9616,-7.0497,-7.0547,-7.087,-7.0998,-7.0531,-7.0141,-7.018,-7.1037,-7.0414,-7.0375,-7.1661,-7.1427,-7.131,-7.1778,-7.1817,-7.253,-7.429,-7.5272,-7.6154,-7.6953,-7.6618,-7.6568,-7.6877,-7.5664,-7.54,-7.6187,-7.5277,-7.53,-7.6138,-7.6194,-7.6371,-3.3117,-3.3656,-3.5083,-3.8594,-4.0321,-4.1952,-4.5321,-4.466,-4.3015,-4.1827,-4.1538,-4.0844,-3.859,-4.0593,0.0,0.0,0.0,0.0,0.0,0.0,0.0,0.0,0.0,0.0,0.0,0.0,0.0,0.0,0.0,0.0,0.0,0.0,0.0,0.0,-6.8506,-6.8408,-6.8158,-6.8208,-6.8259,-6.8259,-6.7479,-6.6679,-6.5979,-6.3816,-6.2433,-6.1839,-6.0867,-6.0225,-6.0009,-6.0621,-6.0762,-6.0556,-6.0627,-6.0923,-6.1281,-6.1291,-6.1306,-6.1306,-6.1352,-6.1361,-6.1297,-6.1281,-6.1191,-6.1157,-6.135,-6.1892,-6.2433,-6.2665,-6.2859,-6.3187,-6.3883,-6.4521,-6.5237,-6.6128,-6.6355,-6.6422,-6.6422,-6.716,-6.8047,-6.8772,-6.9601,-7.0236,-7.0297,-7.0297,-7.0063,-6.9401,-6.9128,-6.9323,-7.018,-6.9518,-6.9634,-7.1349,-7.0804,-7.0541,-7.1146,-7.1581,-7.245,-7.4009,-7.5937,-7.6983,-7.6984,-7.6802,-7.6702,-7.6777,-7.5969,-7.5922,-7.6687,-7.5991,-7.603,-7.6687,-7.6687,-7.6687,-3.3086,-3.5431,-3.8158,-3.9243,-3.6552,-3.5836,-4.4186,-4.2286,-3.9786,-4.3397,-4.4053,-4.3287,0.0,-4.2072,0.0,0.0,0.0,0.0,0.0,0.0,0.0,0.0,0.0,0.0,0.0,0.0,0.0,0.0,0.0,0.0,0.0,0.0,0.0,0.0,0.0,-6.8408,-6.8309,-6.8208,-6.8121,-6.8121,-6.8134,-6.7577,-6.6431,-6.5549,-6.4479,-6.3158,-6.1533,-6.1045,-6.1297,-6.059,-6.0546,-6.0923,-6.0882,-6.0982,-6.1137,-6.1225,-6.1297,-6.1314,-6.1306,-6.1291,-6.1297,-6.1247,-6.1155,-6.1234,-6.2046,-6.2356,-6.2588,-6.3362,-6.4174,-6.4851,-6.4909,-6.4947,-6.5237,-6.6165,-6.6445,-6.6508,-6.6508,-6.7217,-6.7915,-6.7993,-6.8756,-6.9401,-6.9401,-6.9401,-6.9362,-6.9323,-6.8621,-6.8427,-6.9284,-6.8621,-6.8777,-7.0492,-6.9907,-6.9401,-6.9477,-7.0898,-7.2197,-7.313,-7.5584,-7.699,-7.6984,-7.6165,-7.6052,-7.6777,-7.5835,-7.5779,-7.6687,-7.6555,-7.6594,-7.6687,-7.6687,-7.6687,-3.3024,-3.5548,-3.8528,-3.9901,-3.857,-3.9075,-4.7387,-4.7683,-4.6507,-4.766,-4.8466,0.0,0.0,0.0,0.0,0.0,0.0,0.0,0.0,0.0,0.0,0.0,0.0,0.0,0.0,0.0,0.0,0.0,0.0,0.0,0.0,0.0,0.0,0.0,0.0,-6.8408,-6.8309,-6.8259,-6.8208,-6.807,-6.7814,-6.7551,-6.7241,-6.557,-6.467,-6.4448,-6.3359,-6.2796,-6.2657,-6.3045,-6.2618,-6.1775,-6.1254,-6.1408,-6.1908,-6.144,-6.1247,-6.1225,-6.1291,-6.1275,-6.1324,-6.1845,-6.1947,-6.2085,-6.2936,-6.3594,-6.4097,-6.4406,-6.5161,-6.5664,-6.5141,-6.5855,-6.6627,-6.645,-6.6897,-6.7359,-6.7359,-6.7645,-6.8082,-6.8639,-6.905,-6.9128,-6.8582,-6.8504,-6.831,-6.7764,-6.7413,-6.753,-6.8388,-6.7725,-6.7842,-6.9596,-6.9497,-6.9302,-6.9288,-7.0857,-7.1948,-7.226,-7.4757,-7.6439,-7.6985,-7.6649,-7.6572,-7.6738,-7.6432,-7.6379,-7.6633,-7.6672,-7.6691,-7.6687,-7.6687,-7.6687,-3.3178,-3.5033,-3.758,-3.9889,-4.03,-4.2011,-4.9086,-4.9824,-4.9524,-5.1396,-5.1682,-5.1067,-4.9554,0.0,0.0,0.0,0.0,0.0,0.0,0.0,0.0,0.0,0.0,0.0,0.0,0.0,0.0,0.0,0.0,0.0,0.0,0.0,0.0,0.0,0.0,0.0,-6.8358,-6.8309,-6.821,-6.7963,-6.744,-6.7261,-6.7484,-6.5767,-6.5171,-6.535,-6.4315,-6.3847,-6.383,-6.4077,-6.3613,-6.2704,-6.1872,-6.1929,-6.2469,-6.2155,-6.1845,-6.1651,-6.1989,-6.2089,-6.2099,-6.2698,-6.2895,-6.2994,-6.3864,-6.4522,-6.5083,-6.5353,-6.5875,-6.6185,-6.5604,-6.6355,-6.7144,-6.6523,-6.6966,-6.7554,-6.7827,-6.7708,-6.7704,-6.8349,-6.8465,-6.8271,-6.7686,-6.7608,-6.7374,-6.679,-6.6712,-6.6907,-6.753,-6.7053,-6.7157,-6.8359,-6.8722,-6.8781,-6.8507,-7.0022,-7.1143,-7.1416,-7.3612,-7.5402,-7.6532,-7.6547,-7.6611,-7.6738,-7.676,-7.6708,-7.6614,-7.6691,-7.671,-7.6687,-7.6687,-7.6687,-3.3486,-3.4105,-3.5615,-3.9135,-4.1038,-4.3395,-4.8456,-4.7132,-4.6838,-5.4202,-5.3363,-5.1037,-5.0109,0.0,0.0,0.0,0.0,0.0,0.0,0.0,0.0,0.0,0.0,0.0,0.0,0.0,0.0,0.0,0.0,0.0,0.0,0.0,0.0,0.0,0.0,0.0,-6.8506,-6.8358,-6.8108,-6.7673,-6.7063,-6.6814,-6.6898,-6.6543,-6.6183,-6.5804,-6.4075,-6.3968,-6.487,-6.3071,-6.2916,-6.374,-6.2835,-6.2507,-6.2641,-6.3541,-6.3308,-6.2654,-6.3596,-6.3851,-6.3817,-6.3804,-6.3824,-6.394,-6.4754,-6.5061,-6.5291,-6.6144,-6.6376,-6.6376,-6.6376,-6.6411,-6.6406,-6.6406,-6.6514,-6.6854,-6.771,-6.7253,-6.6712,-6.6712,-6.6712,-6.6712,-6.6712,-6.6712,-6.6712,-6.6712,-6.6712,-6.6712,-6.6712,-6.672,-6.6696,-6.6718,-6.7487,-6.7659,-6.6756,-6.8288,-6.9684,-7.0532,-7.215,-7.3882,-7.5635,-7.5612,-7.596,-7.6777,-7.6648,-7.6632,-7.6687,-7.671,-7.671,-7.6687,-7.6687,-7.6687,-3.3147,-3.6894,0.0,-4.061,0.0,0.0,0.0,-5.0204,-5.0145,0.0,-5.4266,-5.3211,-5.278,0.0,0.0,0.0,0.0,0.0,0.0,0.0,0.0,0.0,0.0,0.0,0.0,0.0,0.0,0.0,0.0,0.0,0.0,0.0,0.0,0.0,0.0,0.0,-6.8506,-6.8064,-6.7755,-6.7539,-6.6786,-6.6511,-6.6539,-6.6032,-6.5882,-6.5951,-6.5517,-6.5566,-6.5816,-6.4769,-6.4898,-6.553,-6.4028,-6.3817,-6.4355,-6.3951,-6.3641,-6.3469,-6.379,-6.3873,-6.3899,-6.4571,-6.473,-6.4811,-6.5699,-6.5989,-6.6084,-6.6334,-6.6389,-6.6273,-6.5691,-6.6477,-6.7238,-6.6684,-6.7061,-6.7665,-6.792,-6.7296,-6.6868,-6.7491,-6.7141,-6.6712,-6.6712,-6.6712,-6.6712,-6.6712,-6.6712,-6.6702,-6.6681,-6.6699,-6.6717,-6.6719,-6.694,-6.699,-6.6717,-6.8305,-6.9392,-6.9674,-7.1302,-7.3018,-7.4733,-7.4767,-7.5106,-7.5876,-7.5876,-7.6177,-7.671,-7.669,-7.6708,-7.6687,-7.6687,-7.6687,-3.5453,-3.9276,0.0,-4.5134,-4.8936,-5.2678,-5.4633,0.0,0.0,0.0,0.0,0.0,0.0,0.0,0.0,0.0,0.0,0.0,0.0,0.0,0.0,0.0,0.0,0.0,0.0,0.0,0.0,0.0,0.0,0.0,0.0,0.0,0.0,0.0,0.0,0.0,-6.8232,-6.7685,-6.7338,-6.7043,-6.6516,-6.6249,-6.6162,-6.5827,-6.587,-6.608,-6.6245,-6.6144,-6.5829,-6.5397,-6.5701,-6.6353,-6.4915,-6.4721,-6.5164,-6.497,-6.4643,-6.4394,-6.4792,-6.4898,-6.4906,-6.548,-6.5618,-6.5643,-6.6221,-6.6411,-6.6445,-6.6422,-6.6422,-6.6306,-6.5856,-6.6772,-6.7645,-6.6802,-6.7319,-6.7987,-6.7979,-6.7307,-6.6868,-6.7374,-6.7073,-6.6683,-6.6712,-6.6722,-6.6683,-6.6712,-6.6702,-6.6694,-6.6715,-6.6718,-6.6708,-6.6696,-6.67,-6.6681,-6.6688,-6.8297,-6.9294,-6.935,-7.0931,-7.2365,-7.3378,-7.3687,-7.4262,-7.505,-7.505,-7.5432,-7.6203,-7.6221,-7.6376,-7.6687,-7.6687,-7.6687,-3.924,0.0,0.0,-5.114,-5.3608,0.0,-5.8408,0.0,0.0,0.0,0.0,0.0,0.0,0.0,0.0,0.0,0.0,0.0,0.0,0.0,0.0,0.0,0.0,0.0,0.0,0.0,0.0,0.0,0.0,0.0,0.0,0.0,0.0,0.0,0.0,0.0,-6.7851,-6.7313,-6.682,0.0,-6.6293,-6.6101,-6.582,-6.587,-6.5997,-6.6205,-6.6445,-6.6066,-6.5336,-6.5336,-6.5778,-6.6431,-6.5607,-6.5336,-6.5413,-6.6221,-6.5988,-6.5413,-6.6221,-6.6445,-6.6376,-6.6376,-6.6376,-6.6376,-6.6394,-6.6445,-6.6508,-6.6508,-6.6508,-6.6508,-6.6508,-6.7189,-6.771,-6.6905,-6.7334,-6.7926,-6.7998,-6.7335,-6.6712,-6.6712,-6.6693,-6.6702,-6.6722,-6.6693,-6.6711,-6.6693,-6.6694,-6.6713,-6.6692,-6.6712,-6.6688,-6.6683,-6.6712,-6.6683,-6.6711,-6.831,-6.935,-6.9387,-7.0988,-7.1897,-7.1897,-7.2585,-7.3406,-7.4262,-7.4155,-7.4538,-7.5377,-7.5383,-7.5793,-7.6609,-7.6609,-7.6648,0.0,-4.3852,0.0,0.0,-5.5248,-5.842,0.0,0.0,0.0,0.0,0.0,0.0,0.0,0.0,0.0,0.0,0.0,0.0,0.0,0.0,0.0,0.0,0.0,0.0,0.0,0.0,0.0,0.0,0.0,0.0,0.0,0.0,0.0,0.0,0.0,-6.7936,-6.8183,-6.7119,-6.6455,0.0,-6.6039,-6.5882,-6.587,-6.5881,-6.6041,-6.6281,-6.6422,-6.6392,-6.6221,-6.6221,-6.6338,-6.647,-6.6299,-6.6221,-6.6221,-6.6431,-6.6392,-6.626,-6.6384,-6.6428,-6.6376,-6.6376,-6.6376,-6.6394,-6.6373,-6.6461,-6.6508,-6.6508,-6.6508,-6.6508,-6.6553,-6.7256,-6.7878,-6.7732,-6.7821,-6.7998,-6.7979,-6.7307,-6.6712,-6.6712,-6.6693,-6.6711,-6.6702,-6.672,-6.6752,-6.6712,-6.6718,-6.6699,-6.6683,-6.6713,-6.6693,-6.6712,-6.6712,-6.6683,-6.6711,-6.8288,-6.9319,-6.9327,-7.094,-7.1887,-7.1827,-7.1989,-7.2445,-7.3285,-7.327,-7.3667,-7.4489,-7.4472,-7.49,-7.5754,-7.5754,-7.6104,0.0,0.0,0.0,-5.4391,0.0,0.0,0.0,0.0,0.0,0.0,0.0,0.0,0.0,0.0,0.0,0.0,0.0,0.0,0.0,0.0,0.0,0.0,0.0,0.0,0.0,0.0,0.0,0.0,0.0,0.0,0.0,0.0,0.0,0.0,-6.822,-6.7881,-6.8063,-6.6765,-6.6106,-6.6155,-6.5935,-6.5943,-6.6105,-6.6105,-6.6206,-6.6406,-6.6454,-6.6508,-6.6508,-6.6508,-6.6508,-6.6508,-6.6508,-6.6508,-6.6508,-6.6508,-6.6508,-6.6508,-6.6422,-6.6411,-6.6376,-6.6358,-6.634,-6.6358,-6.6338,-6.6389,-6.6439,-6.6508,-6.6524,-6.6553,-6.6581,-6.7243,-6.802,-6.8483,-6.826,-6.7998,-6.7989,-6.7316,-6.6712,-6.6712,-6.6741,-6.6736,-6.6727,-6.6687,-6.6713,-6.6718,-6.6696,-6.67,-6.6713,-6.6702,-6.6712,-6.6712,-6.6712,-6.6722,-6.6767,-6.8336,-6.928,-6.9319,-7.0931,-7.1877,-7.177,-7.1745,-7.1938,-7.236,-7.2345,-7.2741,-7.3579,-7.3579,-7.4045,-7.4861,-7.4861,-7.5094,0.0,0.0,-4.9191,-5.704,-5.8862,0.0,0.0,0.0,0.0,0.0,0.0,0.0,0.0,0.0,0.0,0.0,0.0,0.0,0.0,0.0,0.0,0.0,0.0,0.0,0.0,0.0,0.0,0.0,0.0,0.0,0.0,0.0,-6.88,-6.9077,-6.8098,-6.7591,-6.7722,-6.6469,-6.5884,-6.6013,-6.5974,-6.6084,-6.6299,-6.6316,-6.6406,-6.6508,-6.6508,-6.6508,-6.6508,-6.6508,-6.6508,-6.6508,-6.6508,-6.6508,-6.6508,-6.6508,-6.6508,-6.6493,-6.6406,-6.6411,-6.6376,-6.6322,-6.6303,-6.6303,-6.6303,-6.6338,-6.6422,-6.6493,-6.6538,-6.6581,-6.662,-6.7163,-6.7926,-6.8795,-6.8398,-6.7872,-6.8154,-6.7404,-6.6702,-6.6702,-6.6752,-6.6756,-6.6706,-6.6639,-6.6653,-6.6694,-6.6688,-6.6697,-6.6722,-6.6712,-6.6712,-6.6712,-6.6712,-6.6741,-6.6783,-6.8344,-6.9311,-6.9311,-7.0922,-7.1806,-7.1704,-7.1675,-7.1684,-7.1684,-7.1614,-7.1947,-7.2685,-7.2685,-7.3113,-7.3967,-7.3967,-7.4045,0.0,0.0,-5.2712,0.0,0.0,0.0,0.0,0.0,0.0,0.0,0.0,0.0,0.0,0.0,0.0,0.0,0.0,0.0,0.0,0.0,0.0,0.0,0.0,0.0,0.0,0.0,0.0,0.0,0.0,0.0,0.0,0.0,-6.7577,-6.9032,-6.7528,-6.6863,-6.7269,-6.642,-6.6013,-6.608,-6.6187,-6.6281,-6.6299,-6.6422,-6.6493,-6.6508,-6.6508,-6.6508,-6.6508,-6.6508,-6.6508,-6.6508,-6.6508,-6.6508,-6.6508,-6.6508,-6.6508,-6.6493,-6.6411,-6.6394,-6.6358,-6.6225,-6.6264,-6.6303,-6.6303,-6.6394,-6.6493,-6.6508,-6.6567,-6.662,-6.6657,-6.6786,-6.7081,-6.8046,-6.7553,-6.7292,-6.8807,-6.7844,-6.6683,-6.6683,-6.6678,-6.663,-6.6699,-6.6706,-6.6681,-6.6713,-6.6711,-6.6683,-6.6712,-6.6712,-6.6712,-6.6712,-6.6693,-6.672,-6.6783,-6.8327,-6.9284,-6.9284,-7.0809,-7.1718,-7.1714,-7.163,-7.1614,-7.1614,-7.1598,-7.1675,-7.1753,-7.1753,-7.2219,-7.3074,-7.3074,-7.3501,-4.1611,-4.7536,0.0,0.0,0.0,0.0,0.0,0.0,0.0,0.0,0.0,0.0,0.0,0.0,0.0,0.0,0.0,0.0,0.0,0.0,0.0,0.0,0.0,0.0,0.0,0.0,0.0,0.0,0.0,0.0,0.0,-6.6817,-6.739,-6.8324,-6.7361,0.0,-6.7972,-6.6646,-6.6041,-6.6206,-6.6355,-6.6422,-6.6422,-6.6454,-6.6508,-6.6508,-6.6508,-6.6508,-6.6508,-6.6508,-6.6508,-6.6508,-6.6508,-6.6508,-6.6508,-6.6508,-6.6493,-6.6422,-6.6411,-6.6358,-6.6322,-6.6205,-6.6205,-6.6225,-6.6301,-6.6373,-6.6454,-6.6514,-6.6563,-6.6633,-6.6673,-6.6681,-6.6852,-6.7771,-6.7303,-6.6984,-6.8234,-6.7535,-6.664,-6.664,-6.6618,-6.661,-6.6635,-6.6654,-6.6652,-6.6683,-6.6702,-6.6691,-6.6712,-6.6712,-6.6712,-6.6712,-6.6693,-6.6711,-6.6741,-6.831,-6.9265,-6.9251,-7.081,-7.169,-7.1669,-7.1614,-7.1598,-7.1598,-7.1598,-7.1598,-7.1598,-7.1598,-7.1792,-7.218,-7.218,-7.2375,0.0,0.0,0.0,0.0,0.0,0.0,0.0,0.0,0.0,0.0,0.0,0.0,0.0,0.0,0.0,0.0,0.0,0.0,0.0,0.0,0.0,0.0,0.0,0.0,0.0,0.0,0.0,0.0,0.0,0.0,-6.6698,-6.6748,-6.6988,-6.7577,-6.7318,-6.7408,-6.7965,-6.672,-6.6187,-6.6334,-6.6439,-6.6508,-6.6508,-6.6508,-6.6508,-6.6508,-6.6508,-6.6508,-6.6508,-6.6508,-6.6508,-6.6508,-6.6508,-6.6508,-6.6508,-6.6508,-6.6493,-6.6406,-6.6394,-6.6358,-6.6322,-6.6244,-6.6205,-6.6245,-6.6281,-6.6351,-6.647,-6.6555,-6.6594,-6.6628,-6.6689,-6.666,-6.6794,-6.7457,-6.7093,-6.6783,-6.7425,-6.7043,-6.6609,-6.66,-6.658,-6.6595,-6.6595,-6.6606,-6.6659,-6.6708,-6.6719,-6.6691,-6.6712,-6.6712,-6.6712,-6.6722,-6.6693,-6.6693,-6.6683,-6.8086,-6.9028,-6.9189,-7.0576,-7.1427,-7.1598,-7.1598,-7.1598,-7.1598,-7.1598,-7.1598,-7.1598,-7.1598,-7.1598,-7.1598,-7.1598,-7.1598,0.0,0.0,0.0,0.0,0.0,0.0,0.0,0.0,0.0,0.0,0.0,0.0,0.0,0.0,0.0,0.0,0.0,0.0,0.0,0.0,0.0,0.0,0.0,0.0,0.0,0.0,0.0,0.0,0.0,0.0,-6.7013,-6.6031,-6.5886,-6.6995,-6.7229,-6.6962,-6.6256,-6.6376,-6.6493,-6.6508,-6.6508,-6.6508,-6.6508,-6.6508,-6.6508,-6.6508,-6.6508,-6.6508,-6.6508,-6.6508,-6.6508,-6.6508,-6.6508,-6.6508,-6.6508,-6.6508,-6.6508,-6.6493,-6.6411,-6.6376,-6.6358,-6.6225,-6.6264,-6.6299,-6.6299,-6.6415,-6.6581,-6.6581,-6.6633,-6.6717,-6.6712,-6.6708,-6.6718,-6.6752,-6.6678,-6.6619,-6.6642,-6.6642,-6.6603,-6.6603,-6.6591,-6.662,-6.662,-6.6633,-6.6708,-6.6708,-6.6691,-6.6712,-6.6712,-6.6712,-6.6683,-6.6702,-6.6683,-6.6683,-6.6702,-6.7498,-6.8333,-6.915,-6.9935,-7.0743,-7.1559,-7.1598,-7.1598,-7.1598,-7.1598,-7.1598,-7.1598,-7.1598,-7.1598,-7.1598,-7.1598,-7.1598,0.0,0.0,0.0,0.0,0.0,0.0,0.0,0.0,0.0,0.0,0.0,0.0,0.0,0.0,0.0,0.0,0.0,0.0,0.0,0.0,0.0,0.0,0.0,0.0,0.0,0.0,0.0,0.0,0.0,0.0,-6.6641,-6.5817,-6.5609,-6.6269,-6.6371,-6.6337,-6.6144,-6.6954,-6.7052,-6.6508,-6.6508,-6.6508,-6.6508,-6.6508,-6.6508,-6.6508,-6.6508,-6.6508,-6.6508,-6.6508,-6.6508,-6.6508,-6.6508,-6.6508,-6.6508,-6.6508,-6.6454,-6.6422,-6.6461,-6.6445,-6.6389,-6.6373,-6.6406,-6.6439,-6.6485,-6.6528,-6.6624,-6.6658,-6.6667,-6.6715,-6.6717,-6.6664,-6.6642,-6.6654,-6.6602,-6.6543,-6.653,-6.7031,-6.7257,-6.6659,-6.6581,-6.662,-6.6594,-6.6645,-6.6719,-6.6691,-6.6702,-6.6712,-6.6712,-6.6683,-6.6702,-6.6711,-6.6702,-6.6683,-6.6624,-6.7424,-6.8267,-6.908,-6.9865,-7.0704,-7.1559,-7.1598,-7.1598,-7.1598,-7.1598,-7.1598,-7.1598,-7.1598,-7.1598,-7.1598,-7.1598,-7.1598,-3.642,0.0,0.0,0.0,0.0,0.0,0.0,0.0,0.0,0.0,0.0,0.0,0.0,0.0,0.0,0.0,0.0,0.0,0.0,0.0,0.0,0.0,0.0,0.0,0.0,0.0,0.0,0.0,0.0,0.0,-6.6001,-6.5733,-6.5778,-6.6406,-6.6406,-6.6521,-6.6709,-6.7432,-6.7363,-6.6508,-6.6508,-6.6508,-6.6508,-6.6508,-6.6508,-6.6508,-6.6508,-6.6508,-6.6508,-6.6508,-6.6508,-6.6508,-6.6508,-6.6508,-6.6508,-6.6508,-6.6493,-6.6422,-6.6493,-6.6493,-6.6422,-6.6493,-6.6524,-6.6528,-6.6579,-6.6633,-6.6655,-6.6692,-6.6716,-6.6717,-6.6708,-6.6642,-6.662,-6.6594,-6.6553,-6.6508,-6.6508,-6.6983,-6.7256,-6.6601,-6.6538,-6.662,-6.6594,-6.6645,-6.6719,-6.6691,-6.6702,-6.6712,-6.6712,-6.6693,-6.6711,-6.6702,-6.6693,-6.6673,-6.6579,-6.7386,-6.8239,-6.9034,-6.9849,-7.0704,-7.1559,-7.1598,-7.1598,-7.1598,-7.1598,-7.1598,-7.1598,-7.1598,-7.1598,-7.1598,-7.1598,-7.1598,0.0,0.0,0.0,0.0,0.0,0.0,0.0,0.0,0.0,0.0,0.0,0.0,0.0,0.0,0.0,0.0,0.0,0.0,0.0,0.0,0.0,0.0,0.0,0.0,0.0,0.0,0.0,0.0,0.0,-6.3503,-6.5192,-6.5663,-6.6367,-6.7423,-6.7381,-6.7484,-6.7752,-6.7752,-6.7324,-6.6508,-6.6508,-6.6508,-6.6508,-6.6508,-6.6508,-6.6508,-6.6508,-6.6508,-6.6508,-6.6508,-6.6508,-6.6508,-6.6508,-6.6508,-6.6508,-6.6508,-6.6508,-6.6508,-6.6508,-6.6508,-6.6508,-6.6508,-6.6567,-6.6618,-6.6603,-6.6655,-6.6692,-6.6718,-6.6708,-6.6717,-6.6717,-6.6633,-6.6581,-6.6581,-6.6567,-6.6508,-6.6508,-6.6508,-6.6508,-6.6508,-6.6538,-6.6606,-6.6645,-6.6672,-6.6708,-6.6708,-6.673,-6.6712,-6.6712,-6.6732,-6.6741,-6.6751,-6.6691,-6.6696,-6.6659,-6.7369,-6.8218,-6.9072,-6.9888,-7.0704,-7.1559,-7.1598,-7.1598,-7.1598,-7.1598,-7.1598,-7.1636,-7.1598,-7.1598,-7.1598,-7.1598,-7.1598,-3.2898,0.0,0.0,0.0,0.0,0.0,0.0,0.0,0.0,0.0,0.0,0.0,0.0,0.0,0.0,0.0,0.0,0.0,0.0,0.0,0.0,0.0,0.0,0.0,0.0,0.0,0.0,0.0,0.0,-6.3028,-6.4692,-6.5562,-6.6151,-6.6533,-6.6593,-6.663,-6.6683,-6.6788,-6.6742,-6.6508,-6.6508,-6.6508,-6.6508,-6.6508,-6.6508,-6.6508,-6.6508,-6.6508,-6.6508,-6.6508,-6.6508,-6.6508,-6.6508,-6.6508,-6.6508,-6.6508,-6.6493,-6.6422,-6.6493,-6.6485,-6.6514,-6.6542,-6.6624,-6.6681,-6.6661,-6.6674,-6.6708,-6.6699,-6.67,-6.6711,-6.6711,-6.6673,-6.6657,-6.6633,-6.6594,-6.6538,-6.6508,-6.6508,-6.6508,-6.6508,-6.6538,-6.6761,-6.7384,-6.7061,-6.6902,-6.7486,-6.7081,-6.6712,-6.6712,-6.7257,-6.7657,-6.7647,-6.8148,-6.8501,-6.8488,-6.8652,-6.9072,-6.9927,-7.0199,-7.0704,-7.1559,-7.1598,-7.1598,-7.1598,-7.1598,-7.1908,-7.253,-7.1908,-7.1598,-7.1598,-7.1598,-7.1598,-3.2898,-3.2961,-3.3117,-3.3502,0.0,0.0,0.0,0.0,0.0,0.0,0.0,0.0,0.0,0.0,0.0,0.0,0.0,0.0,0.0,0.0,0.0,0.0,0.0,0.0,0.0,0.0,0.0,0.0,-6.1747,-6.2844,-6.4586,-6.555,-6.6144,-6.6245,-6.663,-6.6704,-6.6389,-6.6843,-6.6858,-6.6508,-6.6508,-6.6508,-6.6508,-6.6508,-6.6508,-6.6508,-6.6508,-6.6508,-6.6508,-6.6508,-6.6508,-6.6508,-6.6508,-6.6508,-6.6508,-6.6493,-6.6422,-6.6406,-6.6439,-6.6485,-6.6503,-6.6591,-6.6658,-6.6687,-6.6715,-6.6713,-6.6712,-6.6688,-6.672,-6.6712,-6.6712,-6.6691,-6.6669,-6.6633,-6.6594,-6.6592,-6.6524,-6.6508,-6.6508,-6.6508,-6.6524,-6.681,-6.7665,-6.7152,-6.6918,-6.7774,-6.7225,-6.6712,-6.6712,-6.7452,-6.7987,-6.7965,-6.8708,-6.9175,-6.9148,-6.9453,-6.9811,-7.0277,-7.0626,-7.1054,-7.1559,-7.1598,-7.1753,-7.2142,-7.2142,-7.2375,-7.2918,-7.2025,-7.1598,-7.1598,-7.1598,-7.1598,-3.3041,-3.3055,-3.3232,-3.353,-3.3753,0.0,-4.2507,-4.4153,0.0,0.0,0.0,0.0,0.0,0.0,0.0,0.0,0.0,0.0,0.0,0.0,0.0,0.0,0.0,0.0,0.0,0.0,0.0,-6.0781,-6.1612,-6.2876,-6.4591,-6.5564,-6.6129,-6.6316,-6.7053,-6.7166,-6.6508,-6.7285,-6.7285,-6.6508,-6.6508,-6.6508,-6.6508,-6.6508,-6.6508,-6.6508,-6.6508,-6.6508,-6.6508,-6.6508,-6.6508,-6.6508,-6.6508,-6.6508,-6.6508,-6.6422,-6.6406,-6.6389,-6.6406,-6.6431,-6.6491,-6.6594,-6.6661,-6.6706,-6.6703,-6.6712,-6.6694,-6.6702,-6.6712,-6.6712,-6.6712,-6.6691,-6.6669,-6.6633,-6.6594,-6.6567,-6.6524,-6.6508,-6.6508,-6.6508,-6.6508,-6.678,-6.765,-6.7125,-6.6893,-6.7788,-6.7214,-6.6751,-6.6818,-6.7598,-6.816,-6.8177,-6.8942,-6.9459,-6.9383,-7.0044,-7.0432,-7.0432,-7.117,-7.1598,-7.1598,-7.1598,-7.1947,-7.2724,-7.2957,-7.2996,-7.2918,-7.2103,-7.1675,-7.1598,-7.1581,-7.1564,-3.3758,-3.3055,-3.3232,-3.353,0.0,0.0,0.0,-3.6472,0.0,0.0,0.0,0.0,0.0,0.0,0.0,0.0,0.0,0.0,0.0,0.0,0.0,0.0,0.0,0.0,0.0,0.0,-6.0781,-6.0781,-6.1643,-6.272,-6.392,-6.4829,-6.5657,-6.6439,-6.6633,-6.6648,-6.6508,-6.6664,-6.6664,-6.6508,-6.6508,-6.6508,-6.6508,-6.6508,-6.6508,-6.6508,-6.6508,-6.6508,-6.6508,-6.6508,-6.6508,-6.6508,-6.6508,-6.6508,-6.6508,-6.6493,-6.6461,-6.6411,-6.6477,-6.6503,-6.6507,-6.6572,-6.6667,-6.6703,-6.6683,-6.6681,-6.6702,-6.6712,-6.6712,-6.6712,-6.6712,-6.6702,-6.6691,-6.6633,-6.662,-6.6594,-6.6524,-6.6508,-6.6508,-6.6508,-6.6508,-6.6796,-6.7641,-6.7139,-6.6905,-6.7786,-6.7236,-6.6935,-6.7576,-6.8448,-6.9228,-6.9848,-7.0635,-7.1109,-7.1093,-7.1248,-7.1365,-7.1365,-7.152,-7.1598,-7.1598,-7.1598,-7.1675,-7.1831,-7.3229,-7.3618,-7.2918,-7.2724,-7.2297,-7.1598,-7.1359,-7.1278,-3.3928,-3.3147,-3.3444,-3.3559,0.0,0.0,0.0,0.0,0.0,0.0,0.0,0.0,0.0,0.0,0.0,0.0,0.0,0.0,0.0,0.0,0.0,0.0,0.0,0.0,0.0,0.0,-6.0342,-6.0834,-6.173,-6.251,-6.312,-6.4394,-6.5374,-6.5848,-6.6275,-6.6508,-6.6508,-6.6508,-6.6508,-6.6508,-6.6508,-6.6508,-6.6508,-6.6508,-6.6508,-6.6508,-6.6508,-6.6508,-6.6508,-6.6508,-6.6508,-6.6508,-6.6508,-6.6508,-6.6508,-6.6439,-6.6439,-6.6454,-6.645,-6.6485,-6.6549,-6.6579,-6.6639,-6.6712,-6.672,-6.6711,-6.6712,-6.6712,-6.6712,-6.6712,-6.6712,-6.6712,-6.6691,-6.6633,-6.6581,-6.6569,-6.6524,-6.6508,-6.6625,-6.7044,-6.6825,-6.68,-6.7656,-6.7165,-6.6941,-6.7759,-6.7576,-6.742,-6.7837,-6.8994,-6.9964,-7.0377,-7.1125,-7.1598,-7.1598,-7.1598,-7.1598,-7.1598,-7.1598,-7.1598,-7.1598,-7.1598,-7.2025,-7.288,-7.4589,-7.5016,-7.42,-7.3773,-7.2789,-7.1417,-7.1278,-7.1108,0.0,0.0,0.0,0.0,0.0,-3.4884,0.0,0.0,0.0,0.0,0.0,0.0,0.0,0.0,0.0,0.0,0.0,0.0,0.0,0.0,0.0,0.0,0.0,0.0,0.0,0.0,-5.9386,-6.0783,-6.1195,-6.1756,-6.2732,-6.4016,-6.4877,-6.5188,-6.5887,-6.6314,-6.6508,-6.6508,-6.6508,-6.6508,-6.6508,-6.6508,-6.6508,-6.6508,-6.6508,-6.6508,-6.6508,-6.6586,-6.6742,-6.6586,-6.6586,-6.6742,-6.6586,-6.6508,-6.6508,-6.6454,-6.6446,-6.6503,-6.6485,-6.6541,-6.6609,-6.6638,-6.6648,-6.6688,-6.6693,-6.6712,-6.6712,-6.6712,-6.6712,-6.6712,-6.6712,-6.6712,-6.6702,-6.6645,-6.6633,-6.6607,-6.6538,-6.664,-6.6927,-6.7461,-6.7204,-6.7073,-6.7736,-6.7214,-6.6907,-6.7587,-6.7809,-6.7993,-6.8148,-6.9487,-7.0455,-7.0596,-7.1186,-7.1598,-7.1598,-7.1598,-7.1598,-7.1598,-7.1598,-7.1598,-7.1598,-7.1564,-7.2246,-7.3837,-7.512,-7.5489,-7.4829,-7.4131,-7.2987,-7.1446,-7.1247,-7.0965,0.0,0.0,0.0,0.0,-3.4005,0.0,0.0,0.0,0.0,0.0,0.0,0.0,0.0,0.0,0.0,0.0,0.0,0.0,0.0,0.0,0.0,0.0,0.0,0.0,0.0,0.0,0.0,-6.065,-5.905,-5.9636,-6.3518,-6.3254,-6.3673,-6.5149,-6.5304,-6.5732,-6.6508,-6.6508,-6.6508,-6.6508,-6.6508,-6.6508,-6.6508,-6.6508,-6.6508,-6.6508,-6.6508,-6.6936,-6.7596,-6.6819,-6.6975,-6.7596,-6.6819,-6.6508,-6.6508,-6.6542,-6.6555,-6.653,-6.6627,-6.6653,-6.6599,-6.6664,-6.6681,-6.6683,-6.6712,-6.6712,-6.6712,-6.6712,-6.6712,-6.6712,-6.6712,-6.6712,-6.6702,-6.6669,-6.6645,-6.6607,-6.6567,-6.715,-6.7475,-6.6841,-6.7353,-6.7862,-6.7948,-6.7268,-6.675,-6.6884,-6.7511,-6.8249,-6.8966,-6.9837,-7.0673,-7.1381,-7.1559,-7.1598,-7.1598,-7.1598,-7.1598,-7.1598,-7.1598,-7.1598,-7.1598,-7.1359,-7.1683,-7.265,-7.2597,-7.2469,-7.2392,-7.2276,-7.2263,-7.2336,-7.1326,-7.0671,0.0,0.0,0.0,0.0,0.0,0.0,-3.4624,0.0,-3.4179,0.0,0.0,0.0,0.0,0.0,0.0,0.0,0.0,0.0,0.0,0.0,0.0,0.0,0.0,0.0,0.0,0.0,0.0,0.0,0.0,-5.8861,-6.2284,-6.2609,-6.3245,-6.4488,-6.4955,-6.5615,-6.6508,-6.6508,-6.6508,-6.6508,-6.6508,-6.6508,-6.6508,-6.6508,-6.6508,-6.6508,-6.6508,-6.6703,-6.7014,-6.6664,-6.6703,-6.7029,-6.6645,-6.6528,-6.6555,-6.6576,-6.6611,-6.6635,-6.6638,-6.6635,-6.6657,-6.6681,-6.6711,-6.6712,-6.6712,-6.6712,-6.6712,-6.6712,-6.6712,-6.6712,-6.6712,-6.6712,-6.6702,-6.6719,-6.6645,-6.6737,-6.7269,-6.7592,-6.7878,-6.811,-6.8086,-6.7998,-6.8054,-6.7329,-6.6931,-6.7413,-6.8193,-6.9005,-6.9811,-7.0611,-7.1225,-7.1559,-7.1598,-7.1598,-7.1598,-7.1598,-7.1598,-7.1598,-7.1598,-7.1508,-7.1359,-7.1743,-7.2036,-7.2199,-7.2558,-7.2734,-7.2734,-7.2272,-7.2014,-7.1958,-7.0968,-7.0337,-3.7558,0.0,0.0,0.0,0.0,0.0,0.0,0.0,0.0,0.0,0.0,0.0,0.0,0.0,-3.4227,-3.4381,0.0,0.0,0.0,0.0,0.0,0.0,0.0,0.0,0.0,0.0,0.0,0.0,0.0,0.0,-6.1158,-6.1988,-6.274,-6.3634,-6.445,-6.5265,-6.6159,-6.6392,-6.6508,-6.6508,-6.6508,-6.6508,-6.6508,-6.6508,-6.6508,-6.6508,-6.6508,-6.6625,-6.6858,-6.6586,-6.6655,-6.6867,-6.6633,-6.658,-6.6633,-6.6605,-6.6628,-6.6676,-6.666,-6.6655,-6.6705,-6.6693,-6.6712,-6.6712,-6.6712,-6.6712,-6.6712,-6.6712,-6.6712,-6.6712,-6.6712,-6.6712,-6.6702,-6.6691,-6.6657,-6.6866,-6.7723,-6.806,-6.841,-6.9156,-6.8807,-6.8366,-6.8429,-6.7514,-6.7078,-6.7872,-6.8689,-6.9499,-7.029,-7.1086,-7.1598,-7.1598,-7.1598,-7.1598,-7.1598,-7.1598,-7.1598,-7.1598,-7.1508,-7.1378,-7.1214,-7.1641,-7.1775,-7.1516,-7.2072,-7.2356,-7.2356,-7.1743,-7.1312,-7.1125,-7.0577,-7.0141,0.0,0.0,0.0,-3.6099,0.0,0.0,0.0,0.0,-3.4179,0.0,0.0,0.0,0.0,-3.4179,-3.4227,-3.4381,-3.4592,0.0,0.0,0.0,0.0,0.0,0.0,0.0,0.0,0.0,0.0,0.0,0.0,0.0,-6.0973,-6.1391,-6.1847,-6.2701,-6.3595,-6.4411,-6.5226,-6.6081,-6.6508,-6.6508,-6.6508,-6.6508,-6.6508,-6.6508,-6.6508,-6.6508,-6.6508,-6.6975,-6.7674,-6.6858,-6.7022,-6.7764,-6.6922,-6.6657,-6.6676,-6.6601,-6.6599,-6.6597,-6.6678,-6.6697,-6.6712,-6.6712,-6.6712,-6.6712,-6.6712,-6.6712,-6.6712,-6.6712,-6.6712,-6.6712,-6.6712,-6.6712,-6.6712,-6.6712,-6.6691,-6.6902,-6.772,-6.8577,-6.9173,-6.9284,-6.9284,-6.9272,-6.9245,-6.7897,-6.7057,-6.7875,-6.869,-6.9496,-7.0278,-7.1101,-7.1598,-7.1598,-7.1598,-7.1598,-7.1598,-7.1598,-7.1598,-7.1598,-7.1339,-7.1214,-7.1214,-7.0671,-7.0375,-7.0375,-7.0149,-7.0005,-7.0005,-6.9967,-6.9967,-6.9967,-7.0175,-7.0141,0.0,0.0,-4.4563,-4.0001,0.0,0.0,0.0,0.0,0.0,0.0,0.0,0.0,0.0,-3.4404,-3.4381,-3.4517,-3.4561,-3.4626,0.0,0.0,0.0,0.0,0.0,0.0,0.0,0.0,0.0,0.0,0.0,0.0,0.0,-6.108,-6.1808,-6.2663,-6.2973,-6.3789,-6.5188,-6.5498,-6.5926,-6.6508,-6.6508,-6.6508,-6.6508,-6.6508,-6.6508,-6.6508,-6.6508,-6.6664,-6.6912,-6.6646,-6.6741,-6.6931,-6.6717,-6.6591,-6.6618,-6.6628,-6.6628,-6.6678,-6.6697,-6.6693,-6.6712,-6.6712,-6.6712,-6.6712,-6.6712,-6.6712,-6.6712,-6.6712,-6.6712,-6.6712,-6.6712,-6.6712,-6.6712,-6.6712,-6.6691,-6.7108,-6.8533,-6.9028,-6.9379,-7.0045,-7.0123,-6.9938,-6.9392,-6.8778,-6.8651,-6.9457,-6.9811,-7.0278,-7.1101,-7.142,-7.1598,-7.1598,-7.1598,-7.1598,-7.1598,-7.1598,-7.1598,-7.1598,-7.1339,-7.1108,-7.094,-7.0554,-7.0243,-7.0038,-6.9967,-6.9891,-6.9891,-6.9777,-6.9777,-6.9891,-6.9891,-6.9816,-4.74,-4.7995,0.0,-4.3364,-4.3178,0.0,-3.8476,0.0,0.0,0.0,0.0,0.0,0.0,-3.4517,-3.4517,-3.4663,-3.4685,-3.471,0.0,-3.5136,0.0,0.0,0.0,0.0,0.0,0.0,0.0,0.0,0.0,0.0,0.0,0.0,-6.1327,-6.2196,-6.2546,-6.3362,-6.476,-6.5071,-6.5654,-6.6508,-6.6508,-6.6508,-6.6508,-6.6508,-6.65,-6.6555,-6.6555,-6.6543,-6.6552,-6.6624,-6.661,-6.6582,-6.6591,-6.6616,-6.6611,-6.6605,-6.6624,-6.6697,-6.6693,-6.6712,-6.6712,-6.6712,-6.6712,-6.6712,-6.6712,-6.6712,-6.6634,-6.6312,-6.6468,-6.6634,-6.6312,-6.6468,-6.6712,-6.6712,-6.6702,-6.7081,-6.8543,-6.9039,-6.9507,-7.0435,-7.0541,-7.0453,-7.0169,-6.9846,-6.9823,-7.0317,-7.0395,-7.0679,-7.1497,-7.1598,-7.1598,-7.1598,-7.1598,-7.1598,-7.1598,-7.1598,-7.1581,-7.1472,-7.1214,-7.094,-7.0643,-7.0304,-6.9921,-6.9399,-6.974,-6.974,-6.9399,-6.9663,-6.9625,-6.9437,-6.9548,-6.9391]}]]